<?xml version='1.0' encoding='UTF-8'?>
<gpx version="1.1" creator="https://www.komoot.de" xmlns="http://www.topografix.com/GPX/1/1" xmlns:xsi="http://www.w3.org/2001/XMLSchema-instance" xsi:schemaLocation="http://www.topografix.com/GPX/1/1 http://www.topografix.com/GPX/1/1/gpx.xsd">
  <metadata>
    <name>RTCN Naardermeer 100 km gpx</name>
    <author>
      <link href="https://www.komoot.de">
        <text>komoot</text>
        <type>text/html</type>
      </link>
    </author>
  </metadata>
  <trk>
    <name>RTCN Naardermeer 100 km gpx</name>
    <trkseg>
      <trkpt lat="52.132611" lon="4.762787">
        <ele>-0.748525</ele>
        <time>2026-04-13T16:27:01.721Z</time>
      </trkpt>
      <trkpt lat="52.132726" lon="4.762964">
        <ele>-0.748525</ele>
        <time>2026-04-13T16:27:04.802Z</time>
      </trkpt>
      <trkpt lat="52.132814" lon="4.763143">
        <ele>-0.748525</ele>
        <time>2026-04-13T16:27:07.555Z</time>
      </trkpt>
      <trkpt lat="52.132968" lon="4.763456">
        <ele>-0.748525</ele>
        <time>2026-04-13T16:27:12.294Z</time>
      </trkpt>
      <trkpt lat="52.133001" lon="4.763528">
        <ele>-0.748525</ele>
        <time>2026-04-13T16:27:13.425Z</time>
      </trkpt>
      <trkpt lat="52.133199" lon="4.763873">
        <ele>-0.748525</ele>
        <time>2026-04-13T16:27:19.112Z</time>
      </trkpt>
      <trkpt lat="52.133226" lon="4.763918">
        <ele>-0.750917</ele>
        <time>2026-04-13T16:27:19.866Z</time>
      </trkpt>
      <trkpt lat="52.133456" lon="4.764302">
        <ele>-0.777546</ele>
        <time>2026-04-13T16:27:26.398Z</time>
      </trkpt>
      <trkpt lat="52.133537" lon="4.764438">
        <ele>-0.786951</ele>
        <time>2026-04-13T16:27:28.720Z</time>
      </trkpt>
      <trkpt lat="52.133659" lon="4.764591">
        <ele>-0.799400</ele>
        <time>2026-04-13T16:27:31.825Z</time>
      </trkpt>
      <trkpt lat="52.134311" lon="4.765224">
        <ele>-0.860770</ele>
        <time>2026-04-13T16:27:46.917Z</time>
      </trkpt>
      <trkpt lat="52.134794" lon="4.765634">
        <ele>-0.905465</ele>
        <time>2026-04-13T16:27:57.893Z</time>
      </trkpt>
      <trkpt lat="52.134871" lon="4.765699">
        <ele>-0.912903</ele>
        <time>2026-04-13T16:27:59.633Z</time>
      </trkpt>
      <trkpt lat="52.134905" lon="4.765728">
        <ele>-0.916194</ele>
        <time>2026-04-13T16:28:00.418Z</time>
      </trkpt>
      <trkpt lat="52.135289" lon="4.765926">
        <ele>-0.950736</ele>
        <time>2026-04-13T16:28:08.435Z</time>
      </trkpt>
      <trkpt lat="52.135842" lon="4.766196">
        <ele>-1.000247</ele>
        <time>2026-04-13T16:28:19.907Z</time>
      </trkpt>
      <trkpt lat="52.136032" lon="4.766290">
        <ele>-1.017276</ele>
        <time>2026-04-13T16:28:23.921Z</time>
      </trkpt>
      <trkpt lat="52.136241" lon="4.766402">
        <ele>-1.036145</ele>
        <time>2026-04-13T16:28:28.365Z</time>
      </trkpt>
      <trkpt lat="52.136380" lon="4.766475">
        <ele>-1.049706</ele>
        <time>2026-04-13T16:28:31.281Z</time>
      </trkpt>
      <trkpt lat="52.136592" lon="4.766588">
        <ele>-1.112179</ele>
        <time>2026-04-13T16:28:35.591Z</time>
      </trkpt>
      <trkpt lat="52.136639" lon="4.766611">
        <ele>-1.125923</ele>
        <time>2026-04-13T16:28:36.544Z</time>
      </trkpt>
      <trkpt lat="52.136838" lon="4.766707">
        <ele>-1.184049</ele>
        <time>2026-04-13T16:28:40.543Z</time>
      </trkpt>
      <trkpt lat="52.137017" lon="4.766794">
        <ele>-1.236365</ele>
        <time>2026-04-13T16:28:44.144Z</time>
      </trkpt>
      <trkpt lat="52.137027" lon="4.766800">
        <ele>-1.239350</ele>
        <time>2026-04-13T16:28:44.352Z</time>
      </trkpt>
      <trkpt lat="52.137180" lon="4.766877">
        <ele>-1.284199</ele>
        <time>2026-04-13T16:28:47.470Z</time>
      </trkpt>
      <trkpt lat="52.137249" lon="4.766911">
        <ele>-1.304388</ele>
        <time>2026-04-13T16:28:48.849Z</time>
      </trkpt>
      <trkpt lat="52.137395" lon="4.766985">
        <ele>-1.347212</ele>
        <time>2026-04-13T16:28:51.718Z</time>
      </trkpt>
      <trkpt lat="52.137492" lon="4.767033">
        <ele>-1.375604</ele>
        <time>2026-04-13T16:28:53.588Z</time>
      </trkpt>
      <trkpt lat="52.137619" lon="4.767097">
        <ele>-1.412836</ele>
        <time>2026-04-13T16:28:56.040Z</time>
      </trkpt>
      <trkpt lat="52.137697" lon="4.767136">
        <ele>-1.435687</ele>
        <time>2026-04-13T16:28:57.535Z</time>
      </trkpt>
      <trkpt lat="52.138196" lon="4.767383">
        <ele>-1.552733</ele>
        <time>2026-04-13T16:29:07.360Z</time>
      </trkpt>
      <trkpt lat="52.138605" lon="4.767595">
        <ele>-1.555841</ele>
        <time>2026-04-13T16:29:15.743Z</time>
      </trkpt>
      <trkpt lat="52.139087" lon="4.767849">
        <ele>-1.559509</ele>
        <time>2026-04-13T16:29:26.151Z</time>
      </trkpt>
      <trkpt lat="52.139183" lon="4.767905">
        <ele>-1.560248</ele>
        <time>2026-04-13T16:29:28.205Z</time>
      </trkpt>
      <trkpt lat="52.139325" lon="4.767986">
        <ele>-1.561337</ele>
        <time>2026-04-13T16:29:31.218Z</time>
      </trkpt>
      <trkpt lat="52.139504" lon="4.768092">
        <ele>-1.562716</ele>
        <time>2026-04-13T16:29:35.086Z</time>
      </trkpt>
      <trkpt lat="52.139841" lon="4.768296">
        <ele>-1.555923</ele>
        <time>2026-04-13T16:29:42.947Z</time>
      </trkpt>
      <trkpt lat="52.140168" lon="4.768555">
        <ele>-1.484076</ele>
        <time>2026-04-13T16:29:50.753Z</time>
      </trkpt>
      <trkpt lat="52.140409" lon="4.768805">
        <ele>-1.427622</ele>
        <time>2026-04-13T16:29:56.744Z</time>
      </trkpt>
      <trkpt lat="52.140748" lon="4.769156">
        <ele>-1.348254</ele>
        <time>2026-04-13T16:30:05.004Z</time>
      </trkpt>
      <trkpt lat="52.140865" lon="4.769284">
        <ele>-1.320406</ele>
        <time>2026-04-13T16:30:07.928Z</time>
      </trkpt>
      <trkpt lat="52.141382" lon="4.769843">
        <ele>-1.203943</ele>
        <time>2026-04-13T16:30:21.064Z</time>
      </trkpt>
      <trkpt lat="52.141906" lon="4.770411">
        <ele>-1.144496</ele>
        <time>2026-04-13T16:30:34.114Z</time>
      </trkpt>
      <trkpt lat="52.142087" lon="4.770607">
        <ele>-1.123969</ele>
        <time>2026-04-13T16:30:38.580Z</time>
      </trkpt>
      <trkpt lat="52.143000" lon="4.771604">
        <ele>-1.052213</ele>
        <time>2026-04-13T16:31:01.057Z</time>
      </trkpt>
      <trkpt lat="52.143098" lon="4.771706">
        <ele>-1.059267</ele>
        <time>2026-04-13T16:31:03.371Z</time>
      </trkpt>
      <trkpt lat="52.143991" lon="4.772627">
        <ele>-1.123377</ele>
        <time>2026-04-13T16:31:24.617Z</time>
      </trkpt>
      <trkpt lat="52.144553" lon="4.773200">
        <ele>-1.185282</ele>
        <time>2026-04-13T16:31:37.521Z</time>
      </trkpt>
      <trkpt lat="52.144515" lon="4.773292">
        <ele>-1.195457</ele>
        <time>2026-04-13T16:31:45.044Z</time>
      </trkpt>
      <trkpt lat="52.144553" lon="4.773200">
        <ele>-1.205633</ele>
        <time>2026-04-13T16:31:52.579Z</time>
      </trkpt>
      <trkpt lat="52.145034" lon="4.773719">
        <ele>-1.291888</ele>
        <time>2026-04-13T16:32:04.126Z</time>
      </trkpt>
      <trkpt lat="52.145210" lon="4.773910">
        <ele>-1.323505</ele>
        <time>2026-04-13T16:32:08.399Z</time>
      </trkpt>
      <trkpt lat="52.145493" lon="4.774211">
        <ele>-1.374034</ele>
        <time>2026-04-13T16:32:15.187Z</time>
      </trkpt>
      <trkpt lat="52.145901" lon="4.774621">
        <ele>-1.584026</ele>
        <time>2026-04-13T16:32:24.335Z</time>
      </trkpt>
      <trkpt lat="52.146166" lon="4.774880">
        <ele>-1.858571</ele>
        <time>2026-04-13T16:32:30.062Z</time>
      </trkpt>
      <trkpt lat="52.146296" lon="4.774848">
        <ele>-1.975383</ele>
        <time>2026-04-13T16:32:32.467Z</time>
      </trkpt>
      <trkpt lat="52.146325" lon="4.774809">
        <ele>-2.008789</ele>
        <time>2026-04-13T16:32:33.160Z</time>
      </trkpt>
      <trkpt lat="52.146628" lon="4.774234">
        <ele>-2.422010</ele>
        <time>2026-04-13T16:32:41.252Z</time>
      </trkpt>
      <trkpt lat="52.146825" lon="4.773908">
        <ele>-2.671460</ele>
        <time>2026-04-13T16:32:44.545Z</time>
      </trkpt>
      <trkpt lat="52.147079" lon="4.773652">
        <ele>-2.936806</ele>
        <time>2026-04-13T16:32:48.010Z</time>
      </trkpt>
      <trkpt lat="52.147162" lon="4.773595">
        <ele>-3.016453</ele>
        <time>2026-04-13T16:32:49.051Z</time>
      </trkpt>
      <trkpt lat="52.147644" lon="4.773278">
        <ele>-3.315126</ele>
        <time>2026-04-13T16:32:55.100Z</time>
      </trkpt>
      <trkpt lat="52.147799" lon="4.773179">
        <ele>-3.410789</ele>
        <time>2026-04-13T16:32:57.192Z</time>
      </trkpt>
      <trkpt lat="52.147863" lon="4.773137">
        <ele>-3.450434</ele>
        <time>2026-04-13T16:32:58.086Z</time>
      </trkpt>
      <trkpt lat="52.148058" lon="4.773015">
        <ele>-3.570460</ele>
        <time>2026-04-13T16:33:00.821Z</time>
      </trkpt>
      <trkpt lat="52.148075" lon="4.773004">
        <ele>-3.580970</ele>
        <time>2026-04-13T16:33:01.063Z</time>
      </trkpt>
      <trkpt lat="52.148257" lon="4.772896">
        <ele>-3.692269</ele>
        <time>2026-04-13T16:33:03.720Z</time>
      </trkpt>
      <trkpt lat="52.148394" lon="4.772859">
        <ele>-3.772066</ele>
        <time>2026-04-13T16:33:06.428Z</time>
      </trkpt>
      <trkpt lat="52.148439" lon="4.772839">
        <ele>-3.798868</ele>
        <time>2026-04-13T16:33:07.345Z</time>
      </trkpt>
      <trkpt lat="52.148483" lon="4.772903">
        <ele>-3.832758</ele>
        <time>2026-04-13T16:33:08.233Z</time>
      </trkpt>
      <trkpt lat="52.148541" lon="4.772914">
        <ele>-3.866311</ele>
        <time>2026-04-13T16:33:09.219Z</time>
      </trkpt>
      <trkpt lat="52.148555" lon="4.772964">
        <ele>-3.885689</ele>
        <time>2026-04-13T16:33:09.702Z</time>
      </trkpt>
      <trkpt lat="52.148637" lon="4.773205">
        <ele>-3.982855</ele>
        <time>2026-04-13T16:33:12.427Z</time>
      </trkpt>
      <trkpt lat="52.148842" lon="4.774047">
        <ele>-3.904091</ele>
        <time>2026-04-13T16:33:21.128Z</time>
      </trkpt>
      <trkpt lat="52.148873" lon="4.774176">
        <ele>-3.876048</ele>
        <time>2026-04-13T16:33:22.302Z</time>
      </trkpt>
      <trkpt lat="52.148947" lon="4.774468">
        <ele>-3.812099</ele>
        <time>2026-04-13T16:33:25.551Z</time>
      </trkpt>
      <trkpt lat="52.148959" lon="4.774520">
        <ele>-3.800854</ele>
        <time>2026-04-13T16:33:26.176Z</time>
      </trkpt>
      <trkpt lat="52.149054" lon="4.774921">
        <ele>-3.713845</ele>
        <time>2026-04-13T16:33:30.861Z</time>
      </trkpt>
      <trkpt lat="52.149087" lon="4.775063">
        <ele>-3.683109</ele>
        <time>2026-04-13T16:33:32.388Z</time>
      </trkpt>
      <trkpt lat="52.149134" lon="4.775262">
        <ele>-3.639948</ele>
        <time>2026-04-13T16:33:34.563Z</time>
      </trkpt>
      <trkpt lat="52.149195" lon="4.775507">
        <ele>-3.586429</ele>
        <time>2026-04-13T16:33:37.172Z</time>
      </trkpt>
      <trkpt lat="52.149239" lon="4.775684">
        <ele>-3.547772</ele>
        <time>2026-04-13T16:33:39.065Z</time>
      </trkpt>
      <trkpt lat="52.149264" lon="4.775786">
        <ele>-3.525540</ele>
        <time>2026-04-13T16:33:40.060Z</time>
      </trkpt>
      <trkpt lat="52.149303" lon="4.775941">
        <ele>-3.491630</ele>
        <time>2026-04-13T16:33:41.806Z</time>
      </trkpt>
      <trkpt lat="52.149368" lon="4.776189">
        <ele>-3.438365</ele>
        <time>2026-04-13T16:33:44.416Z</time>
      </trkpt>
      <trkpt lat="52.149450" lon="4.776394">
        <ele>-3.392290</ele>
        <time>2026-04-13T16:33:46.700Z</time>
      </trkpt>
      <trkpt lat="52.149721" lon="4.776629">
        <ele>-3.298095</ele>
        <time>2026-04-13T16:33:51.393Z</time>
      </trkpt>
      <trkpt lat="52.149775" lon="4.776670">
        <ele>-3.279815</ele>
        <time>2026-04-13T16:33:52.267Z</time>
      </trkpt>
      <trkpt lat="52.150291" lon="4.777057">
        <ele>-3.105520</ele>
        <time>2026-04-13T16:34:01.960Z</time>
      </trkpt>
      <trkpt lat="52.150394" lon="4.777173">
        <ele>-3.067102</ele>
        <time>2026-04-13T16:34:03.956Z</time>
      </trkpt>
      <trkpt lat="52.150417" lon="4.777204">
        <ele>-3.057944</ele>
        <time>2026-04-13T16:34:04.420Z</time>
      </trkpt>
      <trkpt lat="52.150494" lon="4.777314">
        <ele>-3.026524</ele>
        <time>2026-04-13T16:34:05.950Z</time>
      </trkpt>
      <trkpt lat="52.150712" lon="4.777639">
        <ele>-2.935866</ele>
        <time>2026-04-13T16:34:10.484Z</time>
      </trkpt>
      <trkpt lat="52.150777" lon="4.777737">
        <ele>-2.908695</ele>
        <time>2026-04-13T16:34:11.927Z</time>
      </trkpt>
      <trkpt lat="52.151088" lon="4.778184">
        <ele>-2.835367</ele>
        <time>2026-04-13T16:34:18.543Z</time>
      </trkpt>
      <trkpt lat="52.151146" lon="4.778271">
        <ele>-2.821815</ele>
        <time>2026-04-13T16:34:19.803Z</time>
      </trkpt>
      <trkpt lat="52.151386" lon="4.778632">
        <ele>-2.765667</ele>
        <time>2026-04-13T16:34:24.942Z</time>
      </trkpt>
      <trkpt lat="52.151718" lon="4.779146">
        <ele>-2.686941</ele>
        <time>2026-04-13T16:34:32.104Z</time>
      </trkpt>
      <trkpt lat="52.151969" lon="4.779519">
        <ele>-2.628544</ele>
        <time>2026-04-13T16:34:37.252Z</time>
      </trkpt>
      <trkpt lat="52.152140" lon="4.779860">
        <ele>-2.582008</ele>
        <time>2026-04-13T16:34:41.317Z</time>
      </trkpt>
      <trkpt lat="52.152889" lon="4.781855">
        <ele>-2.333761</ele>
        <time>2026-04-13T16:35:02.937Z</time>
      </trkpt>
      <trkpt lat="52.153266" lon="4.782862">
        <ele>-2.046044</ele>
        <time>2026-04-13T16:35:15.029Z</time>
      </trkpt>
      <trkpt lat="52.153445" lon="4.783544">
        <ele>-1.797018</ele>
        <time>2026-04-13T16:35:23.230Z</time>
      </trkpt>
      <trkpt lat="52.153487" lon="4.783749">
        <ele>-1.724461</ele>
        <time>2026-04-13T16:35:25.610Z</time>
      </trkpt>
      <trkpt lat="52.153503" lon="4.783820">
        <ele>-1.699069</ele>
        <time>2026-04-13T16:35:26.657Z</time>
      </trkpt>
      <trkpt lat="52.153287" lon="4.783953">
        <ele>-1.572728</ele>
        <time>2026-04-13T16:35:32.023Z</time>
      </trkpt>
      <trkpt lat="52.153203" lon="4.784152">
        <ele>-1.491637</ele>
        <time>2026-04-13T16:35:35.369Z</time>
      </trkpt>
      <trkpt lat="52.153206" lon="4.784287">
        <ele>-1.446286</ele>
        <time>2026-04-13T16:35:37.183Z</time>
      </trkpt>
      <trkpt lat="52.153507" lon="4.784930">
        <ele>-1.263665</ele>
        <time>2026-04-13T16:35:48.244Z</time>
      </trkpt>
      <trkpt lat="52.154466" lon="4.786838">
        <ele>-1.025640</ele>
        <time>2026-04-13T16:36:19.268Z</time>
      </trkpt>
      <trkpt lat="52.154535" lon="4.787043">
        <ele>-1.029237</ele>
        <time>2026-04-13T16:36:22.193Z</time>
      </trkpt>
      <trkpt lat="52.154790" lon="4.787747">
        <ele>-1.102699</ele>
        <time>2026-04-13T16:36:32.245Z</time>
      </trkpt>
      <trkpt lat="52.154857" lon="4.787821">
        <ele>-1.114553</ele>
        <time>2026-04-13T16:36:33.843Z</time>
      </trkpt>
      <trkpt lat="52.155047" lon="4.788415">
        <ele>-1.174747</ele>
        <time>2026-04-13T16:36:41.840Z</time>
      </trkpt>
      <trkpt lat="52.155784" lon="4.790725">
        <ele>-1.305263</ele>
        <time>2026-04-13T16:37:12.710Z</time>
      </trkpt>
      <trkpt lat="52.156479" lon="4.793111">
        <ele>-1.337117</ele>
        <time>2026-04-13T16:37:46.671Z</time>
      </trkpt>
      <trkpt lat="52.156605" lon="4.793550">
        <ele>-1.339428</ele>
        <time>2026-04-13T16:37:52.635Z</time>
      </trkpt>
      <trkpt lat="52.156936" lon="4.794703">
        <ele>-1.345500</ele>
        <time>2026-04-13T16:38:07.886Z</time>
      </trkpt>
      <trkpt lat="52.157355" lon="4.796170">
        <ele>-1.350062</ele>
        <time>2026-04-13T16:38:27.828Z</time>
      </trkpt>
      <trkpt lat="52.157830" lon="4.797868">
        <ele>-1.378900</ele>
        <time>2026-04-13T16:38:45.038Z</time>
      </trkpt>
      <trkpt lat="52.158075" lon="4.798610">
        <ele>-1.419584</ele>
        <time>2026-04-13T16:38:52.560Z</time>
      </trkpt>
      <trkpt lat="52.158197" lon="4.799199">
        <ele>-1.449599</ele>
        <time>2026-04-13T16:38:58.033Z</time>
      </trkpt>
      <trkpt lat="52.158701" lon="4.801008">
        <ele>-1.503879</ele>
        <time>2026-04-13T16:39:15.541Z</time>
      </trkpt>
      <trkpt lat="52.159239" lon="4.802843">
        <ele>-1.506884</ele>
        <time>2026-04-13T16:39:34.098Z</time>
      </trkpt>
      <trkpt lat="52.159503" lon="4.803778">
        <ele>-1.415479</ele>
        <time>2026-04-13T16:39:43.765Z</time>
      </trkpt>
      <trkpt lat="52.160011" lon="4.805587">
        <ele>-1.236731</ele>
        <time>2026-04-13T16:40:02.803Z</time>
      </trkpt>
      <trkpt lat="52.160480" lon="4.807187">
        <ele>-1.063154</ele>
        <time>2026-04-13T16:40:19.644Z</time>
      </trkpt>
      <trkpt lat="52.160533" lon="4.807373">
        <ele>-1.043079</ele>
        <time>2026-04-13T16:40:21.579Z</time>
      </trkpt>
      <trkpt lat="52.160558" lon="4.807479">
        <ele>-1.031963</ele>
        <time>2026-04-13T16:40:22.655Z</time>
      </trkpt>
      <trkpt lat="52.160532" lon="4.807614">
        <ele>-1.018112</ele>
        <time>2026-04-13T16:40:23.978Z</time>
      </trkpt>
      <trkpt lat="52.161476" lon="4.810932">
        <ele>-0.748032</ele>
        <time>2026-04-13T16:40:58.420Z</time>
      </trkpt>
      <trkpt lat="52.161774" lon="4.812112">
        <ele>-0.781179</ele>
        <time>2026-04-13T16:41:09.987Z</time>
      </trkpt>
      <trkpt lat="52.162254" lon="4.814108">
        <ele>-0.827147</ele>
        <time>2026-04-13T16:41:29.032Z</time>
      </trkpt>
      <trkpt lat="52.162664" lon="4.815808">
        <ele>-0.850683</ele>
        <time>2026-04-13T16:41:45.755Z</time>
      </trkpt>
      <trkpt lat="52.163535" lon="4.819429">
        <ele>-1.071230</ele>
        <time>2026-04-13T16:42:19.978Z</time>
      </trkpt>
      <trkpt lat="52.163547" lon="4.819475">
        <ele>-1.072708</ele>
        <time>2026-04-13T16:42:20.408Z</time>
      </trkpt>
      <trkpt lat="52.163827" lon="4.820597">
        <ele>-1.108506</ele>
        <time>2026-04-13T16:42:31.114Z</time>
      </trkpt>
      <trkpt lat="52.163946" lon="4.821500">
        <ele>-1.135802</ele>
        <time>2026-04-13T16:42:39.550Z</time>
      </trkpt>
      <trkpt lat="52.164085" lon="4.823041">
        <ele>-0.932176</ele>
        <time>2026-04-13T16:42:54.388Z</time>
      </trkpt>
      <trkpt lat="52.164109" lon="4.823316">
        <ele>-0.891015</ele>
        <time>2026-04-13T16:42:57.348Z</time>
      </trkpt>
      <trkpt lat="52.164116" lon="4.823434">
        <ele>-0.873448</ele>
        <time>2026-04-13T16:42:58.661Z</time>
      </trkpt>
      <trkpt lat="52.164174" lon="4.824277">
        <ele>-0.747749</ele>
        <time>2026-04-13T16:43:07.043Z</time>
      </trkpt>
      <trkpt lat="52.164217" lon="4.824908">
        <ele>-0.734405</ele>
        <time>2026-04-13T16:43:13.112Z</time>
      </trkpt>
      <trkpt lat="52.164226" lon="4.825076">
        <ele>-0.748103</ele>
        <time>2026-04-13T16:43:15.225Z</time>
      </trkpt>
      <trkpt lat="52.164250" lon="4.825355">
        <ele>-0.770989</ele>
        <time>2026-04-13T16:43:18.837Z</time>
      </trkpt>
      <trkpt lat="52.164269" lon="4.825594">
        <ele>-0.790565</ele>
        <time>2026-04-13T16:43:21.851Z</time>
      </trkpt>
      <trkpt lat="52.164288" lon="4.825821">
        <ele>-0.809175</ele>
        <time>2026-04-13T16:43:24.661Z</time>
      </trkpt>
      <trkpt lat="52.164305" lon="4.825998">
        <ele>-0.823728</ele>
        <time>2026-04-13T16:43:26.840Z</time>
      </trkpt>
      <trkpt lat="52.164338" lon="4.826394">
        <ele>-0.856191</ele>
        <time>2026-04-13T16:43:31.704Z</time>
      </trkpt>
      <trkpt lat="52.164344" lon="4.826456">
        <ele>-0.861289</ele>
        <time>2026-04-13T16:43:32.400Z</time>
      </trkpt>
      <trkpt lat="52.164443" lon="4.827687">
        <ele>-0.960817</ele>
        <time>2026-04-13T16:43:42.361Z</time>
      </trkpt>
      <trkpt lat="52.164494" lon="4.828288">
        <ele>-1.006507</ele>
        <time>2026-04-13T16:43:47.760Z</time>
      </trkpt>
      <trkpt lat="52.164640" lon="4.830006">
        <ele>-1.137117</ele>
        <time>2026-04-13T16:44:03.320Z</time>
      </trkpt>
      <trkpt lat="52.164654" lon="4.830161">
        <ele>-1.148915</ele>
        <time>2026-04-13T16:44:04.813Z</time>
      </trkpt>
      <trkpt lat="52.164660" lon="4.830230">
        <ele>-1.154163</ele>
        <time>2026-04-13T16:44:05.476Z</time>
      </trkpt>
      <trkpt lat="52.164810" lon="4.832104">
        <ele>-1.150693</ele>
        <time>2026-04-13T16:44:23.027Z</time>
      </trkpt>
      <trkpt lat="52.164837" lon="4.832656">
        <ele>-1.146218</ele>
        <time>2026-04-13T16:44:27.951Z</time>
      </trkpt>
      <trkpt lat="52.164973" lon="4.834018">
        <ele>-1.086316</ele>
        <time>2026-04-13T16:44:40.252Z</time>
      </trkpt>
      <trkpt lat="52.165077" lon="4.835164">
        <ele>-1.001625</ele>
        <time>2026-04-13T16:44:51.047Z</time>
      </trkpt>
      <trkpt lat="52.165226" lon="4.837550">
        <ele>-0.849989</ele>
        <time>2026-04-13T16:45:14.279Z</time>
      </trkpt>
      <trkpt lat="52.165330" lon="4.838589">
        <ele>-0.791180</ele>
        <time>2026-04-13T16:45:23.876Z</time>
      </trkpt>
      <trkpt lat="52.165398" lon="4.839382">
        <ele>-0.775641</ele>
        <time>2026-04-13T16:45:30.950Z</time>
      </trkpt>
      <trkpt lat="52.165561" lon="4.841862">
        <ele>-0.882794</ele>
        <time>2026-04-13T16:45:53.082Z</time>
      </trkpt>
      <trkpt lat="52.165667" lon="4.843196">
        <ele>-0.993155</ele>
        <time>2026-04-13T16:46:05.384Z</time>
      </trkpt>
      <trkpt lat="52.165769" lon="4.844503">
        <ele>-1.107365</ele>
        <time>2026-04-13T16:46:17.116Z</time>
      </trkpt>
      <trkpt lat="52.165807" lon="4.845055">
        <ele>-1.177084</ele>
        <time>2026-04-13T16:46:21.760Z</time>
      </trkpt>
      <trkpt lat="52.165824" lon="4.845274">
        <ele>-1.229505</ele>
        <time>2026-04-13T16:46:23.576Z</time>
      </trkpt>
      <trkpt lat="52.166013" lon="4.847611">
        <ele>-1.789280</ele>
        <time>2026-04-13T16:46:42.632Z</time>
      </trkpt>
      <trkpt lat="52.166188" lon="4.850094">
        <ele>-1.840632</ele>
        <time>2026-04-13T16:47:05.140Z</time>
      </trkpt>
      <trkpt lat="52.166299" lon="4.851255">
        <ele>-1.745740</ele>
        <time>2026-04-13T16:47:16.766Z</time>
      </trkpt>
      <trkpt lat="52.166483" lon="4.851190">
        <ele>-1.690661</ele>
        <time>2026-04-13T16:47:19.858Z</time>
      </trkpt>
      <trkpt lat="52.166602" lon="4.851712">
        <ele>-1.590732</ele>
        <time>2026-04-13T16:47:27.361Z</time>
      </trkpt>
      <trkpt lat="52.166522" lon="4.851773">
        <ele>-1.564894</ele>
        <time>2026-04-13T16:47:29.293Z</time>
      </trkpt>
      <trkpt lat="52.166481" lon="4.851779">
        <ele>-1.552851</ele>
        <time>2026-04-13T16:47:30.211Z</time>
      </trkpt>
      <trkpt lat="52.166413" lon="4.851868">
        <ele>-1.527340</ele>
        <time>2026-04-13T16:47:32.098Z</time>
      </trkpt>
      <trkpt lat="52.166346" lon="4.852071">
        <ele>-1.485974</ele>
        <time>2026-04-13T16:47:35.176Z</time>
      </trkpt>
      <trkpt lat="52.165912" lon="4.853005">
        <ele>-1.348045</ele>
        <time>2026-04-13T16:47:50.283Z</time>
      </trkpt>
      <trkpt lat="52.165541" lon="4.853636">
        <ele>-1.481737</ele>
        <time>2026-04-13T16:48:00.767Z</time>
      </trkpt>
      <trkpt lat="52.165305" lon="4.853916">
        <ele>-1.554520</ele>
        <time>2026-04-13T16:48:06.288Z</time>
      </trkpt>
      <trkpt lat="52.164919" lon="4.854067">
        <ele>-1.653506</ele>
        <time>2026-04-13T16:48:13.658Z</time>
      </trkpt>
      <trkpt lat="52.163647" lon="4.854447">
        <ele>-1.914105</ele>
        <time>2026-04-13T16:48:38.302Z</time>
      </trkpt>
      <trkpt lat="52.163406" lon="4.854520">
        <ele>-1.957450</ele>
        <time>2026-04-13T16:48:43.146Z</time>
      </trkpt>
      <trkpt lat="52.162508" lon="4.854794">
        <ele>-2.056537</ele>
        <time>2026-04-13T16:49:01.657Z</time>
      </trkpt>
      <trkpt lat="52.161819" lon="4.855004">
        <ele>-1.974996</ele>
        <time>2026-04-13T16:49:16.200Z</time>
      </trkpt>
      <trkpt lat="52.161628" lon="4.855062">
        <ele>-1.952395</ele>
        <time>2026-04-13T16:49:20.253Z</time>
      </trkpt>
      <trkpt lat="52.160764" lon="4.855321">
        <ele>-1.868316</ele>
        <time>2026-04-13T16:49:38.645Z</time>
      </trkpt>
      <trkpt lat="52.156014" lon="4.856775">
        <ele>-1.721594</ele>
        <time>2026-04-13T16:51:16.463Z</time>
      </trkpt>
      <trkpt lat="52.155903" lon="4.856808">
        <ele>-1.715381</ele>
        <time>2026-04-13T16:51:18.806Z</time>
      </trkpt>
      <trkpt lat="52.155461" lon="4.856976">
        <ele>-1.656324</ele>
        <time>2026-04-13T16:51:28.349Z</time>
      </trkpt>
      <trkpt lat="52.155328" lon="4.857056">
        <ele>-1.623355</ele>
        <time>2026-04-13T16:51:31.346Z</time>
      </trkpt>
      <trkpt lat="52.155251" lon="4.857142">
        <ele>-1.601648</ele>
        <time>2026-04-13T16:51:33.345Z</time>
      </trkpt>
      <trkpt lat="52.155225" lon="4.857243">
        <ele>-1.586020</ele>
        <time>2026-04-13T16:51:34.763Z</time>
      </trkpt>
      <trkpt lat="52.155199" lon="4.857877">
        <ele>-1.495360</ele>
        <time>2026-04-13T16:51:43.084Z</time>
      </trkpt>
      <trkpt lat="52.155029" lon="4.858748">
        <ele>-1.364949</ele>
        <time>2026-04-13T16:51:55.085Z</time>
      </trkpt>
      <trkpt lat="52.154840" lon="4.860051">
        <ele>-1.271031</ele>
        <time>2026-04-13T16:52:12.281Z</time>
      </trkpt>
      <trkpt lat="52.154647" lon="4.861851">
        <ele>-1.243129</ele>
        <time>2026-04-13T16:52:34.727Z</time>
      </trkpt>
      <trkpt lat="52.154488" lon="4.863220">
        <ele>-1.222595</ele>
        <time>2026-04-13T16:52:51.831Z</time>
      </trkpt>
      <trkpt lat="52.154261" lon="4.863812">
        <ele>-1.212427</ele>
        <time>2026-04-13T16:53:00.526Z</time>
      </trkpt>
      <trkpt lat="52.154132" lon="4.864209">
        <ele>-1.205884</ele>
        <time>2026-04-13T16:53:06.177Z</time>
      </trkpt>
      <trkpt lat="52.154103" lon="4.864354">
        <ele>-1.203662</ele>
        <time>2026-04-13T16:53:08.099Z</time>
      </trkpt>
      <trkpt lat="52.154090" lon="4.864467">
        <ele>-1.201988</ele>
        <time>2026-04-13T16:53:09.539Z</time>
      </trkpt>
      <trkpt lat="52.154083" lon="4.864539">
        <ele>-1.200926</ele>
        <time>2026-04-13T16:53:10.456Z</time>
      </trkpt>
      <trkpt lat="52.154071" lon="4.864809">
        <ele>-1.196983</ele>
        <time>2026-04-13T16:53:13.870Z</time>
      </trkpt>
      <trkpt lat="52.154124" lon="4.865235">
        <ele>-1.220870</ele>
        <time>2026-04-13T16:53:19.366Z</time>
      </trkpt>
      <trkpt lat="52.154333" lon="4.865891">
        <ele>-1.281526</ele>
        <time>2026-04-13T16:53:28.726Z</time>
      </trkpt>
      <trkpt lat="52.154676" lon="4.867032">
        <ele>-1.385789</ele>
        <time>2026-04-13T16:53:43.911Z</time>
      </trkpt>
      <trkpt lat="52.155153" lon="4.868758">
        <ele>-1.639276</ele>
        <time>2026-04-13T16:54:05.820Z</time>
      </trkpt>
      <trkpt lat="52.155329" lon="4.868997">
        <ele>-1.698458</ele>
        <time>2026-04-13T16:54:10.222Z</time>
      </trkpt>
      <trkpt lat="52.155530" lon="4.869748">
        <ele>-1.828326</ele>
        <time>2026-04-13T16:54:20.110Z</time>
      </trkpt>
      <trkpt lat="52.155621" lon="4.869974">
        <ele>-1.871172</ele>
        <time>2026-04-13T16:54:23.398Z</time>
      </trkpt>
      <trkpt lat="52.155651" lon="4.870072">
        <ele>-1.888532</ele>
        <time>2026-04-13T16:54:24.723Z</time>
      </trkpt>
      <trkpt lat="52.155696" lon="4.870437">
        <ele>-1.892016</ele>
        <time>2026-04-13T16:54:29.244Z</time>
      </trkpt>
      <trkpt lat="52.155942" lon="4.871316">
        <ele>-1.864612</ele>
        <time>2026-04-13T16:54:41.069Z</time>
      </trkpt>
      <trkpt lat="52.156176" lon="4.872151">
        <ele>-1.838573</ele>
        <time>2026-04-13T16:54:52.598Z</time>
      </trkpt>
      <trkpt lat="52.158014" lon="4.878772">
        <ele>-1.173878</ele>
        <time>2026-04-13T16:56:25.921Z</time>
      </trkpt>
      <trkpt lat="52.158080" lon="4.879132">
        <ele>-1.167878</ele>
        <time>2026-04-13T16:56:30.733Z</time>
      </trkpt>
      <trkpt lat="52.158163" lon="4.879425">
        <ele>-1.162725</ele>
        <time>2026-04-13T16:56:34.820Z</time>
      </trkpt>
      <trkpt lat="52.158332" lon="4.880025">
        <ele>-1.152182</ele>
        <time>2026-04-13T16:56:43.050Z</time>
      </trkpt>
      <trkpt lat="52.158438" lon="4.880404">
        <ele>-1.145531</ele>
        <time>2026-04-13T16:56:48.192Z</time>
      </trkpt>
      <trkpt lat="52.158572" lon="4.880792">
        <ele>-1.138421</ele>
        <time>2026-04-13T16:56:53.583Z</time>
      </trkpt>
      <trkpt lat="52.159120" lon="4.882707">
        <ele>-1.206233</ele>
        <time>2026-04-13T16:57:18.943Z</time>
      </trkpt>
      <trkpt lat="52.159439" lon="4.883826">
        <ele>-1.238386</ele>
        <time>2026-04-13T16:57:34.630Z</time>
      </trkpt>
      <trkpt lat="52.159534" lon="4.884308">
        <ele>-1.242384</ele>
        <time>2026-04-13T16:57:41.084Z</time>
      </trkpt>
      <trkpt lat="52.159642" lon="4.884810">
        <ele>-1.246585</ele>
        <time>2026-04-13T16:57:47.818Z</time>
      </trkpt>
      <trkpt lat="52.160338" lon="4.887027">
        <ele>-1.255050</ele>
        <time>2026-04-13T16:58:18.343Z</time>
      </trkpt>
      <trkpt lat="52.161478" lon="4.890300">
        <ele>-1.248136</ele>
        <time>2026-04-13T16:59:05.340Z</time>
      </trkpt>
      <trkpt lat="52.161657" lon="4.891116">
        <ele>-1.248474</ele>
        <time>2026-04-13T16:59:15.929Z</time>
      </trkpt>
      <trkpt lat="52.161752" lon="4.891768">
        <ele>-1.264634</ele>
        <time>2026-04-13T16:59:24.094Z</time>
      </trkpt>
      <trkpt lat="52.161780" lon="4.892194">
        <ele>-1.282260</ele>
        <time>2026-04-13T16:59:29.330Z</time>
      </trkpt>
      <trkpt lat="52.161746" lon="4.893634">
        <ele>-1.341544</ele>
        <time>2026-04-13T16:59:47.017Z</time>
      </trkpt>
      <trkpt lat="52.161762" lon="4.894500">
        <ele>-1.380967</ele>
        <time>2026-04-13T16:59:57.531Z</time>
      </trkpt>
      <trkpt lat="52.161831" lon="4.894491">
        <ele>-1.387809</ele>
        <time>2026-04-13T16:59:58.927Z</time>
      </trkpt>
      <trkpt lat="52.161905" lon="4.894487">
        <ele>-1.395127</ele>
        <time>2026-04-13T17:00:00.359Z</time>
      </trkpt>
      <trkpt lat="52.162016" lon="4.894492">
        <ele>-1.406102</ele>
        <time>2026-04-13T17:00:02.553Z</time>
      </trkpt>
      <trkpt lat="52.162008" lon="4.895627">
        <ele>-1.474924</ele>
        <time>2026-04-13T17:00:16.190Z</time>
      </trkpt>
      <trkpt lat="52.162298" lon="4.905600">
        <ele>-1.812097</ele>
        <time>2026-04-13T17:02:18.506Z</time>
      </trkpt>
      <trkpt lat="52.162269" lon="4.906304">
        <ele>-1.612780</ele>
        <time>2026-04-13T17:02:27.817Z</time>
      </trkpt>
      <trkpt lat="52.162063" lon="4.907665">
        <ele>-1.216410</ele>
        <time>2026-04-13T17:02:47.201Z</time>
      </trkpt>
      <trkpt lat="52.162072" lon="4.908314">
        <ele>-1.032855</ele>
        <time>2026-04-13T17:02:56.473Z</time>
      </trkpt>
      <trkpt lat="52.162166" lon="4.908774">
        <ele>-0.963864</ele>
        <time>2026-04-13T17:03:03.173Z</time>
      </trkpt>
      <trkpt lat="52.162297" lon="4.908695">
        <ele>-0.949721</ele>
        <time>2026-04-13T17:03:06.221Z</time>
      </trkpt>
      <trkpt lat="52.162330" lon="4.908807">
        <ele>-0.942004</ele>
        <time>2026-04-13T17:03:07.876Z</time>
      </trkpt>
      <trkpt lat="52.162353" lon="4.908891">
        <ele>-0.936290</ele>
        <time>2026-04-13T17:03:09.070Z</time>
      </trkpt>
      <trkpt lat="52.162368" lon="4.908950">
        <ele>-0.932323</ele>
        <time>2026-04-13T17:03:09.904Z</time>
      </trkpt>
      <trkpt lat="52.162324" lon="4.909203">
        <ele>-0.915990</ele>
        <time>2026-04-13T17:03:13.291Z</time>
      </trkpt>
      <trkpt lat="52.162307" lon="4.909251">
        <ele>-0.912547</ele>
        <time>2026-04-13T17:03:14.003Z</time>
      </trkpt>
      <trkpt lat="52.162327" lon="4.909337">
        <ele>-0.906835</ele>
        <time>2026-04-13T17:03:15.161Z</time>
      </trkpt>
      <trkpt lat="52.162355" lon="4.909481">
        <ele>-0.897452</ele>
        <time>2026-04-13T17:03:17.060Z</time>
      </trkpt>
      <trkpt lat="52.162449" lon="4.910734">
        <ele>-0.819047</ele>
        <time>2026-04-13T17:03:32.370Z</time>
      </trkpt>
      <trkpt lat="52.162498" lon="4.910988">
        <ele>-0.802509</ele>
        <time>2026-04-13T17:03:35.466Z</time>
      </trkpt>
      <trkpt lat="52.162599" lon="4.911358">
        <ele>-0.849730</ele>
        <time>2026-04-13T17:03:40.144Z</time>
      </trkpt>
      <trkpt lat="52.163293" lon="4.913005">
        <ele>-1.106844</ele>
        <time>2026-04-13T17:04:04.091Z</time>
      </trkpt>
      <trkpt lat="52.163570" lon="4.913955">
        <ele>-1.294678</ele>
        <time>2026-04-13T17:04:16.793Z</time>
      </trkpt>
      <trkpt lat="52.163593" lon="4.914035">
        <ele>-1.315373</ele>
        <time>2026-04-13T17:04:17.862Z</time>
      </trkpt>
      <trkpt lat="52.163661" lon="4.914298">
        <ele>-1.382226</ele>
        <time>2026-04-13T17:04:21.236Z</time>
      </trkpt>
      <trkpt lat="52.164085" lon="4.916023">
        <ele>-1.817515</ele>
        <time>2026-04-13T17:04:42.437Z</time>
      </trkpt>
      <trkpt lat="52.164328" lon="4.916896">
        <ele>-1.982969</ele>
        <time>2026-04-13T17:04:53.446Z</time>
      </trkpt>
      <trkpt lat="52.164439" lon="4.917319">
        <ele>-2.054756</ele>
        <time>2026-04-13T17:04:58.820Z</time>
      </trkpt>
      <trkpt lat="52.164473" lon="4.917450">
        <ele>-2.076950</ele>
        <time>2026-04-13T17:05:00.505Z</time>
      </trkpt>
      <trkpt lat="52.165091" lon="4.919847">
        <ele>-2.420677</ele>
        <time>2026-04-13T17:05:31.767Z</time>
      </trkpt>
      <trkpt lat="52.165676" lon="4.922116">
        <ele>-2.584240</ele>
        <time>2026-04-13T17:06:01.310Z</time>
      </trkpt>
      <trkpt lat="52.165953" lon="4.923192">
        <ele>-2.544848</ele>
        <time>2026-04-13T17:06:16.262Z</time>
      </trkpt>
      <trkpt lat="52.166869" lon="4.926664">
        <ele>-2.180514</ele>
        <time>2026-04-13T17:07:04.255Z</time>
      </trkpt>
      <trkpt lat="52.167163" lon="4.927808">
        <ele>-1.871518</ele>
        <time>2026-04-13T17:07:21.194Z</time>
      </trkpt>
      <trkpt lat="52.167274" lon="4.928155">
        <ele>-1.754046</ele>
        <time>2026-04-13T17:07:26.662Z</time>
      </trkpt>
      <trkpt lat="52.167362" lon="4.928297">
        <ele>-1.693453</ele>
        <time>2026-04-13T17:07:29.531Z</time>
      </trkpt>
      <trkpt lat="52.167627" lon="4.928458">
        <ele>-1.555055</ele>
        <time>2026-04-13T17:07:36.083Z</time>
      </trkpt>
      <trkpt lat="52.167949" lon="4.928663">
        <ele>-1.385885</ele>
        <time>2026-04-13T17:07:43.914Z</time>
      </trkpt>
      <trkpt lat="52.168227" lon="4.928721">
        <ele>-1.258558</ele>
        <time>2026-04-13T17:07:49.918Z</time>
      </trkpt>
      <trkpt lat="52.168267" lon="4.928751">
        <ele>-1.273499</ele>
        <time>2026-04-13T17:07:50.845Z</time>
      </trkpt>
      <trkpt lat="52.168300" lon="4.928975">
        <ele>-1.321446</ele>
        <time>2026-04-13T17:07:53.844Z</time>
      </trkpt>
      <trkpt lat="52.168253" lon="4.929156">
        <ele>-1.362355</ele>
        <time>2026-04-13T17:07:56.367Z</time>
      </trkpt>
      <trkpt lat="52.168202" lon="4.929251">
        <ele>-1.388631</ele>
        <time>2026-04-13T17:07:57.954Z</time>
      </trkpt>
      <trkpt lat="52.168150" lon="4.929358">
        <ele>-1.417045</ele>
        <time>2026-04-13T17:07:59.667Z</time>
      </trkpt>
      <trkpt lat="52.168061" lon="4.929743">
        <ele>-1.502678</ele>
        <time>2026-04-13T17:08:04.657Z</time>
      </trkpt>
      <trkpt lat="52.168050" lon="4.929814">
        <ele>-1.517919</ele>
        <time>2026-04-13T17:08:05.507Z</time>
      </trkpt>
      <trkpt lat="52.168036" lon="4.929914">
        <ele>-1.539268</ele>
        <time>2026-04-13T17:08:06.695Z</time>
      </trkpt>
      <trkpt lat="52.168015" lon="4.930073">
        <ele>-1.573119</ele>
        <time>2026-04-13T17:08:08.573Z</time>
      </trkpt>
      <trkpt lat="52.168009" lon="4.930138">
        <ele>-1.586800</ele>
        <time>2026-04-13T17:08:09.321Z</time>
      </trkpt>
      <trkpt lat="52.167895" lon="4.931222">
        <ele>-1.815708</ele>
        <time>2026-04-13T17:08:21.420Z</time>
      </trkpt>
      <trkpt lat="52.167839" lon="4.931722">
        <ele>-1.932564</ele>
        <time>2026-04-13T17:08:26.847Z</time>
      </trkpt>
      <trkpt lat="52.167833" lon="4.932204">
        <ele>-2.052523</ele>
        <time>2026-04-13T17:08:32.076Z</time>
      </trkpt>
      <trkpt lat="52.167873" lon="4.932670">
        <ele>-2.169605</ele>
        <time>2026-04-13T17:08:37.246Z</time>
      </trkpt>
      <trkpt lat="52.167938" lon="4.933033">
        <ele>-2.263699</ele>
        <time>2026-04-13T17:08:41.489Z</time>
      </trkpt>
      <trkpt lat="52.168158" lon="4.933939">
        <ele>-2.506158</ele>
        <time>2026-04-13T17:08:53.235Z</time>
      </trkpt>
      <trkpt lat="52.168445" lon="4.935124">
        <ele>-2.541132</ele>
        <time>2026-04-13T17:09:09.886Z</time>
      </trkpt>
      <trkpt lat="52.170255" lon="4.942589">
        <ele>-2.030042</ele>
        <time>2026-04-13T17:10:51.181Z</time>
      </trkpt>
      <trkpt lat="52.170824" lon="4.944936">
        <ele>-1.660896</ele>
        <time>2026-04-13T17:11:24.749Z</time>
      </trkpt>
      <trkpt lat="52.171031" lon="4.945512">
        <ele>-1.733644</ele>
        <time>2026-04-13T17:11:32.943Z</time>
      </trkpt>
      <trkpt lat="52.171377" lon="4.946214">
        <ele>-1.979116</ele>
        <time>2026-04-13T17:11:43.109Z</time>
      </trkpt>
      <trkpt lat="52.171569" lon="4.946685">
        <ele>-2.133264</ele>
        <time>2026-04-13T17:11:47.588Z</time>
      </trkpt>
      <trkpt lat="52.171626" lon="4.946916">
        <ele>-2.201131</ele>
        <time>2026-04-13T17:11:49.535Z</time>
      </trkpt>
      <trkpt lat="52.171716" lon="4.947719">
        <ele>-2.422781</ele>
        <time>2026-04-13T17:11:55.878Z</time>
      </trkpt>
      <trkpt lat="52.171791" lon="4.948015">
        <ele>-2.461570</ele>
        <time>2026-04-13T17:11:58.376Z</time>
      </trkpt>
      <trkpt lat="52.173948" lon="4.953770">
        <ele>-2.926286</ele>
        <time>2026-04-13T17:12:59.002Z</time>
      </trkpt>
      <trkpt lat="52.174909" lon="4.956334">
        <ele>-3.121899</ele>
        <time>2026-04-13T17:13:25.564Z</time>
      </trkpt>
      <trkpt lat="52.174965" lon="4.956487">
        <ele>-3.136870</ele>
        <time>2026-04-13T17:13:27.060Z</time>
      </trkpt>
      <trkpt lat="52.175162" lon="4.957066">
        <ele>-3.192506</ele>
        <time>2026-04-13T17:13:32.674Z</time>
      </trkpt>
      <trkpt lat="52.175230" lon="4.957289">
        <ele>-3.213431</ele>
        <time>2026-04-13T17:13:34.793Z</time>
      </trkpt>
      <trkpt lat="52.175262" lon="4.957413">
        <ele>-3.224735</ele>
        <time>2026-04-13T17:13:35.926Z</time>
      </trkpt>
      <trkpt lat="52.175342" lon="4.957734">
        <ele>-3.253848</ele>
        <time>2026-04-13T17:13:38.974Z</time>
      </trkpt>
      <trkpt lat="52.175496" lon="4.959015">
        <ele>-3.204321</ele>
        <time>2026-04-13T17:13:50.923Z</time>
      </trkpt>
      <trkpt lat="52.175528" lon="4.959654">
        <ele>-3.174506</ele>
        <time>2026-04-13T17:13:57.047Z</time>
      </trkpt>
      <trkpt lat="52.175477" lon="4.965182">
        <ele>-2.732655</ele>
        <time>2026-04-13T17:14:49.138Z</time>
      </trkpt>
      <trkpt lat="52.175472" lon="4.965700">
        <ele>-2.672272</ele>
        <time>2026-04-13T17:14:54.017Z</time>
      </trkpt>
      <trkpt lat="52.175471" lon="4.965914">
        <ele>-2.647328</ele>
        <time>2026-04-13T17:14:56.048Z</time>
      </trkpt>
      <trkpt lat="52.175466" lon="4.966486">
        <ele>-2.580652</ele>
        <time>2026-04-13T17:15:01.498Z</time>
      </trkpt>
      <trkpt lat="52.175154" lon="4.975524">
        <ele>-0.885161</ele>
        <time>2026-04-13T17:16:30.684Z</time>
      </trkpt>
      <trkpt lat="52.175183" lon="4.975933">
        <ele>-0.831535</ele>
        <time>2026-04-13T17:16:34.884Z</time>
      </trkpt>
      <trkpt lat="52.175242" lon="4.976198">
        <ele>-0.794816</ele>
        <time>2026-04-13T17:16:37.745Z</time>
      </trkpt>
      <trkpt lat="52.175375" lon="4.976529">
        <ele>-0.743274</ele>
        <time>2026-04-13T17:16:41.742Z</time>
      </trkpt>
      <trkpt lat="52.173180" lon="4.979039">
        <ele>-0.516455</ele>
        <time>2026-04-13T17:17:22.411Z</time>
      </trkpt>
      <trkpt lat="52.172652" lon="4.979564">
        <ele>-0.619921</ele>
        <time>2026-04-13T17:17:30.926Z</time>
      </trkpt>
      <trkpt lat="52.171996" lon="4.980161">
        <ele>-0.789504</ele>
        <time>2026-04-13T17:17:41.126Z</time>
      </trkpt>
      <trkpt lat="52.171483" lon="4.980663">
        <ele>-0.920653</ele>
        <time>2026-04-13T17:17:49.536Z</time>
      </trkpt>
      <trkpt lat="52.170979" lon="4.981131">
        <ele>-0.859884</ele>
        <time>2026-04-13T17:17:58.356Z</time>
      </trkpt>
      <trkpt lat="52.170601" lon="4.981507">
        <ele>-0.813490</ele>
        <time>2026-04-13T17:18:05.130Z</time>
      </trkpt>
      <trkpt lat="52.170476" lon="4.981682">
        <ele>-0.796228</ele>
        <time>2026-04-13T17:18:07.737Z</time>
      </trkpt>
      <trkpt lat="52.170262" lon="4.981984">
        <ele>-0.766574</ele>
        <time>2026-04-13T17:18:12.121Z</time>
      </trkpt>
      <trkpt lat="52.170111" lon="4.982200">
        <ele>-0.745527</ele>
        <time>2026-04-13T17:18:15.218Z</time>
      </trkpt>
      <trkpt lat="52.170018" lon="4.982344">
        <ele>-0.732417</ele>
        <time>2026-04-13T17:18:17.176Z</time>
      </trkpt>
      <trkpt lat="52.169789" lon="4.982692">
        <ele>-0.707594</ele>
        <time>2026-04-13T17:18:22.202Z</time>
      </trkpt>
      <trkpt lat="52.169725" lon="4.982865">
        <ele>-0.697768</ele>
        <time>2026-04-13T17:18:24.322Z</time>
      </trkpt>
      <trkpt lat="52.169678" lon="4.983068">
        <ele>-0.687216</ele>
        <time>2026-04-13T17:18:26.419Z</time>
      </trkpt>
      <trkpt lat="52.169658" lon="4.983305">
        <ele>-0.675581</ele>
        <time>2026-04-13T17:18:28.638Z</time>
      </trkpt>
      <trkpt lat="52.169572" lon="4.983612">
        <ele>-0.659167</ele>
        <time>2026-04-13T17:18:31.674Z</time>
      </trkpt>
      <trkpt lat="52.169409" lon="4.983810">
        <ele>-0.643049</ele>
        <time>2026-04-13T17:18:34.722Z</time>
      </trkpt>
      <trkpt lat="52.169267" lon="4.983944">
        <ele>-0.630039</ele>
        <time>2026-04-13T17:18:37.967Z</time>
      </trkpt>
      <trkpt lat="52.169247" lon="4.983964">
        <ele>-0.628178</ele>
        <time>2026-04-13T17:18:38.295Z</time>
      </trkpt>
      <trkpt lat="52.169081" lon="4.984124">
        <ele>-0.612887</ele>
        <time>2026-04-13T17:18:40.961Z</time>
      </trkpt>
      <trkpt lat="52.169049" lon="4.984238">
        <ele>-0.606790</ele>
        <time>2026-04-13T17:18:41.985Z</time>
      </trkpt>
      <trkpt lat="52.168911" lon="4.984477">
        <ele>-0.590826</ele>
        <time>2026-04-13T17:18:44.917Z</time>
      </trkpt>
      <trkpt lat="52.168894" lon="4.984801">
        <ele>-0.540555</ele>
        <time>2026-04-13T17:18:47.937Z</time>
      </trkpt>
      <trkpt lat="52.168848" lon="4.984865">
        <ele>-0.525305</ele>
        <time>2026-04-13T17:18:48.798Z</time>
      </trkpt>
      <trkpt lat="52.168801" lon="4.984942">
        <ele>-0.508502</ele>
        <time>2026-04-13T17:18:49.894Z</time>
      </trkpt>
      <trkpt lat="52.168647" lon="4.985365">
        <ele>-0.432416</ele>
        <time>2026-04-13T17:18:54.824Z</time>
      </trkpt>
      <trkpt lat="52.168608" lon="4.985494">
        <ele>-0.410170</ele>
        <time>2026-04-13T17:18:56.258Z</time>
      </trkpt>
      <trkpt lat="52.168948" lon="4.985755">
        <ele>-0.315398</ele>
        <time>2026-04-13T17:19:02.602Z</time>
      </trkpt>
      <trkpt lat="52.169436" lon="4.986184">
        <ele>-0.175581</ele>
        <time>2026-04-13T17:19:11.474Z</time>
      </trkpt>
      <trkpt lat="52.169549" lon="4.986389">
        <ele>-0.135549</ele>
        <time>2026-04-13T17:19:14.245Z</time>
      </trkpt>
      <trkpt lat="52.169721" lon="4.988084">
        <ele>-0.031672</ele>
        <time>2026-04-13T17:19:30.332Z</time>
      </trkpt>
      <trkpt lat="52.169790" lon="4.988311">
        <ele>-0.016354</ele>
        <time>2026-04-13T17:19:32.468Z</time>
      </trkpt>
      <trkpt lat="52.169897" lon="4.988539">
        <ele>0.001004</ele>
        <time>2026-04-13T17:19:35.018Z</time>
      </trkpt>
      <trkpt lat="52.170138" lon="4.989041">
        <ele>0.039548</ele>
        <time>2026-04-13T17:19:41.169Z</time>
      </trkpt>
      <trkpt lat="52.170230" lon="4.989318">
        <ele>0.077263</ele>
        <time>2026-04-13T17:19:43.980Z</time>
      </trkpt>
      <trkpt lat="52.170261" lon="4.989402">
        <ele>0.089171</ele>
        <time>2026-04-13T17:19:44.838Z</time>
      </trkpt>
      <trkpt lat="52.170356" lon="4.989687">
        <ele>0.128574</ele>
        <time>2026-04-13T17:19:47.694Z</time>
      </trkpt>
      <trkpt lat="52.170523" lon="4.990192">
        <ele>0.198268</ele>
        <time>2026-04-13T17:19:53.348Z</time>
      </trkpt>
      <trkpt lat="52.170538" lon="4.990399">
        <ele>0.223588</ele>
        <time>2026-04-13T17:19:55.478Z</time>
      </trkpt>
      <trkpt lat="52.170538" lon="4.990587">
        <ele>0.246425</ele>
        <time>2026-04-13T17:19:57.425Z</time>
      </trkpt>
      <trkpt lat="52.170538" lon="4.990592">
        <ele>0.247032</ele>
        <time>2026-04-13T17:19:57.467Z</time>
      </trkpt>
      <trkpt lat="52.170538" lon="4.990633">
        <ele>0.252013</ele>
        <time>2026-04-13T17:19:57.865Z</time>
      </trkpt>
      <trkpt lat="52.170538" lon="4.990678">
        <ele>0.257479</ele>
        <time>2026-04-13T17:19:58.337Z</time>
      </trkpt>
      <trkpt lat="52.170538" lon="4.990903">
        <ele>0.284811</ele>
        <time>2026-04-13T17:20:00.666Z</time>
      </trkpt>
      <trkpt lat="52.170538" lon="4.990984">
        <ele>0.294650</ele>
        <time>2026-04-13T17:20:01.512Z</time>
      </trkpt>
      <trkpt lat="52.170539" lon="4.991126">
        <ele>0.311901</ele>
        <time>2026-04-13T17:20:02.974Z</time>
      </trkpt>
      <trkpt lat="52.170539" lon="4.991766">
        <ele>0.389644</ele>
        <time>2026-04-13T17:20:09.456Z</time>
      </trkpt>
      <trkpt lat="52.170624" lon="4.992144">
        <ele>0.362096</ele>
        <time>2026-04-13T17:20:12.818Z</time>
      </trkpt>
      <trkpt lat="52.170656" lon="4.992359">
        <ele>0.340296</ele>
        <time>2026-04-13T17:20:14.540Z</time>
      </trkpt>
      <trkpt lat="52.170682" lon="4.992931">
        <ele>0.283779</ele>
        <time>2026-04-13T17:20:19.320Z</time>
      </trkpt>
      <trkpt lat="52.170733" lon="4.993348">
        <ele>0.241881</ele>
        <time>2026-04-13T17:20:23.273Z</time>
      </trkpt>
      <trkpt lat="52.170839" lon="4.993499">
        <ele>0.219266</ele>
        <time>2026-04-13T17:20:25.350Z</time>
      </trkpt>
      <trkpt lat="52.170871" lon="4.993626">
        <ele>0.205738</ele>
        <time>2026-04-13T17:20:26.537Z</time>
      </trkpt>
      <trkpt lat="52.170874" lon="4.993769">
        <ele>0.191639</ele>
        <time>2026-04-13T17:20:27.807Z</time>
      </trkpt>
      <trkpt lat="52.170738" lon="4.993959">
        <ele>0.162865</ele>
        <time>2026-04-13T17:20:30.285Z</time>
      </trkpt>
      <trkpt lat="52.170592" lon="4.994023">
        <ele>0.138576</ele>
        <time>2026-04-13T17:20:32.338Z</time>
      </trkpt>
      <trkpt lat="52.170044" lon="4.994143">
        <ele>0.230534</ele>
        <time>2026-04-13T17:20:39.737Z</time>
      </trkpt>
      <trkpt lat="52.169139" lon="4.994222">
        <ele>0.541771</ele>
        <time>2026-04-13T17:20:55.320Z</time>
      </trkpt>
      <trkpt lat="52.168996" lon="4.994087">
        <ele>0.598518</ele>
        <time>2026-04-13T17:20:59.122Z</time>
      </trkpt>
      <trkpt lat="52.168905" lon="4.994019">
        <ele>0.632894</ele>
        <time>2026-04-13T17:21:01.406Z</time>
      </trkpt>
      <trkpt lat="52.167974" lon="4.993787">
        <ele>0.937446</ele>
        <time>2026-04-13T17:21:22.504Z</time>
      </trkpt>
      <trkpt lat="52.167849" lon="4.993794">
        <ele>0.976892</ele>
        <time>2026-04-13T17:21:25.245Z</time>
      </trkpt>
      <trkpt lat="52.167738" lon="4.993865">
        <ele>1.014496</ele>
        <time>2026-04-13T17:21:27.742Z</time>
      </trkpt>
      <trkpt lat="52.167656" lon="4.993980">
        <ele>1.048609</ele>
        <time>2026-04-13T17:21:29.974Z</time>
      </trkpt>
      <trkpt lat="52.167605" lon="4.994134">
        <ele>1.082463</ele>
        <time>2026-04-13T17:21:32.210Z</time>
      </trkpt>
      <trkpt lat="52.167601" lon="4.994346">
        <ele>1.123492</ele>
        <time>2026-04-13T17:21:34.901Z</time>
      </trkpt>
      <trkpt lat="52.167726" lon="4.996378">
        <ele>1.447893</ele>
        <time>2026-04-13T17:21:54.077Z</time>
      </trkpt>
      <trkpt lat="52.167806" lon="4.997609">
        <ele>1.612581</ele>
        <time>2026-04-13T17:22:06.229Z</time>
      </trkpt>
      <trkpt lat="52.167864" lon="4.998034">
        <ele>1.670504</ele>
        <time>2026-04-13T17:22:10.554Z</time>
      </trkpt>
      <trkpt lat="52.167952" lon="4.998400">
        <ele>1.672527</ele>
        <time>2026-04-13T17:22:14.379Z</time>
      </trkpt>
      <trkpt lat="52.168021" lon="4.998529">
        <ele>1.666937</ele>
        <time>2026-04-13T17:22:16.044Z</time>
      </trkpt>
      <trkpt lat="52.168128" lon="4.999099">
        <ele>1.647468</ele>
        <time>2026-04-13T17:22:21.603Z</time>
      </trkpt>
      <trkpt lat="52.168194" lon="4.999355">
        <ele>1.638398</ele>
        <time>2026-04-13T17:22:24.110Z</time>
      </trkpt>
      <trkpt lat="52.168277" lon="4.999375">
        <ele>1.633931</ele>
        <time>2026-04-13T17:22:25.331Z</time>
      </trkpt>
      <trkpt lat="52.168807" lon="4.999026">
        <ele>1.603494</ele>
        <time>2026-04-13T17:22:33.549Z</time>
      </trkpt>
      <trkpt lat="52.168861" lon="4.998899">
        <ele>1.598447</ele>
        <time>2026-04-13T17:22:34.825Z</time>
      </trkpt>
      <trkpt lat="52.168930" lon="4.998943">
        <ele>1.594501</ele>
        <time>2026-04-13T17:22:35.808Z</time>
      </trkpt>
      <trkpt lat="52.169030" lon="4.998970">
        <ele>1.589104</ele>
        <time>2026-04-13T17:22:37.704Z</time>
      </trkpt>
      <trkpt lat="52.169144" lon="4.998902">
        <ele>1.565533</ele>
        <time>2026-04-13T17:22:39.949Z</time>
      </trkpt>
      <trkpt lat="52.169455" lon="4.998679">
        <ele>1.470462</ele>
        <time>2026-04-13T17:22:46.298Z</time>
      </trkpt>
      <trkpt lat="52.169486" lon="4.998799">
        <ele>1.448115</ele>
        <time>2026-04-13T17:22:47.781Z</time>
      </trkpt>
      <trkpt lat="52.169531" lon="4.999179">
        <ele>1.381692</ele>
        <time>2026-04-13T17:22:52.223Z</time>
      </trkpt>
      <trkpt lat="52.169505" lon="4.999460">
        <ele>1.332919</ele>
        <time>2026-04-13T17:22:55.484Z</time>
      </trkpt>
      <trkpt lat="52.169327" lon="4.999741">
        <ele>1.263588</ele>
        <time>2026-04-13T17:23:00.178Z</time>
      </trkpt>
      <trkpt lat="52.169388" lon="5.000021">
        <ele>1.212591</ele>
        <time>2026-04-13T17:23:03.661Z</time>
      </trkpt>
      <trkpt lat="52.169522" lon="5.000680">
        <ele>1.093435</ele>
        <time>2026-04-13T17:23:11.990Z</time>
      </trkpt>
      <trkpt lat="52.169725" lon="5.001721">
        <ele>1.235209</ele>
        <time>2026-04-13T17:23:25.976Z</time>
      </trkpt>
      <trkpt lat="52.169908" lon="5.002657">
        <ele>1.379551</ele>
        <time>2026-04-13T17:23:38.966Z</time>
      </trkpt>
      <trkpt lat="52.170027" lon="5.003228">
        <ele>1.468156</ele>
        <time>2026-04-13T17:23:46.505Z</time>
      </trkpt>
      <trkpt lat="52.170049" lon="5.003306">
        <ele>1.480770</ele>
        <time>2026-04-13T17:23:47.692Z</time>
      </trkpt>
      <trkpt lat="52.170120" lon="5.003230">
        <ele>1.501117</ele>
        <time>2026-04-13T17:23:49.180Z</time>
      </trkpt>
      <trkpt lat="52.170330" lon="5.003013">
        <ele>1.597399</ele>
        <time>2026-04-13T17:23:53.544Z</time>
      </trkpt>
      <trkpt lat="52.170611" lon="5.002788">
        <ele>1.731686</ele>
        <time>2026-04-13T17:23:58.962Z</time>
      </trkpt>
      <trkpt lat="52.170639" lon="5.002897">
        <ele>1.762776</ele>
        <time>2026-04-13T17:24:00.564Z</time>
      </trkpt>
      <trkpt lat="52.170662" lon="5.002992">
        <ele>1.789645</ele>
        <time>2026-04-13T17:24:01.976Z</time>
      </trkpt>
      <trkpt lat="52.170686" lon="5.003125">
        <ele>1.826119</ele>
        <time>2026-04-13T17:24:03.885Z</time>
      </trkpt>
      <trkpt lat="52.170740" lon="5.003443">
        <ele>1.912926</ele>
        <time>2026-04-13T17:24:08.461Z</time>
      </trkpt>
      <trkpt lat="52.170769" lon="5.003592">
        <ele>1.954052</ele>
        <time>2026-04-13T17:24:10.644Z</time>
      </trkpt>
      <trkpt lat="52.170841" lon="5.003746">
        <ele>2.004996</ele>
        <time>2026-04-13T17:24:13.318Z</time>
      </trkpt>
      <trkpt lat="52.171024" lon="5.004057">
        <ele>2.118382</ele>
        <time>2026-04-13T17:24:19.159Z</time>
      </trkpt>
      <trkpt lat="52.171099" lon="5.004079">
        <ele>2.151070</ele>
        <time>2026-04-13T17:24:20.821Z</time>
      </trkpt>
      <trkpt lat="52.171301" lon="5.004009">
        <ele>2.239654</ele>
        <time>2026-04-13T17:24:25.112Z</time>
      </trkpt>
      <trkpt lat="52.171695" lon="5.003840">
        <ele>2.223758</ele>
        <time>2026-04-13T17:24:33.995Z</time>
      </trkpt>
      <trkpt lat="52.171708" lon="5.003832">
        <ele>2.220886</ele>
        <time>2026-04-13T17:24:34.263Z</time>
      </trkpt>
      <trkpt lat="52.171761" lon="5.003812">
        <ele>2.209638</ele>
        <time>2026-04-13T17:24:35.327Z</time>
      </trkpt>
      <trkpt lat="52.171971" lon="5.003684">
        <ele>2.163288</ele>
        <time>2026-04-13T17:24:39.654Z</time>
      </trkpt>
      <trkpt lat="52.172056" lon="5.004058">
        <ele>2.112715</ele>
        <time>2026-04-13T17:24:44.335Z</time>
      </trkpt>
      <trkpt lat="52.172283" lon="5.004811">
        <ele>2.006327</ele>
        <time>2026-04-13T17:24:53.982Z</time>
      </trkpt>
      <trkpt lat="52.172335" lon="5.004940">
        <ele>1.986753</ele>
        <time>2026-04-13T17:24:55.201Z</time>
      </trkpt>
      <trkpt lat="52.172366" lon="5.005050">
        <ele>1.971404</ele>
        <time>2026-04-13T17:24:56.553Z</time>
      </trkpt>
      <trkpt lat="52.172240" lon="5.005224">
        <ele>1.937267</ele>
        <time>2026-04-13T17:24:59.527Z</time>
      </trkpt>
      <trkpt lat="52.171129" lon="5.006909">
        <ele>1.502170</ele>
        <time>2026-04-13T17:25:20.601Z</time>
      </trkpt>
      <trkpt lat="52.170547" lon="5.007723">
        <ele>1.235147</ele>
        <time>2026-04-13T17:25:31.460Z</time>
      </trkpt>
      <trkpt lat="52.169961" lon="5.008483">
        <ele>0.930757</ele>
        <time>2026-04-13T17:25:41.380Z</time>
      </trkpt>
      <trkpt lat="52.169508" lon="5.008956">
        <ele>0.712079</ele>
        <time>2026-04-13T17:25:48.603Z</time>
      </trkpt>
      <trkpt lat="52.169080" lon="5.009350">
        <ele>0.601924</ele>
        <time>2026-04-13T17:25:55.170Z</time>
      </trkpt>
      <trkpt lat="52.168791" lon="5.009518">
        <ele>0.555336</ele>
        <time>2026-04-13T17:25:59.248Z</time>
      </trkpt>
      <trkpt lat="52.168112" lon="5.009873">
        <ele>0.447066</ele>
        <time>2026-04-13T17:26:09.640Z</time>
      </trkpt>
      <trkpt lat="52.167716" lon="5.009957">
        <ele>0.386431</ele>
        <time>2026-04-13T17:26:15.605Z</time>
      </trkpt>
      <trkpt lat="52.166850" lon="5.010060">
        <ele>0.493411</ele>
        <time>2026-04-13T17:26:29.488Z</time>
      </trkpt>
      <trkpt lat="52.165993" lon="5.010245">
        <ele>0.607672</ele>
        <time>2026-04-13T17:26:42.824Z</time>
      </trkpt>
      <trkpt lat="52.165072" lon="5.010443">
        <ele>0.520101</ele>
        <time>2026-04-13T17:26:56.016Z</time>
      </trkpt>
      <trkpt lat="52.164781" lon="5.010498">
        <ele>0.485082</ele>
        <time>2026-04-13T17:26:59.996Z</time>
      </trkpt>
      <trkpt lat="52.164598" lon="5.010535">
        <ele>0.463038</ele>
        <time>2026-04-13T17:27:02.551Z</time>
      </trkpt>
      <trkpt lat="52.164160" lon="5.010640">
        <ele>0.410117</ele>
        <time>2026-04-13T17:27:09.020Z</time>
      </trkpt>
      <trkpt lat="52.163140" lon="5.011021">
        <ele>0.238521</ele>
        <time>2026-04-13T17:27:24.585Z</time>
      </trkpt>
      <trkpt lat="52.162697" lon="5.011241">
        <ele>0.161701</ele>
        <time>2026-04-13T17:27:30.927Z</time>
      </trkpt>
      <trkpt lat="52.162210" lon="5.011540">
        <ele>0.094470</ele>
        <time>2026-04-13T17:27:37.958Z</time>
      </trkpt>
      <trkpt lat="52.161656" lon="5.011934">
        <ele>0.055461</ele>
        <time>2026-04-13T17:27:46.423Z</time>
      </trkpt>
      <trkpt lat="52.161428" lon="5.012146">
        <ele>0.038520</ele>
        <time>2026-04-13T17:27:50.288Z</time>
      </trkpt>
      <trkpt lat="52.160944" lon="5.012742">
        <ele>-0.000628</ele>
        <time>2026-04-13T17:27:59.651Z</time>
      </trkpt>
      <trkpt lat="52.160775" lon="5.013074">
        <ele>0.020670</ele>
        <time>2026-04-13T17:28:03.793Z</time>
      </trkpt>
      <trkpt lat="52.160595" lon="5.013649">
        <ele>0.113955</ele>
        <time>2026-04-13T17:28:10.009Z</time>
      </trkpt>
      <trkpt lat="52.160193" lon="5.015018">
        <ele>0.333282</ele>
        <time>2026-04-13T17:28:24.751Z</time>
      </trkpt>
      <trkpt lat="52.160070" lon="5.015468">
        <ele>0.404474</ele>
        <time>2026-04-13T17:28:29.506Z</time>
      </trkpt>
      <trkpt lat="52.159764" lon="5.016426">
        <ele>0.455805</ele>
        <time>2026-04-13T17:28:40.069Z</time>
      </trkpt>
      <trkpt lat="52.159490" lon="5.017132">
        <ele>0.490101</ele>
        <time>2026-04-13T17:28:48.064Z</time>
      </trkpt>
      <trkpt lat="52.159024" lon="5.018097">
        <ele>0.510193</ele>
        <time>2026-04-13T17:28:58.735Z</time>
      </trkpt>
      <trkpt lat="52.158877" lon="5.018385">
        <ele>0.446719</ele>
        <time>2026-04-13T17:29:01.914Z</time>
      </trkpt>
      <trkpt lat="52.158925" lon="5.018893">
        <ele>0.359636</ele>
        <time>2026-04-13T17:29:06.248Z</time>
      </trkpt>
      <trkpt lat="52.159042" lon="5.019322">
        <ele>0.280094</ele>
        <time>2026-04-13T17:29:11.738Z</time>
      </trkpt>
      <trkpt lat="52.159764" lon="5.020923">
        <ele>-0.046405</ele>
        <time>2026-04-13T17:29:35.177Z</time>
      </trkpt>
      <trkpt lat="52.160030" lon="5.021357">
        <ele>-0.139169</ele>
        <time>2026-04-13T17:29:42.510Z</time>
      </trkpt>
      <trkpt lat="52.161384" lon="5.023050">
        <ele>-0.415335</ele>
        <time>2026-04-13T17:30:15.367Z</time>
      </trkpt>
      <trkpt lat="52.161668" lon="5.023541">
        <ele>-0.421861</ele>
        <time>2026-04-13T17:30:23.881Z</time>
      </trkpt>
      <trkpt lat="52.161765" lon="5.023791">
        <ele>-0.424722</ele>
        <time>2026-04-13T17:30:27.767Z</time>
      </trkpt>
      <trkpt lat="52.161895" lon="5.024306">
        <ele>-0.430107</ele>
        <time>2026-04-13T17:30:34.984Z</time>
      </trkpt>
      <trkpt lat="52.161934" lon="5.024825">
        <ele>-0.444355</ele>
        <time>2026-04-13T17:30:41.629Z</time>
      </trkpt>
      <trkpt lat="52.161922" lon="5.025083">
        <ele>-0.463979</ele>
        <time>2026-04-13T17:30:44.876Z</time>
      </trkpt>
      <trkpt lat="52.161853" lon="5.025462">
        <ele>-0.493963</ele>
        <time>2026-04-13T17:30:49.709Z</time>
      </trkpt>
      <trkpt lat="52.161392" lon="5.026783">
        <ele>-0.609229</ele>
        <time>2026-04-13T17:31:08.035Z</time>
      </trkpt>
      <trkpt lat="52.161354" lon="5.026948">
        <ele>-0.622596</ele>
        <time>2026-04-13T17:31:10.019Z</time>
      </trkpt>
      <trkpt lat="52.161336" lon="5.027059">
        <ele>-0.631304</ele>
        <time>2026-04-13T17:31:11.357Z</time>
      </trkpt>
      <trkpt lat="52.161326" lon="5.027226">
        <ele>-0.644030</ele>
        <time>2026-04-13T17:31:13.285Z</time>
      </trkpt>
      <trkpt lat="52.161347" lon="5.027564">
        <ele>-0.669089</ele>
        <time>2026-04-13T17:31:17.220Z</time>
      </trkpt>
      <trkpt lat="52.161416" lon="5.027903">
        <ele>-0.694769</ele>
        <time>2026-04-13T17:31:21.440Z</time>
      </trkpt>
      <trkpt lat="52.161635" lon="5.028954">
        <ele>-0.774574</ele>
        <time>2026-04-13T17:31:31.644Z</time>
      </trkpt>
      <trkpt lat="52.161603" lon="5.029147">
        <ele>-0.788948</ele>
        <time>2026-04-13T17:31:33.426Z</time>
      </trkpt>
      <trkpt lat="52.161363" lon="5.029648">
        <ele>-0.834651</ele>
        <time>2026-04-13T17:31:39.469Z</time>
      </trkpt>
      <trkpt lat="52.161328" lon="5.029843">
        <ele>-0.849259</ele>
        <time>2026-04-13T17:31:41.345Z</time>
      </trkpt>
      <trkpt lat="52.161323" lon="5.030027">
        <ele>-0.862501</ele>
        <time>2026-04-13T17:31:42.943Z</time>
      </trkpt>
      <trkpt lat="52.161425" lon="5.030577">
        <ele>-1.128358</ele>
        <time>2026-04-13T17:31:47.767Z</time>
      </trkpt>
      <trkpt lat="52.161538" lon="5.030879">
        <ele>-1.308961</ele>
        <time>2026-04-13T17:31:50.441Z</time>
      </trkpt>
      <trkpt lat="52.161717" lon="5.031102">
        <ele>-1.496459</ele>
        <time>2026-04-13T17:31:53.184Z</time>
      </trkpt>
      <trkpt lat="52.161746" lon="5.031122">
        <ele>-1.522666</ele>
        <time>2026-04-13T17:31:53.577Z</time>
      </trkpt>
      <trkpt lat="52.161804" lon="5.031154">
        <ele>-1.573627</ele>
        <time>2026-04-13T17:31:54.304Z</time>
      </trkpt>
      <trkpt lat="52.161993" lon="5.031265">
        <ele>-1.740822</ele>
        <time>2026-04-13T17:31:56.743Z</time>
      </trkpt>
      <trkpt lat="52.162197" lon="5.031414">
        <ele>-1.926867</ele>
        <time>2026-04-13T17:31:59.449Z</time>
      </trkpt>
      <trkpt lat="52.162283" lon="5.031541">
        <ele>-2.023442</ele>
        <time>2026-04-13T17:32:00.857Z</time>
      </trkpt>
      <trkpt lat="52.162318" lon="5.031629">
        <ele>-2.076986</ele>
        <time>2026-04-13T17:32:01.617Z</time>
      </trkpt>
      <trkpt lat="52.162357" lon="5.031774">
        <ele>-2.157817</ele>
        <time>2026-04-13T17:32:02.807Z</time>
      </trkpt>
      <trkpt lat="52.162320" lon="5.031878">
        <ele>-2.219196</ele>
        <time>2026-04-13T17:32:03.674Z</time>
      </trkpt>
      <trkpt lat="52.162426" lon="5.032407">
        <ele>-2.382597</ele>
        <time>2026-04-13T17:32:07.775Z</time>
      </trkpt>
      <trkpt lat="52.162659" lon="5.033321">
        <ele>-2.450189</ele>
        <time>2026-04-13T17:32:15.483Z</time>
      </trkpt>
      <trkpt lat="52.164426" lon="5.041028">
        <ele>-2.544287</ele>
        <time>2026-04-13T17:33:32.534Z</time>
      </trkpt>
      <trkpt lat="52.164506" lon="5.041265">
        <ele>-2.538935</ele>
        <time>2026-04-13T17:33:35.014Z</time>
      </trkpt>
      <trkpt lat="52.164601" lon="5.041670">
        <ele>-2.530356</ele>
        <time>2026-04-13T17:33:38.947Z</time>
      </trkpt>
      <trkpt lat="52.164649" lon="5.041971">
        <ele>-2.524202</ele>
        <time>2026-04-13T17:33:41.732Z</time>
      </trkpt>
      <trkpt lat="52.165314" lon="5.044839">
        <ele>-2.355863</ele>
        <time>2026-04-13T17:34:09.587Z</time>
      </trkpt>
      <trkpt lat="52.165355" lon="5.044945">
        <ele>-2.346061</ele>
        <time>2026-04-13T17:34:10.896Z</time>
      </trkpt>
      <trkpt lat="52.165432" lon="5.045026">
        <ele>-2.334376</ele>
        <time>2026-04-13T17:34:12.469Z</time>
      </trkpt>
      <trkpt lat="52.165518" lon="5.045394">
        <ele>-2.303575</ele>
        <time>2026-04-13T17:34:16.531Z</time>
      </trkpt>
      <trkpt lat="52.165763" lon="5.046443">
        <ele>-2.375397</ele>
        <time>2026-04-13T17:34:27.481Z</time>
      </trkpt>
      <trkpt lat="52.165824" lon="5.046711">
        <ele>-2.418081</ele>
        <time>2026-04-13T17:34:30.122Z</time>
      </trkpt>
      <trkpt lat="52.166335" lon="5.049073">
        <ele>-2.789516</ele>
        <time>2026-04-13T17:34:50.472Z</time>
      </trkpt>
      <trkpt lat="52.166301" lon="5.049270">
        <ele>-2.819142</ele>
        <time>2026-04-13T17:34:52.127Z</time>
      </trkpt>
      <trkpt lat="52.166336" lon="5.049479">
        <ele>-2.850506</ele>
        <time>2026-04-13T17:34:53.894Z</time>
      </trkpt>
      <trkpt lat="52.167996" lon="5.056884">
        <ele>-3.836030</ele>
        <time>2026-04-13T17:36:02.267Z</time>
      </trkpt>
      <trkpt lat="52.168836" lon="5.060691">
        <ele>-3.849309</ele>
        <time>2026-04-13T17:36:53.263Z</time>
      </trkpt>
      <trkpt lat="52.168823" lon="5.060939">
        <ele>-3.867160</ele>
        <time>2026-04-13T17:36:56.192Z</time>
      </trkpt>
      <trkpt lat="52.168754" lon="5.061329">
        <ele>-3.896271</ele>
        <time>2026-04-13T17:37:00.896Z</time>
      </trkpt>
      <trkpt lat="52.168719" lon="5.061598">
        <ele>-3.915994</ele>
        <time>2026-04-13T17:37:04.131Z</time>
      </trkpt>
      <trkpt lat="52.169184" lon="5.063670">
        <ele>-3.865121</ele>
        <time>2026-04-13T17:37:30.620Z</time>
      </trkpt>
      <trkpt lat="52.169353" lon="5.064427">
        <ele>-3.801232</ele>
        <time>2026-04-13T17:37:41.384Z</time>
      </trkpt>
      <trkpt lat="52.169404" lon="5.064491">
        <ele>-3.792910</ele>
        <time>2026-04-13T17:37:42.798Z</time>
      </trkpt>
      <trkpt lat="52.169600" lon="5.064582">
        <ele>-3.766559</ele>
        <time>2026-04-13T17:37:47.290Z</time>
      </trkpt>
      <trkpt lat="52.169695" lon="5.064705">
        <ele>-3.750873</ele>
        <time>2026-04-13T17:37:49.957Z</time>
      </trkpt>
      <trkpt lat="52.169900" lon="5.065623">
        <ele>-3.495744</ele>
        <time>2026-04-13T17:38:03.152Z</time>
      </trkpt>
      <trkpt lat="52.170168" lon="5.066890">
        <ele>-3.115648</ele>
        <time>2026-04-13T17:38:21.312Z</time>
      </trkpt>
      <trkpt lat="52.170768" lon="5.069732">
        <ele>-2.088056</ele>
        <time>2026-04-13T17:39:01.894Z</time>
      </trkpt>
      <trkpt lat="52.170894" lon="5.069978">
        <ele>-1.972567</ele>
        <time>2026-04-13T17:39:06.653Z</time>
      </trkpt>
      <trkpt lat="52.170937" lon="5.070243">
        <ele>-1.873792</ele>
        <time>2026-04-13T17:39:10.744Z</time>
      </trkpt>
      <trkpt lat="52.170985" lon="5.070216">
        <ele>-1.843141</ele>
        <time>2026-04-13T17:39:11.998Z</time>
      </trkpt>
      <trkpt lat="52.171050" lon="5.070186">
        <ele>-1.800180</ele>
        <time>2026-04-13T17:39:13.261Z</time>
      </trkpt>
      <trkpt lat="52.171143" lon="5.070134">
        <ele>-1.737656</ele>
        <time>2026-04-13T17:39:15.153Z</time>
      </trkpt>
      <trkpt lat="52.171514" lon="5.070008">
        <ele>-1.496656</ele>
        <time>2026-04-13T17:39:22.324Z</time>
      </trkpt>
      <trkpt lat="52.172204" lon="5.069923">
        <ele>-1.056602</ele>
        <time>2026-04-13T17:39:34.749Z</time>
      </trkpt>
      <trkpt lat="52.173076" lon="5.069838">
        <ele>-0.690771</ele>
        <time>2026-04-13T17:39:48.413Z</time>
      </trkpt>
      <trkpt lat="52.173150" lon="5.069830">
        <ele>-0.686419</ele>
        <time>2026-04-13T17:39:49.524Z</time>
      </trkpt>
      <trkpt lat="52.181831" lon="5.068761">
        <ele>-0.196572</ele>
        <time>2026-04-13T17:42:00.191Z</time>
      </trkpt>
      <trkpt lat="52.183157" lon="5.068635">
        <ele>-0.153808</ele>
        <time>2026-04-13T17:42:20.399Z</time>
      </trkpt>
      <trkpt lat="52.183278" lon="5.068639">
        <ele>-0.149912</ele>
        <time>2026-04-13T17:42:22.198Z</time>
      </trkpt>
      <trkpt lat="52.183869" lon="5.068742">
        <ele>-0.244273</ele>
        <time>2026-04-13T17:42:30.671Z</time>
      </trkpt>
      <trkpt lat="52.185416" lon="5.069105">
        <ele>-0.648233</ele>
        <time>2026-04-13T17:42:51.835Z</time>
      </trkpt>
      <trkpt lat="52.186311" lon="5.069348">
        <ele>-0.627449</ele>
        <time>2026-04-13T17:43:05.626Z</time>
      </trkpt>
      <trkpt lat="52.186419" lon="5.069451">
        <ele>-0.624583</ele>
        <time>2026-04-13T17:43:07.648Z</time>
      </trkpt>
      <trkpt lat="52.186483" lon="5.069554">
        <ele>-0.622523</ele>
        <time>2026-04-13T17:43:09.112Z</time>
      </trkpt>
      <trkpt lat="52.186535" lon="5.069714">
        <ele>-0.619980</ele>
        <time>2026-04-13T17:43:10.933Z</time>
      </trkpt>
      <trkpt lat="52.186571" lon="5.070177">
        <ele>-0.613425</ele>
        <time>2026-04-13T17:43:15.506Z</time>
      </trkpt>
      <trkpt lat="52.186552" lon="5.071741">
        <ele>-0.858894</ele>
        <time>2026-04-13T17:43:28.787Z</time>
      </trkpt>
      <trkpt lat="52.186542" lon="5.072433">
        <ele>-0.990252</ele>
        <time>2026-04-13T17:43:34.532Z</time>
      </trkpt>
      <trkpt lat="52.186538" lon="5.072719">
        <ele>-1.044541</ele>
        <time>2026-04-13T17:43:36.904Z</time>
      </trkpt>
      <trkpt lat="52.186539" lon="5.074020">
        <ele>-1.229734</ele>
        <time>2026-04-13T17:43:47.478Z</time>
      </trkpt>
      <trkpt lat="52.186466" lon="5.076237">
        <ele>-1.442786</ele>
        <time>2026-04-13T17:44:07.212Z</time>
      </trkpt>
      <trkpt lat="52.186398" lon="5.078395">
        <ele>-1.346455</ele>
        <time>2026-04-13T17:44:27.660Z</time>
      </trkpt>
      <trkpt lat="52.186340" lon="5.081270">
        <ele>-1.318194</ele>
        <time>2026-04-13T17:44:53.926Z</time>
      </trkpt>
      <trkpt lat="52.186715" lon="5.085275">
        <ele>-1.405334</ele>
        <time>2026-04-13T17:45:30.163Z</time>
      </trkpt>
      <trkpt lat="52.186728" lon="5.085438">
        <ele>-1.403622</ele>
        <time>2026-04-13T17:45:31.603Z</time>
      </trkpt>
      <trkpt lat="52.186801" lon="5.086405">
        <ele>-1.393475</ele>
        <time>2026-04-13T17:45:40.241Z</time>
      </trkpt>
      <trkpt lat="52.186866" lon="5.087503">
        <ele>-1.381986</ele>
        <time>2026-04-13T17:45:50.284Z</time>
      </trkpt>
      <trkpt lat="52.187152" lon="5.090037">
        <ele>-1.023382</ele>
        <time>2026-04-13T17:46:15.477Z</time>
      </trkpt>
      <trkpt lat="52.187608" lon="5.094165">
        <ele>-0.461138</ele>
        <time>2026-04-13T17:46:56.083Z</time>
      </trkpt>
      <trkpt lat="52.187798" lon="5.095647">
        <ele>-0.366116</ele>
        <time>2026-04-13T17:47:09.998Z</time>
      </trkpt>
      <trkpt lat="52.187806" lon="5.095706">
        <ele>-0.362324</ele>
        <time>2026-04-13T17:47:10.540Z</time>
      </trkpt>
      <trkpt lat="52.187849" lon="5.096040">
        <ele>-0.340905</ele>
        <time>2026-04-13T17:47:13.697Z</time>
      </trkpt>
      <trkpt lat="52.187927" lon="5.096674">
        <ele>-0.299631</ele>
        <time>2026-04-13T17:47:19.727Z</time>
      </trkpt>
      <trkpt lat="52.188015" lon="5.097334">
        <ele>-0.250757</ele>
        <time>2026-04-13T17:47:26.226Z</time>
      </trkpt>
      <trkpt lat="52.188044" lon="5.097556">
        <ele>-0.234333</ele>
        <time>2026-04-13T17:47:28.444Z</time>
      </trkpt>
      <trkpt lat="52.188082" lon="5.097855">
        <ele>-0.212237</ele>
        <time>2026-04-13T17:47:31.292Z</time>
      </trkpt>
      <trkpt lat="52.188213" lon="5.098903">
        <ele>-0.134844</ele>
        <time>2026-04-13T17:47:41.451Z</time>
      </trkpt>
      <trkpt lat="52.188625" lon="5.102452">
        <ele>-0.015165</ele>
        <time>2026-04-13T17:48:14.643Z</time>
      </trkpt>
      <trkpt lat="52.188712" lon="5.103211">
        <ele>-0.045402</ele>
        <time>2026-04-13T17:48:21.614Z</time>
      </trkpt>
      <trkpt lat="52.188858" lon="5.104211">
        <ele>-0.085658</ele>
        <time>2026-04-13T17:48:30.847Z</time>
      </trkpt>
      <trkpt lat="52.188876" lon="5.104323">
        <ele>-0.090192</ele>
        <time>2026-04-13T17:48:31.884Z</time>
      </trkpt>
      <trkpt lat="52.189147" lon="5.105810">
        <ele>-0.225151</ele>
        <time>2026-04-13T17:48:45.385Z</time>
      </trkpt>
      <trkpt lat="52.189276" lon="5.106516">
        <ele>-0.341175</ele>
        <time>2026-04-13T17:48:51.753Z</time>
      </trkpt>
      <trkpt lat="52.189485" lon="5.107422">
        <ele>-0.493632</ele>
        <time>2026-04-13T17:49:00.079Z</time>
      </trkpt>
      <trkpt lat="52.189713" lon="5.108373">
        <ele>-0.620432</ele>
        <time>2026-04-13T17:49:08.452Z</time>
      </trkpt>
      <trkpt lat="52.189904" lon="5.109170">
        <ele>-0.685728</ele>
        <time>2026-04-13T17:49:15.684Z</time>
      </trkpt>
      <trkpt lat="52.190130" lon="5.110056">
        <ele>-0.758953</ele>
        <time>2026-04-13T17:49:24.230Z</time>
      </trkpt>
      <trkpt lat="52.190284" lon="5.110623">
        <ele>-0.806274</ele>
        <time>2026-04-13T17:49:29.957Z</time>
      </trkpt>
      <trkpt lat="52.190510" lon="5.111454">
        <ele>-0.668904</ele>
        <time>2026-04-13T17:49:38.763Z</time>
      </trkpt>
      <trkpt lat="52.191269" lon="5.114334">
        <ele>-0.256781</ele>
        <time>2026-04-13T17:50:09.660Z</time>
      </trkpt>
      <trkpt lat="52.191281" lon="5.114377">
        <ele>-0.254562</ele>
        <time>2026-04-13T17:50:10.092Z</time>
      </trkpt>
      <trkpt lat="52.191631" lon="5.115777">
        <ele>-0.183572</ele>
        <time>2026-04-13T17:50:23.707Z</time>
      </trkpt>
      <trkpt lat="52.191805" lon="5.116534">
        <ele>-0.126923</ele>
        <time>2026-04-13T17:50:30.962Z</time>
      </trkpt>
      <trkpt lat="52.192001" lon="5.117404">
        <ele>-0.046087</ele>
        <time>2026-04-13T17:50:39.766Z</time>
      </trkpt>
      <trkpt lat="52.192026" lon="5.117494">
        <ele>-0.037470</ele>
        <time>2026-04-13T17:50:40.732Z</time>
      </trkpt>
      <trkpt lat="52.192070" lon="5.117650">
        <ele>-0.022493</ele>
        <time>2026-04-13T17:50:42.399Z</time>
      </trkpt>
      <trkpt lat="52.192348" lon="5.118838">
        <ele>0.088406</ele>
        <time>2026-04-13T17:50:54.383Z</time>
      </trkpt>
      <trkpt lat="52.192436" lon="5.119176">
        <ele>0.133079</ele>
        <time>2026-04-13T17:50:57.972Z</time>
      </trkpt>
      <trkpt lat="52.192575" lon="5.119714">
        <ele>0.204148</ele>
        <time>2026-04-13T17:51:03.746Z</time>
      </trkpt>
      <trkpt lat="52.192614" lon="5.119865">
        <ele>0.224093</ele>
        <time>2026-04-13T17:51:05.376Z</time>
      </trkpt>
      <trkpt lat="52.192801" lon="5.120591">
        <ele>0.319952</ele>
        <time>2026-04-13T17:51:13.126Z</time>
      </trkpt>
      <trkpt lat="52.192847" lon="5.120766">
        <ele>0.343130</ele>
        <time>2026-04-13T17:51:14.998Z</time>
      </trkpt>
      <trkpt lat="52.193035" lon="5.121495">
        <ele>0.439402</ele>
        <time>2026-04-13T17:51:22.505Z</time>
      </trkpt>
      <trkpt lat="52.193228" lon="5.122236">
        <ele>0.374279</ele>
        <time>2026-04-13T17:51:29.700Z</time>
      </trkpt>
      <trkpt lat="52.193663" lon="5.123757">
        <ele>0.215388</ele>
        <time>2026-04-13T17:51:43.933Z</time>
      </trkpt>
      <trkpt lat="52.193679" lon="5.123804">
        <ele>0.210298</ele>
        <time>2026-04-13T17:51:44.362Z</time>
      </trkpt>
      <trkpt lat="52.193753" lon="5.124050">
        <ele>0.184357</ele>
        <time>2026-04-13T17:51:46.634Z</time>
      </trkpt>
      <trkpt lat="52.193815" lon="5.124252">
        <ele>0.170351</ele>
        <time>2026-04-13T17:51:48.544Z</time>
      </trkpt>
      <trkpt lat="52.193827" lon="5.124287">
        <ele>0.172275</ele>
        <time>2026-04-13T17:51:48.888Z</time>
      </trkpt>
      <trkpt lat="52.193848" lon="5.124351">
        <ele>0.175757</ele>
        <time>2026-04-13T17:51:49.519Z</time>
      </trkpt>
      <trkpt lat="52.194206" lon="5.125417">
        <ele>0.234061</ele>
        <time>2026-04-13T17:52:00.600Z</time>
      </trkpt>
      <trkpt lat="52.194613" lon="5.126502">
        <ele>0.295076</ele>
        <time>2026-04-13T17:52:12.878Z</time>
      </trkpt>
      <trkpt lat="52.194983" lon="5.127312">
        <ele>0.379386</ele>
        <time>2026-04-13T17:52:22.864Z</time>
      </trkpt>
      <trkpt lat="52.195234" lon="5.127832">
        <ele>0.443737</ele>
        <time>2026-04-13T17:52:29.215Z</time>
      </trkpt>
      <trkpt lat="52.195425" lon="5.128224">
        <ele>0.492422</ele>
        <time>2026-04-13T17:52:33.907Z</time>
      </trkpt>
      <trkpt lat="52.195527" lon="5.128434">
        <ele>0.518472</ele>
        <time>2026-04-13T17:52:36.429Z</time>
      </trkpt>
      <trkpt lat="52.195664" lon="5.128717">
        <ele>0.553532</ele>
        <time>2026-04-13T17:52:39.840Z</time>
      </trkpt>
      <trkpt lat="52.195851" lon="5.129101">
        <ele>0.595344</ele>
        <time>2026-04-13T17:52:44.367Z</time>
      </trkpt>
      <trkpt lat="52.196046" lon="5.129458">
        <ele>0.604520</ele>
        <time>2026-04-13T17:52:48.674Z</time>
      </trkpt>
      <trkpt lat="52.196102" lon="5.129561">
        <ele>0.607163</ele>
        <time>2026-04-13T17:52:49.904Z</time>
      </trkpt>
      <trkpt lat="52.196263" lon="5.129854">
        <ele>0.614714</ele>
        <time>2026-04-13T17:52:53.417Z</time>
      </trkpt>
      <trkpt lat="52.196647" lon="5.130598">
        <ele>0.633380</ele>
        <time>2026-04-13T17:53:02.095Z</time>
      </trkpt>
      <trkpt lat="52.196828" lon="5.130956">
        <ele>0.642286</ele>
        <time>2026-04-13T17:53:06.333Z</time>
      </trkpt>
      <trkpt lat="52.197145" lon="5.131542">
        <ele>0.734613</ele>
        <time>2026-04-13T17:53:13.668Z</time>
      </trkpt>
      <trkpt lat="52.197330" lon="5.131849">
        <ele>0.833219</ele>
        <time>2026-04-13T17:53:17.906Z</time>
      </trkpt>
      <trkpt lat="52.197395" lon="5.131957">
        <ele>0.867887</ele>
        <time>2026-04-13T17:53:19.419Z</time>
      </trkpt>
      <trkpt lat="52.197687" lon="5.132441">
        <ele>1.023433</ele>
        <time>2026-04-13T17:53:26.408Z</time>
      </trkpt>
      <trkpt lat="52.198203" lon="5.133315">
        <ele>1.301370</ele>
        <time>2026-04-13T17:53:38.958Z</time>
      </trkpt>
      <trkpt lat="52.198337" lon="5.133557">
        <ele>1.337951</ele>
        <time>2026-04-13T17:53:42.278Z</time>
      </trkpt>
      <trkpt lat="52.198450" lon="5.133741">
        <ele>1.355302</ele>
        <time>2026-04-13T17:53:44.895Z</time>
      </trkpt>
      <trkpt lat="52.198624" lon="5.134018">
        <ele>1.381724</ele>
        <time>2026-04-13T17:53:48.755Z</time>
      </trkpt>
      <trkpt lat="52.198671" lon="5.134092">
        <ele>1.388822</ele>
        <time>2026-04-13T17:53:49.759Z</time>
      </trkpt>
      <trkpt lat="52.198955" lon="5.134336">
        <ele>1.423706</ele>
        <time>2026-04-13T17:53:54.633Z</time>
      </trkpt>
      <trkpt lat="52.199163" lon="5.134418">
        <ele>1.446962</ele>
        <time>2026-04-13T17:53:57.759Z</time>
      </trkpt>
      <trkpt lat="52.199174" lon="5.134420">
        <ele>1.448165</ele>
        <time>2026-04-13T17:53:57.916Z</time>
      </trkpt>
      <trkpt lat="52.199409" lon="5.134442">
        <ele>1.473747</ele>
        <time>2026-04-13T17:54:01.279Z</time>
      </trkpt>
      <trkpt lat="52.199449" lon="5.134429">
        <ele>1.478180</ele>
        <time>2026-04-13T17:54:01.845Z</time>
      </trkpt>
      <trkpt lat="52.199611" lon="5.134380">
        <ele>1.496086</ele>
        <time>2026-04-13T17:54:04.142Z</time>
      </trkpt>
      <trkpt lat="52.199919" lon="5.134180">
        <ele>1.543711</ele>
        <time>2026-04-13T17:54:08.905Z</time>
      </trkpt>
      <trkpt lat="52.199961" lon="5.134150">
        <ele>1.552731</ele>
        <time>2026-04-13T17:54:09.582Z</time>
      </trkpt>
      <trkpt lat="52.200029" lon="5.134093">
        <ele>1.567771</ele>
        <time>2026-04-13T17:54:10.711Z</time>
      </trkpt>
      <trkpt lat="52.200667" lon="5.133577">
        <ele>1.707857</ele>
        <time>2026-04-13T17:54:22.101Z</time>
      </trkpt>
      <trkpt lat="52.200688" lon="5.133558">
        <ele>1.712581</ele>
        <time>2026-04-13T17:54:22.491Z</time>
      </trkpt>
      <trkpt lat="52.200708" lon="5.133540">
        <ele>1.717075</ele>
        <time>2026-04-13T17:54:22.862Z</time>
      </trkpt>
      <trkpt lat="52.200905" lon="5.133374">
        <ele>1.760693</ele>
        <time>2026-04-13T17:54:26.515Z</time>
      </trkpt>
      <trkpt lat="52.201100" lon="5.133205">
        <ele>1.804131</ele>
        <time>2026-04-13T17:54:29.947Z</time>
      </trkpt>
      <trkpt lat="52.201120" lon="5.133188">
        <ele>1.808568</ele>
        <time>2026-04-13T17:54:30.292Z</time>
      </trkpt>
      <trkpt lat="52.201228" lon="5.133095">
        <ele>1.832592</ele>
        <time>2026-04-13T17:54:32.132Z</time>
      </trkpt>
      <trkpt lat="52.201319" lon="5.133018">
        <ele>1.852758</ele>
        <time>2026-04-13T17:54:33.682Z</time>
      </trkpt>
      <trkpt lat="52.201400" lon="5.132958">
        <ele>1.870258</ele>
        <time>2026-04-13T17:54:35.085Z</time>
      </trkpt>
      <trkpt lat="52.201544" lon="5.132822">
        <ele>1.889658</ele>
        <time>2026-04-13T17:54:37.733Z</time>
      </trkpt>
      <trkpt lat="52.201788" lon="5.132583">
        <ele>1.921833</ele>
        <time>2026-04-13T17:54:42.289Z</time>
      </trkpt>
      <trkpt lat="52.201877" lon="5.132484">
        <ele>1.934011</ele>
        <time>2026-04-13T17:54:43.975Z</time>
      </trkpt>
      <trkpt lat="52.202008" lon="5.132336">
        <ele>1.952026</ele>
        <time>2026-04-13T17:54:46.499Z</time>
      </trkpt>
      <trkpt lat="52.202151" lon="5.132176">
        <ele>1.971629</ele>
        <time>2026-04-13T17:54:49.221Z</time>
      </trkpt>
      <trkpt lat="52.202231" lon="5.132086">
        <ele>1.982615</ele>
        <time>2026-04-13T17:54:50.690Z</time>
      </trkpt>
      <trkpt lat="52.202355" lon="5.131955">
        <ele>1.999317</ele>
        <time>2026-04-13T17:54:52.887Z</time>
      </trkpt>
      <trkpt lat="52.202766" lon="5.131458">
        <ele>2.057153</ele>
        <time>2026-04-13T17:55:00.537Z</time>
      </trkpt>
      <trkpt lat="52.202844" lon="5.131350">
        <ele>2.068719</ele>
        <time>2026-04-13T17:55:02.152Z</time>
      </trkpt>
      <trkpt lat="52.202866" lon="5.131324">
        <ele>2.071790</ele>
        <time>2026-04-13T17:55:02.571Z</time>
      </trkpt>
      <trkpt lat="52.203632" lon="5.130389">
        <ele>1.613308</ele>
        <time>2026-04-13T17:55:16.327Z</time>
      </trkpt>
      <trkpt lat="52.203752" lon="5.130217">
        <ele>1.533869</ele>
        <time>2026-04-13T17:55:18.255Z</time>
      </trkpt>
      <trkpt lat="52.203978" lon="5.129858">
        <ele>1.377001</ele>
        <time>2026-04-13T17:55:22.054Z</time>
      </trkpt>
      <trkpt lat="52.204472" lon="5.129003">
        <ele>1.057668</ele>
        <time>2026-04-13T17:55:31.126Z</time>
      </trkpt>
      <trkpt lat="52.204628" lon="5.128745">
        <ele>0.973742</ele>
        <time>2026-04-13T17:55:33.898Z</time>
      </trkpt>
      <trkpt lat="52.204768" lon="5.128641">
        <ele>0.915620</ele>
        <time>2026-04-13T17:55:36.585Z</time>
      </trkpt>
      <trkpt lat="52.204843" lon="5.128569">
        <ele>0.882741</ele>
        <time>2026-04-13T17:55:38.101Z</time>
      </trkpt>
      <trkpt lat="52.204981" lon="5.128668">
        <ele>0.825782</ele>
        <time>2026-04-13T17:55:40.781Z</time>
      </trkpt>
      <trkpt lat="52.205094" lon="5.128615">
        <ele>0.781357</ele>
        <time>2026-04-13T17:55:42.997Z</time>
      </trkpt>
      <trkpt lat="52.205150" lon="5.128539">
        <ele>0.753835</ele>
        <time>2026-04-13T17:55:44.397Z</time>
      </trkpt>
      <trkpt lat="52.205197" lon="5.128376">
        <ele>0.712122</ele>
        <time>2026-04-13T17:55:46.558Z</time>
      </trkpt>
      <trkpt lat="52.205188" lon="5.128233">
        <ele>0.678836</ele>
        <time>2026-04-13T17:55:48.358Z</time>
      </trkpt>
      <trkpt lat="52.205142" lon="5.128078">
        <ele>0.638957</ele>
        <time>2026-04-13T17:55:50.656Z</time>
      </trkpt>
      <trkpt lat="52.205208" lon="5.127839">
        <ele>0.578256</ele>
        <time>2026-04-13T17:55:54.238Z</time>
      </trkpt>
      <trkpt lat="52.205256" lon="5.127415">
        <ele>0.506341</ele>
        <time>2026-04-13T17:56:00.190Z</time>
      </trkpt>
      <trkpt lat="52.205287" lon="5.127315">
        <ele>0.512727</ele>
        <time>2026-04-13T17:56:01.307Z</time>
      </trkpt>
      <trkpt lat="52.205357" lon="5.127086">
        <ele>0.527310</ele>
        <time>2026-04-13T17:56:03.817Z</time>
      </trkpt>
      <trkpt lat="52.205430" lon="5.126848">
        <ele>0.542476</ele>
        <time>2026-04-13T17:56:06.260Z</time>
      </trkpt>
      <trkpt lat="52.205492" lon="5.126643">
        <ele>0.555503</ele>
        <time>2026-04-13T17:56:08.445Z</time>
      </trkpt>
      <trkpt lat="52.205580" lon="5.126358">
        <ele>0.573688</ele>
        <time>2026-04-13T17:56:11.595Z</time>
      </trkpt>
      <trkpt lat="52.205613" lon="5.126247">
        <ele>0.580718</ele>
        <time>2026-04-13T17:56:12.712Z</time>
      </trkpt>
      <trkpt lat="52.205884" lon="5.125288">
        <ele>0.640896</ele>
        <time>2026-04-13T17:56:21.972Z</time>
      </trkpt>
      <trkpt lat="52.205924" lon="5.125139">
        <ele>0.650165</ele>
        <time>2026-04-13T17:56:23.514Z</time>
      </trkpt>
      <trkpt lat="52.205959" lon="5.125010">
        <ele>0.658204</ele>
        <time>2026-04-13T17:56:24.922Z</time>
      </trkpt>
      <trkpt lat="52.206178" lon="5.124196">
        <ele>0.609567</ele>
        <time>2026-04-13T17:56:33.115Z</time>
      </trkpt>
      <trkpt lat="52.206238" lon="5.123976">
        <ele>0.589885</ele>
        <time>2026-04-13T17:56:35.216Z</time>
      </trkpt>
      <trkpt lat="52.206335" lon="5.123610">
        <ele>0.557293</ele>
        <time>2026-04-13T17:56:38.612Z</time>
      </trkpt>
      <trkpt lat="52.206404" lon="5.123284">
        <ele>0.529104</ele>
        <time>2026-04-13T17:56:41.481Z</time>
      </trkpt>
      <trkpt lat="52.206429" lon="5.123167">
        <ele>0.518976</ele>
        <time>2026-04-13T17:56:42.563Z</time>
      </trkpt>
      <trkpt lat="52.206513" lon="5.122775">
        <ele>0.485035</ele>
        <time>2026-04-13T17:56:46.307Z</time>
      </trkpt>
      <trkpt lat="52.206616" lon="5.122185">
        <ele>0.434894</ele>
        <time>2026-04-13T17:56:52.212Z</time>
      </trkpt>
      <trkpt lat="52.206669" lon="5.121867">
        <ele>0.387314</ele>
        <time>2026-04-13T17:56:54.934Z</time>
      </trkpt>
      <trkpt lat="52.206715" lon="5.121576">
        <ele>0.337679</ele>
        <time>2026-04-13T17:56:57.225Z</time>
      </trkpt>
      <trkpt lat="52.206738" lon="5.121429">
        <ele>0.312621</ele>
        <time>2026-04-13T17:56:58.377Z</time>
      </trkpt>
      <trkpt lat="52.206754" lon="5.121327">
        <ele>0.295232</ele>
        <time>2026-04-13T17:56:59.232Z</time>
      </trkpt>
      <trkpt lat="52.206804" lon="5.120973">
        <ele>0.235232</ele>
        <time>2026-04-13T17:57:02.240Z</time>
      </trkpt>
      <trkpt lat="52.206811" lon="5.120851">
        <ele>0.214994</ele>
        <time>2026-04-13T17:57:03.339Z</time>
      </trkpt>
      <trkpt lat="52.206844" lon="5.120319">
        <ele>0.126679</ele>
        <time>2026-04-13T17:57:08.155Z</time>
      </trkpt>
      <trkpt lat="52.206840" lon="5.119941">
        <ele>0.064239</ele>
        <time>2026-04-13T17:57:11.483Z</time>
      </trkpt>
      <trkpt lat="52.206840" lon="5.119899">
        <ele>0.057302</ele>
        <time>2026-04-13T17:57:11.847Z</time>
      </trkpt>
      <trkpt lat="52.206834" lon="5.119072">
        <ele>-0.060607</ele>
        <time>2026-04-13T17:57:18.630Z</time>
      </trkpt>
      <trkpt lat="52.206829" lon="5.118757">
        <ele>-0.069843</ele>
        <time>2026-04-13T17:57:21.190Z</time>
      </trkpt>
      <trkpt lat="52.206828" lon="5.118353">
        <ele>-0.081684</ele>
        <time>2026-04-13T17:57:24.712Z</time>
      </trkpt>
      <trkpt lat="52.206828" lon="5.118181">
        <ele>-0.086725</ele>
        <time>2026-04-13T17:57:26.383Z</time>
      </trkpt>
      <trkpt lat="52.206833" lon="5.117768">
        <ele>-0.098832</ele>
        <time>2026-04-13T17:57:30.585Z</time>
      </trkpt>
      <trkpt lat="52.206847" lon="5.116749">
        <ele>-0.128706</ele>
        <time>2026-04-13T17:57:39.662Z</time>
      </trkpt>
      <trkpt lat="52.206854" lon="5.116451">
        <ele>-0.137447</ele>
        <time>2026-04-13T17:57:42.207Z</time>
      </trkpt>
      <trkpt lat="52.206868" lon="5.115776">
        <ele>-0.128234</ele>
        <time>2026-04-13T17:57:48.398Z</time>
      </trkpt>
      <trkpt lat="52.206870" lon="5.115665">
        <ele>-0.125040</ele>
        <time>2026-04-13T17:57:49.513Z</time>
      </trkpt>
      <trkpt lat="52.206881" lon="5.115152">
        <ele>-0.110279</ele>
        <time>2026-04-13T17:57:54.664Z</time>
      </trkpt>
      <trkpt lat="52.206886" lon="5.114897">
        <ele>-0.102941</ele>
        <time>2026-04-13T17:57:57.223Z</time>
      </trkpt>
      <trkpt lat="52.206876" lon="5.113319">
        <ele>-0.061799</ele>
        <time>2026-04-13T17:58:11.547Z</time>
      </trkpt>
      <trkpt lat="52.206876" lon="5.112852">
        <ele>-0.138095</ele>
        <time>2026-04-13T17:58:15.586Z</time>
      </trkpt>
      <trkpt lat="52.206877" lon="5.112643">
        <ele>-0.172242</ele>
        <time>2026-04-13T17:58:17.345Z</time>
      </trkpt>
      <trkpt lat="52.206877" lon="5.112407">
        <ele>-0.210798</ele>
        <time>2026-04-13T17:58:19.285Z</time>
      </trkpt>
      <trkpt lat="52.206879" lon="5.112204">
        <ele>-0.243967</ele>
        <time>2026-04-13T17:58:20.908Z</time>
      </trkpt>
      <trkpt lat="52.206879" lon="5.112187">
        <ele>-0.246745</ele>
        <time>2026-04-13T17:58:21.038Z</time>
      </trkpt>
      <trkpt lat="52.206885" lon="5.112167">
        <ele>-0.250383</ele>
        <time>2026-04-13T17:58:21.276Z</time>
      </trkpt>
      <trkpt lat="52.206951" lon="5.111479">
        <ele>-0.364153</ele>
        <time>2026-04-13T17:58:29.194Z</time>
      </trkpt>
      <trkpt lat="52.206983" lon="5.111345">
        <ele>-0.387649</ele>
        <time>2026-04-13T17:58:30.826Z</time>
      </trkpt>
      <trkpt lat="52.206999" lon="5.111274">
        <ele>-0.400008</ele>
        <time>2026-04-13T17:58:31.726Z</time>
      </trkpt>
      <trkpt lat="52.207113" lon="5.111148">
        <ele>-0.436715</ele>
        <time>2026-04-13T17:58:34.364Z</time>
      </trkpt>
      <trkpt lat="52.207154" lon="5.111019">
        <ele>-0.460456</ele>
        <time>2026-04-13T17:58:36.061Z</time>
      </trkpt>
      <trkpt lat="52.207151" lon="5.110901">
        <ele>-0.479751</ele>
        <time>2026-04-13T17:58:37.487Z</time>
      </trkpt>
      <trkpt lat="52.207391" lon="5.110974">
        <ele>-0.533760</ele>
        <time>2026-04-13T17:58:40.948Z</time>
      </trkpt>
      <trkpt lat="52.207733" lon="5.111111">
        <ele>-0.481753</ele>
        <time>2026-04-13T17:58:46.254Z</time>
      </trkpt>
      <trkpt lat="52.208547" lon="5.111733">
        <ele>-0.349013</ele>
        <time>2026-04-13T17:59:00.735Z</time>
      </trkpt>
      <trkpt lat="52.208516" lon="5.111842">
        <ele>-0.338138</ele>
        <time>2026-04-13T17:59:02.351Z</time>
      </trkpt>
      <trkpt lat="52.208777" lon="5.112045">
        <ele>-0.295438</ele>
        <time>2026-04-13T17:59:06.854Z</time>
      </trkpt>
      <trkpt lat="52.208516" lon="5.111842">
        <ele>-0.285390</ele>
        <time>2026-04-13T17:59:11.183Z</time>
      </trkpt>
      <trkpt lat="52.208547" lon="5.111733">
        <ele>-0.292874</ele>
        <time>2026-04-13T17:59:12.643Z</time>
      </trkpt>
      <trkpt lat="52.209500" lon="5.112441">
        <ele>-0.399292</ele>
        <time>2026-04-13T17:59:27.694Z</time>
      </trkpt>
      <trkpt lat="52.209756" lon="5.112723">
        <ele>-0.430682</ele>
        <time>2026-04-13T17:59:32.062Z</time>
      </trkpt>
      <trkpt lat="52.209968" lon="5.113119">
        <ele>-0.462836</ele>
        <time>2026-04-13T17:59:36.631Z</time>
      </trkpt>
      <trkpt lat="52.210015" lon="5.113368">
        <ele>-0.477935</ele>
        <time>2026-04-13T17:59:38.910Z</time>
      </trkpt>
      <trkpt lat="52.210089" lon="5.114149">
        <ele>-0.523734</ele>
        <time>2026-04-13T17:59:45.894Z</time>
      </trkpt>
      <trkpt lat="52.210123" lon="5.114274">
        <ele>-0.531660</ele>
        <time>2026-04-13T17:59:47.095Z</time>
      </trkpt>
      <trkpt lat="52.210205" lon="5.114510">
        <ele>-0.547382</ele>
        <time>2026-04-13T17:59:49.484Z</time>
      </trkpt>
      <trkpt lat="52.210436" lon="5.114767">
        <ele>-0.573823</ele>
        <time>2026-04-13T17:59:53.489Z</time>
      </trkpt>
      <trkpt lat="52.212529" lon="5.116355">
        <ele>-0.743731</ele>
        <time>2026-04-13T18:00:27.205Z</time>
      </trkpt>
      <trkpt lat="52.212954" lon="5.116707">
        <ele>-0.826546</ele>
        <time>2026-04-13T18:00:33.954Z</time>
      </trkpt>
      <trkpt lat="52.213868" lon="5.117544">
        <ele>-1.016556</ele>
        <time>2026-04-13T18:00:48.556Z</time>
      </trkpt>
      <trkpt lat="52.214988" lon="5.118643">
        <ele>-0.874687</ele>
        <time>2026-04-13T18:01:08.034Z</time>
      </trkpt>
      <trkpt lat="52.215835" lon="5.119526">
        <ele>-0.687577</ele>
        <time>2026-04-13T18:01:24.823Z</time>
      </trkpt>
      <trkpt lat="52.215905" lon="5.119583">
        <ele>-0.676258</ele>
        <time>2026-04-13T18:01:26.107Z</time>
      </trkpt>
      <trkpt lat="52.215949" lon="5.119620">
        <ele>-0.669096</ele>
        <time>2026-04-13T18:01:26.952Z</time>
      </trkpt>
      <trkpt lat="52.216368" lon="5.120022">
        <ele>-0.598774</ele>
        <time>2026-04-13T18:01:37.492Z</time>
      </trkpt>
      <trkpt lat="52.217437" lon="5.121007">
        <ele>-0.405012</ele>
        <time>2026-04-13T18:02:01.919Z</time>
      </trkpt>
      <trkpt lat="52.218232" lon="5.121775">
        <ele>-0.211796</ele>
        <time>2026-04-13T18:02:20.828Z</time>
      </trkpt>
      <trkpt lat="52.218332" lon="5.121867">
        <ele>-0.187788</ele>
        <time>2026-04-13T18:02:23.245Z</time>
      </trkpt>
      <trkpt lat="52.218686" lon="5.122167">
        <ele>-0.104363</ele>
        <time>2026-04-13T18:02:31.885Z</time>
      </trkpt>
      <trkpt lat="52.218874" lon="5.122273">
        <ele>-0.030006</ele>
        <time>2026-04-13T18:02:36.304Z</time>
      </trkpt>
      <trkpt lat="52.218998" lon="5.122264">
        <ele>0.042067</ele>
        <time>2026-04-13T18:02:39.185Z</time>
      </trkpt>
      <trkpt lat="52.219162" lon="5.122113">
        <ele>0.151401</ele>
        <time>2026-04-13T18:02:43.602Z</time>
      </trkpt>
      <trkpt lat="52.219233" lon="5.121828">
        <ele>0.260847</ele>
        <time>2026-04-13T18:02:48.130Z</time>
      </trkpt>
      <trkpt lat="52.219317" lon="5.121815">
        <ele>0.309841</ele>
        <time>2026-04-13T18:02:50.173Z</time>
      </trkpt>
      <trkpt lat="52.219317" lon="5.122054">
        <ele>0.394862</ele>
        <time>2026-04-13T18:02:53.688Z</time>
      </trkpt>
      <trkpt lat="52.219324" lon="5.122226">
        <ele>0.456183</ele>
        <time>2026-04-13T18:02:56.204Z</time>
      </trkpt>
      <trkpt lat="52.219349" lon="5.122451">
        <ele>0.537529</ele>
        <time>2026-04-13T18:02:59.503Z</time>
      </trkpt>
      <trkpt lat="52.219351" lon="5.122564">
        <ele>0.577744</ele>
        <time>2026-04-13T18:03:01.133Z</time>
      </trkpt>
      <trkpt lat="52.219350" lon="5.122709">
        <ele>0.629329</ele>
        <time>2026-04-13T18:03:03.217Z</time>
      </trkpt>
      <trkpt lat="52.219343" lon="5.123831">
        <ele>0.898176</ele>
        <time>2026-04-13T18:03:18.545Z</time>
      </trkpt>
      <trkpt lat="52.219395" lon="5.124449">
        <ele>0.677201</ele>
        <time>2026-04-13T18:03:25.779Z</time>
      </trkpt>
      <trkpt lat="52.219492" lon="5.124430">
        <ele>0.620712</ele>
        <time>2026-04-13T18:03:27.033Z</time>
      </trkpt>
      <trkpt lat="52.219610" lon="5.124414">
        <ele>0.552247</ele>
        <time>2026-04-13T18:03:28.554Z</time>
      </trkpt>
      <trkpt lat="52.219676" lon="5.124403">
        <ele>0.513886</ele>
        <time>2026-04-13T18:03:29.383Z</time>
      </trkpt>
      <trkpt lat="52.219795" lon="5.124202">
        <ele>0.414870</ele>
        <time>2026-04-13T18:03:31.511Z</time>
      </trkpt>
      <trkpt lat="52.219850" lon="5.124178">
        <ele>0.381951</ele>
        <time>2026-04-13T18:03:32.219Z</time>
      </trkpt>
      <trkpt lat="52.220330" lon="5.124067">
        <ele>0.101635</ele>
        <time>2026-04-13T18:03:38.056Z</time>
      </trkpt>
      <trkpt lat="52.220393" lon="5.124049">
        <ele>0.064654</ele>
        <time>2026-04-13T18:03:38.830Z</time>
      </trkpt>
      <trkpt lat="52.220503" lon="5.123950">
        <ele>-0.007977</ele>
        <time>2026-04-13T18:03:40.348Z</time>
      </trkpt>
      <trkpt lat="52.220947" lon="5.123263">
        <ele>-0.155336</ele>
        <time>2026-04-13T18:03:48.134Z</time>
      </trkpt>
      <trkpt lat="52.221154" lon="5.122942">
        <ele>-0.200837</ele>
        <time>2026-04-13T18:03:52.268Z</time>
      </trkpt>
      <trkpt lat="52.221220" lon="5.122912">
        <ele>-0.211755</ele>
        <time>2026-04-13T18:03:53.359Z</time>
      </trkpt>
      <trkpt lat="52.221277" lon="5.122904">
        <ele>-0.220872</ele>
        <time>2026-04-13T18:03:54.245Z</time>
      </trkpt>
      <trkpt lat="52.221258" lon="5.122657">
        <ele>-0.245176</ele>
        <time>2026-04-13T18:03:57.468Z</time>
      </trkpt>
      <trkpt lat="52.221242" lon="5.122597">
        <ele>-0.251564</ele>
        <time>2026-04-13T18:03:58.311Z</time>
      </trkpt>
      <trkpt lat="52.221215" lon="5.122500">
        <ele>-0.261966</ele>
        <time>2026-04-13T18:03:59.688Z</time>
      </trkpt>
      <trkpt lat="52.221343" lon="5.122389">
        <ele>-0.285064</ele>
        <time>2026-04-13T18:04:02.713Z</time>
      </trkpt>
      <trkpt lat="52.221336" lon="5.122236">
        <ele>-0.300043</ele>
        <time>2026-04-13T18:04:04.160Z</time>
      </trkpt>
      <trkpt lat="52.221334" lon="5.122122">
        <ele>-0.311177</ele>
        <time>2026-04-13T18:04:05.256Z</time>
      </trkpt>
      <trkpt lat="52.221332" lon="5.122027">
        <ele>-0.320457</ele>
        <time>2026-04-13T18:04:06.148Z</time>
      </trkpt>
      <trkpt lat="52.221371" lon="5.121771">
        <ele>-0.346211</ele>
        <time>2026-04-13T18:04:08.649Z</time>
      </trkpt>
      <trkpt lat="52.221428" lon="5.121692">
        <ele>-0.358127</ele>
        <time>2026-04-13T18:04:09.822Z</time>
      </trkpt>
      <trkpt lat="52.222117" lon="5.121664">
        <ele>-0.327193</ele>
        <time>2026-04-13T18:04:20.550Z</time>
      </trkpt>
      <trkpt lat="52.222577" lon="5.121689">
        <ele>-0.301746</ele>
        <time>2026-04-13T18:04:27.301Z</time>
      </trkpt>
      <trkpt lat="52.222791" lon="5.121734">
        <ele>-0.289817</ele>
        <time>2026-04-13T18:04:30.454Z</time>
      </trkpt>
      <trkpt lat="52.223115" lon="5.121793">
        <ele>-0.271793</ele>
        <time>2026-04-13T18:04:35.250Z</time>
      </trkpt>
      <trkpt lat="52.224002" lon="5.121741">
        <ele>-0.180386</ele>
        <time>2026-04-13T18:04:48.662Z</time>
      </trkpt>
      <trkpt lat="52.224390" lon="5.121724">
        <ele>-0.136923</ele>
        <time>2026-04-13T18:04:54.450Z</time>
      </trkpt>
      <trkpt lat="52.225871" lon="5.121609">
        <ele>0.048012</ele>
        <time>2026-04-13T18:05:17.597Z</time>
      </trkpt>
      <trkpt lat="52.226386" lon="5.121749">
        <ele>0.118529</ele>
        <time>2026-04-13T18:05:25.661Z</time>
      </trkpt>
      <trkpt lat="52.226734" lon="5.121754">
        <ele>0.165534</ele>
        <time>2026-04-13T18:05:30.921Z</time>
      </trkpt>
      <trkpt lat="52.227224" lon="5.121713">
        <ele>0.150854</ele>
        <time>2026-04-13T18:05:38.202Z</time>
      </trkpt>
      <trkpt lat="52.228833" lon="5.121610">
        <ele>0.036760</ele>
        <time>2026-04-13T18:06:01.406Z</time>
      </trkpt>
      <trkpt lat="52.229735" lon="5.121583">
        <ele>0.016111</ele>
        <time>2026-04-13T18:06:14.658Z</time>
      </trkpt>
      <trkpt lat="52.229857" lon="5.121576">
        <ele>0.013316</ele>
        <time>2026-04-13T18:06:16.458Z</time>
      </trkpt>
      <trkpt lat="52.229962" lon="5.121571">
        <ele>0.010912</ele>
        <time>2026-04-13T18:06:17.993Z</time>
      </trkpt>
      <trkpt lat="52.233446" lon="5.121434">
        <ele>0.144738</ele>
        <time>2026-04-13T18:07:09.677Z</time>
      </trkpt>
      <trkpt lat="52.233574" lon="5.121429">
        <ele>0.160058</ele>
        <time>2026-04-13T18:07:11.727Z</time>
      </trkpt>
      <trkpt lat="52.233878" lon="5.121416">
        <ele>0.196445</ele>
        <time>2026-04-13T18:07:16.656Z</time>
      </trkpt>
      <trkpt lat="52.234678" lon="5.121373">
        <ele>0.323344</ele>
        <time>2026-04-13T18:07:29.929Z</time>
      </trkpt>
      <trkpt lat="52.235520" lon="5.121318">
        <ele>0.464926</ele>
        <time>2026-04-13T18:07:43.044Z</time>
      </trkpt>
      <trkpt lat="52.236110" lon="5.121280">
        <ele>0.502810</ele>
        <time>2026-04-13T18:07:51.522Z</time>
      </trkpt>
      <trkpt lat="52.236623" lon="5.121242">
        <ele>0.475835</ele>
        <time>2026-04-13T18:07:58.747Z</time>
      </trkpt>
      <trkpt lat="52.237198" lon="5.121199">
        <ele>0.445599</ele>
        <time>2026-04-13T18:08:07.137Z</time>
      </trkpt>
      <trkpt lat="52.238014" lon="5.121168">
        <ele>0.435895</ele>
        <time>2026-04-13T18:08:19.389Z</time>
      </trkpt>
      <trkpt lat="52.238218" lon="5.121158">
        <ele>0.442770</ele>
        <time>2026-04-13T18:08:22.485Z</time>
      </trkpt>
      <trkpt lat="52.238322" lon="5.121150">
        <ele>0.446277</ele>
        <time>2026-04-13T18:08:24.083Z</time>
      </trkpt>
      <trkpt lat="52.238507" lon="5.121144">
        <ele>0.452509</ele>
        <time>2026-04-13T18:08:27.909Z</time>
      </trkpt>
      <trkpt lat="52.238937" lon="5.121142">
        <ele>0.466993</ele>
        <time>2026-04-13T18:08:36.659Z</time>
      </trkpt>
      <trkpt lat="52.239450" lon="5.121090">
        <ele>0.482747</ele>
        <time>2026-04-13T18:08:46.843Z</time>
      </trkpt>
      <trkpt lat="52.240744" lon="5.121042">
        <ele>0.439908</ele>
        <time>2026-04-13T18:09:05.767Z</time>
      </trkpt>
      <trkpt lat="52.241260" lon="5.121007">
        <ele>0.423821</ele>
        <time>2026-04-13T18:09:13.522Z</time>
      </trkpt>
      <trkpt lat="52.241608" lon="5.120999">
        <ele>0.422168</ele>
        <time>2026-04-13T18:09:18.793Z</time>
      </trkpt>
      <trkpt lat="52.241831" lon="5.120994">
        <ele>0.421109</ele>
        <time>2026-04-13T18:09:22.204Z</time>
      </trkpt>
      <trkpt lat="52.242891" lon="5.120944">
        <ele>0.416073</ele>
        <time>2026-04-13T18:09:37.837Z</time>
      </trkpt>
      <trkpt lat="52.243702" lon="5.120897">
        <ele>0.339032</ele>
        <time>2026-04-13T18:09:49.857Z</time>
      </trkpt>
      <trkpt lat="52.243789" lon="5.120894">
        <ele>0.329250</ele>
        <time>2026-04-13T18:09:51.571Z</time>
      </trkpt>
      <trkpt lat="52.244045" lon="5.120885">
        <ele>0.300469</ele>
        <time>2026-04-13T18:09:56.554Z</time>
      </trkpt>
      <trkpt lat="52.244213" lon="5.120882">
        <ele>0.281584</ele>
        <time>2026-04-13T18:09:59.737Z</time>
      </trkpt>
      <trkpt lat="52.244265" lon="5.120879">
        <ele>0.275735</ele>
        <time>2026-04-13T18:10:00.737Z</time>
      </trkpt>
      <trkpt lat="52.244895" lon="5.120846">
        <ele>0.208591</ele>
        <time>2026-04-13T18:10:12.966Z</time>
      </trkpt>
      <trkpt lat="52.245289" lon="5.120832">
        <ele>0.183854</ele>
        <time>2026-04-13T18:10:20.672Z</time>
      </trkpt>
      <trkpt lat="52.247422" lon="5.120753">
        <ele>0.157565</ele>
        <time>2026-04-13T18:11:03.686Z</time>
      </trkpt>
      <trkpt lat="52.248095" lon="5.120714">
        <ele>0.205486</ele>
        <time>2026-04-13T18:11:17.881Z</time>
      </trkpt>
      <trkpt lat="52.248663" lon="5.120697">
        <ele>0.177965</ele>
        <time>2026-04-13T18:11:26.567Z</time>
      </trkpt>
      <trkpt lat="52.248711" lon="5.120664">
        <ele>0.167317</ele>
        <time>2026-04-13T18:11:27.348Z</time>
      </trkpt>
      <trkpt lat="52.248766" lon="5.120262">
        <ele>0.115755</ele>
        <time>2026-04-13T18:11:32.483Z</time>
      </trkpt>
      <trkpt lat="52.249274" lon="5.118203">
        <ele>-0.185193</ele>
        <time>2026-04-13T18:11:58.545Z</time>
      </trkpt>
      <trkpt lat="52.249470" lon="5.117395">
        <ele>-0.404331</ele>
        <time>2026-04-13T18:12:08.085Z</time>
      </trkpt>
      <trkpt lat="52.249674" lon="5.116591">
        <ele>-0.623770</ele>
        <time>2026-04-13T18:12:18.177Z</time>
      </trkpt>
      <trkpt lat="52.249864" lon="5.115786">
        <ele>-0.841301</ele>
        <time>2026-04-13T18:12:28.195Z</time>
      </trkpt>
      <trkpt lat="52.250012" lon="5.115230">
        <ele>-0.911598</ele>
        <time>2026-04-13T18:12:35.378Z</time>
      </trkpt>
      <trkpt lat="52.249989" lon="5.114777">
        <ele>-0.943223</ele>
        <time>2026-04-13T18:12:41.091Z</time>
      </trkpt>
      <trkpt lat="52.252197" lon="5.105862">
        <ele>-1.475639</ele>
        <time>2026-04-13T18:14:37.528Z</time>
      </trkpt>
      <trkpt lat="52.252255" lon="5.105633">
        <ele>-1.473075</ele>
        <time>2026-04-13T18:14:40.624Z</time>
      </trkpt>
      <trkpt lat="52.252345" lon="5.105502">
        <ele>-1.471038</ele>
        <time>2026-04-13T18:14:43.081Z</time>
      </trkpt>
      <trkpt lat="52.252415" lon="5.105396">
        <ele>-1.469425</ele>
        <time>2026-04-13T18:14:45.067Z</time>
      </trkpt>
      <trkpt lat="52.252797" lon="5.103885">
        <ele>-1.362118</ele>
        <time>2026-04-13T18:15:06.618Z</time>
      </trkpt>
      <trkpt lat="52.253187" lon="5.102130">
        <ele>-1.175240</ele>
        <time>2026-04-13T18:15:30.881Z</time>
      </trkpt>
      <trkpt lat="52.254053" lon="5.098571">
        <ele>-1.768078</ele>
        <time>2026-04-13T18:16:14.691Z</time>
      </trkpt>
      <trkpt lat="52.255051" lon="5.094489">
        <ele>-1.346602</ele>
        <time>2026-04-13T18:17:13.036Z</time>
      </trkpt>
      <trkpt lat="52.255201" lon="5.094199">
        <ele>-1.301198</ele>
        <time>2026-04-13T18:17:17.627Z</time>
      </trkpt>
      <trkpt lat="52.255286" lon="5.094144">
        <ele>-1.283338</ele>
        <time>2026-04-13T18:17:19.383Z</time>
      </trkpt>
      <trkpt lat="52.255352" lon="5.094098">
        <ele>-1.269320</ele>
        <time>2026-04-13T18:17:20.764Z</time>
      </trkpt>
      <trkpt lat="52.255452" lon="5.094074">
        <ele>-1.319514</ele>
        <time>2026-04-13T18:17:22.685Z</time>
      </trkpt>
      <trkpt lat="52.256140" lon="5.093570">
        <ele>-1.716466</ele>
        <time>2026-04-13T18:17:36.453Z</time>
      </trkpt>
      <trkpt lat="52.256322" lon="5.093485">
        <ele>-1.816120</ele>
        <time>2026-04-13T18:17:39.839Z</time>
      </trkpt>
      <trkpt lat="52.256708" lon="5.093430">
        <ele>-2.020104</ele>
        <time>2026-04-13T18:17:46.801Z</time>
      </trkpt>
      <trkpt lat="52.257088" lon="5.093589">
        <ele>-2.215976</ele>
        <time>2026-04-13T18:17:53.930Z</time>
      </trkpt>
      <trkpt lat="52.258131" lon="5.094238">
        <ele>-2.245592</ele>
        <time>2026-04-13T18:18:15.500Z</time>
      </trkpt>
      <trkpt lat="52.258586" lon="5.094523">
        <ele>-2.258523</ele>
        <time>2026-04-13T18:18:25.680Z</time>
      </trkpt>
      <trkpt lat="52.259226" lon="5.094826">
        <ele>-1.843765</ele>
        <time>2026-04-13T18:18:41.332Z</time>
      </trkpt>
      <trkpt lat="52.259316" lon="5.094876">
        <ele>-1.762795</ele>
        <time>2026-04-13T18:18:43.647Z</time>
      </trkpt>
      <trkpt lat="52.259417" lon="5.094930">
        <ele>-1.672277</ele>
        <time>2026-04-13T18:18:46.236Z</time>
      </trkpt>
      <trkpt lat="52.259452" lon="5.094949">
        <ele>-1.640862</ele>
        <time>2026-04-13T18:18:47.126Z</time>
      </trkpt>
      <trkpt lat="52.259610" lon="5.095009">
        <ele>-1.502695</ele>
        <time>2026-04-13T18:18:51.017Z</time>
      </trkpt>
      <trkpt lat="52.259600" lon="5.095069">
        <ele>-1.470275</ele>
        <time>2026-04-13T18:18:51.928Z</time>
      </trkpt>
      <trkpt lat="52.260087" lon="5.095300">
        <ele>-1.038335</ele>
        <time>2026-04-13T18:19:01.448Z</time>
      </trkpt>
      <trkpt lat="52.260714" lon="5.095655">
        <ele>-0.604158</ele>
        <time>2026-04-13T18:19:13.855Z</time>
      </trkpt>
      <trkpt lat="52.261185" lon="5.095929">
        <ele>-0.394602</ele>
        <time>2026-04-13T18:19:22.125Z</time>
      </trkpt>
      <trkpt lat="52.262240" lon="5.096496">
        <ele>0.026433</ele>
        <time>2026-04-13T18:19:39.496Z</time>
      </trkpt>
      <trkpt lat="52.262774" lon="5.096783">
        <ele>0.044372</ele>
        <time>2026-04-13T18:19:48.079Z</time>
      </trkpt>
      <trkpt lat="52.264209" lon="5.097615">
        <ele>0.042741</ele>
        <time>2026-04-13T18:20:10.338Z</time>
      </trkpt>
      <trkpt lat="52.264865" lon="5.097995">
        <ele>-0.022212</ele>
        <time>2026-04-13T18:20:20.226Z</time>
      </trkpt>
      <trkpt lat="52.265465" lon="5.098309">
        <ele>-0.081008</ele>
        <time>2026-04-13T18:20:29.403Z</time>
      </trkpt>
      <trkpt lat="52.265595" lon="5.098377">
        <ele>-0.088391</ele>
        <time>2026-04-13T18:20:31.428Z</time>
      </trkpt>
      <trkpt lat="52.265750" lon="5.098463">
        <ele>-0.090157</ele>
        <time>2026-04-13T18:20:33.885Z</time>
      </trkpt>
      <trkpt lat="52.265870" lon="5.098530">
        <ele>-0.091525</ele>
        <time>2026-04-13T18:20:35.802Z</time>
      </trkpt>
      <trkpt lat="52.266711" lon="5.099031">
        <ele>-0.101185</ele>
        <time>2026-04-13T18:20:49.455Z</time>
      </trkpt>
      <trkpt lat="52.266897" lon="5.099196">
        <ele>-0.103468</ele>
        <time>2026-04-13T18:20:52.552Z</time>
      </trkpt>
      <trkpt lat="52.267081" lon="5.099377">
        <ele>-0.105786</ele>
        <time>2026-04-13T18:20:55.662Z</time>
      </trkpt>
      <trkpt lat="52.267120" lon="5.099417">
        <ele>-0.106283</ele>
        <time>2026-04-13T18:20:56.321Z</time>
      </trkpt>
      <trkpt lat="52.267753" lon="5.100085">
        <ele>-0.267594</ele>
        <time>2026-04-13T18:21:06.699Z</time>
      </trkpt>
      <trkpt lat="52.268713" lon="5.101180">
        <ele>-0.530865</ele>
        <time>2026-04-13T18:21:22.983Z</time>
      </trkpt>
      <trkpt lat="52.269197" lon="5.101659">
        <ele>-0.507331</ele>
        <time>2026-04-13T18:21:31.449Z</time>
      </trkpt>
      <trkpt lat="52.270473" lon="5.103129">
        <ele>-0.445907</ele>
        <time>2026-04-13T18:21:55.162Z</time>
      </trkpt>
      <trkpt lat="52.270762" lon="5.103418">
        <ele>-0.434956</ele>
        <time>2026-04-13T18:22:00.154Z</time>
      </trkpt>
      <trkpt lat="52.271474" lon="5.104131">
        <ele>-0.407964</ele>
        <time>2026-04-13T18:22:12.521Z</time>
      </trkpt>
      <trkpt lat="52.272498" lon="5.105248">
        <ele>-0.437769</ele>
        <time>2026-04-13T18:22:30.692Z</time>
      </trkpt>
      <trkpt lat="52.274497" lon="5.107315">
        <ele>-0.366890</ele>
        <time>2026-04-13T18:23:05.325Z</time>
      </trkpt>
      <trkpt lat="52.274540" lon="5.107361">
        <ele>-0.363509</ele>
        <time>2026-04-13T18:23:06.188Z</time>
      </trkpt>
      <trkpt lat="52.274937" lon="5.107767">
        <ele>-0.256371</ele>
        <time>2026-04-13T18:23:14.245Z</time>
      </trkpt>
      <trkpt lat="52.275246" lon="5.108082">
        <ele>-0.130487</ele>
        <time>2026-04-13T18:23:20.493Z</time>
      </trkpt>
      <trkpt lat="52.275354" lon="5.108204">
        <ele>-0.085107</ele>
        <time>2026-04-13T18:23:22.721Z</time>
      </trkpt>
      <trkpt lat="52.275388" lon="5.108242">
        <ele>-0.070869</ele>
        <time>2026-04-13T18:23:23.421Z</time>
      </trkpt>
      <trkpt lat="52.275490" lon="5.107937">
        <ele>0.002644</ele>
        <time>2026-04-13T18:23:27.034Z</time>
      </trkpt>
      <trkpt lat="52.275620" lon="5.107749">
        <ele>0.062646</ele>
        <time>2026-04-13T18:23:29.931Z</time>
      </trkpt>
      <trkpt lat="52.275716" lon="5.107493">
        <ele>0.126149</ele>
        <time>2026-04-13T18:23:32.928Z</time>
      </trkpt>
      <trkpt lat="52.276006" lon="5.106601">
        <ele>0.213782</ele>
        <time>2026-04-13T18:23:42.268Z</time>
      </trkpt>
      <trkpt lat="52.276299" lon="5.105625">
        <ele>0.022024</ele>
        <time>2026-04-13T18:23:51.275Z</time>
      </trkpt>
      <trkpt lat="52.276867" lon="5.104054">
        <ele>-0.310051</ele>
        <time>2026-04-13T18:24:06.384Z</time>
      </trkpt>
      <trkpt lat="52.277144" lon="5.103493">
        <ele>-0.461983</ele>
        <time>2026-04-13T18:24:12.439Z</time>
      </trkpt>
      <trkpt lat="52.277322" lon="5.103219">
        <ele>-0.546210</ele>
        <time>2026-04-13T18:24:15.778Z</time>
      </trkpt>
      <trkpt lat="52.277507" lon="5.102995">
        <ele>-0.625516</ele>
        <time>2026-04-13T18:24:18.921Z</time>
      </trkpt>
      <trkpt lat="52.277693" lon="5.102756">
        <ele>-0.707015</ele>
        <time>2026-04-13T18:24:22.152Z</time>
      </trkpt>
      <trkpt lat="52.277808" lon="5.102578">
        <ele>-0.761572</ele>
        <time>2026-04-13T18:24:24.303Z</time>
      </trkpt>
      <trkpt lat="52.277848" lon="5.102472">
        <ele>-0.787819</ele>
        <time>2026-04-13T18:24:25.355Z</time>
      </trkpt>
      <trkpt lat="52.278012" lon="5.102515">
        <ele>-0.845032</ele>
        <time>2026-04-13T18:24:27.631Z</time>
      </trkpt>
      <trkpt lat="52.278539" lon="5.102303">
        <ele>-0.994165</ele>
        <time>2026-04-13T18:24:35.181Z</time>
      </trkpt>
      <trkpt lat="52.278826" lon="5.102321">
        <ele>-1.070423</ele>
        <time>2026-04-13T18:24:39.108Z</time>
      </trkpt>
      <trkpt lat="52.279663" lon="5.102172">
        <ele>-1.293970</ele>
        <time>2026-04-13T18:24:50.979Z</time>
      </trkpt>
      <trkpt lat="52.279810" lon="5.102112">
        <ele>-1.334198</ele>
        <time>2026-04-13T18:24:53.094Z</time>
      </trkpt>
      <trkpt lat="52.280445" lon="5.101994">
        <ele>-1.490696</ele>
        <time>2026-04-13T18:25:01.939Z</time>
      </trkpt>
      <trkpt lat="52.280430" lon="5.101898">
        <ele>-1.505459</ele>
        <time>2026-04-13T18:25:02.761Z</time>
      </trkpt>
      <trkpt lat="52.280391" lon="5.101868">
        <ele>-1.515956</ele>
        <time>2026-04-13T18:25:03.342Z</time>
      </trkpt>
      <trkpt lat="52.280297" lon="5.101923">
        <ele>-1.540271</ele>
        <time>2026-04-13T18:25:04.704Z</time>
      </trkpt>
      <trkpt lat="52.279684" lon="5.101922">
        <ele>-1.689558</ele>
        <time>2026-04-13T18:25:13.129Z</time>
      </trkpt>
      <trkpt lat="52.279619" lon="5.101949">
        <ele>-1.705891</ele>
        <time>2026-04-13T18:25:14.053Z</time>
      </trkpt>
      <trkpt lat="52.279559" lon="5.102117">
        <ele>-1.734875</ele>
        <time>2026-04-13T18:25:15.690Z</time>
      </trkpt>
      <trkpt lat="52.279592" lon="5.102631">
        <ele>-1.753686</ele>
        <time>2026-04-13T18:25:20.099Z</time>
      </trkpt>
      <trkpt lat="52.279652" lon="5.102754">
        <ele>-1.730565</ele>
        <time>2026-04-13T18:25:21.520Z</time>
      </trkpt>
      <trkpt lat="52.280504" lon="5.102571">
        <ele>-1.524124</ele>
        <time>2026-04-13T18:25:35.539Z</time>
      </trkpt>
      <trkpt lat="52.280949" lon="5.102416">
        <ele>-1.414819</ele>
        <time>2026-04-13T18:25:43.090Z</time>
      </trkpt>
      <trkpt lat="52.281187" lon="5.102401">
        <ele>-1.357600</ele>
        <time>2026-04-13T18:25:46.961Z</time>
      </trkpt>
      <trkpt lat="52.281449" lon="5.102401">
        <ele>-1.372898</ele>
        <time>2026-04-13T18:25:52.537Z</time>
      </trkpt>
      <trkpt lat="52.281616" lon="5.102399">
        <ele>-1.389005</ele>
        <time>2026-04-13T18:25:56.045Z</time>
      </trkpt>
      <trkpt lat="52.281688" lon="5.102733">
        <ele>-1.409900</ele>
        <time>2026-04-13T18:26:00.505Z</time>
      </trkpt>
      <trkpt lat="52.281688" lon="5.102775">
        <ele>-1.412379</ele>
        <time>2026-04-13T18:26:01.021Z</time>
      </trkpt>
      <trkpt lat="52.280217" lon="5.107446">
        <ele>-2.028295</ele>
        <time>2026-04-13T18:27:02.568Z</time>
      </trkpt>
      <trkpt lat="52.279780" lon="5.108855">
        <ele>-2.106191</ele>
        <time>2026-04-13T18:27:21.683Z</time>
      </trkpt>
      <trkpt lat="52.278544" lon="5.112796">
        <ele>-1.983754</ele>
        <time>2026-04-13T18:28:17.363Z</time>
      </trkpt>
      <trkpt lat="52.277422" lon="5.116415">
        <ele>-1.765662</ele>
        <time>2026-04-13T18:29:08.707Z</time>
      </trkpt>
      <trkpt lat="52.275742" lon="5.121784">
        <ele>-1.718829</ele>
        <time>2026-04-13T18:30:22.843Z</time>
      </trkpt>
      <trkpt lat="52.275139" lon="5.123722">
        <ele>-1.606319</ele>
        <time>2026-04-13T18:30:50.816Z</time>
      </trkpt>
      <trkpt lat="52.275047" lon="5.123938">
        <ele>-1.586065</ele>
        <time>2026-04-13T18:30:54.198Z</time>
      </trkpt>
      <trkpt lat="52.275388" lon="5.125118">
        <ele>-1.485638</ele>
        <time>2026-04-13T18:31:10.719Z</time>
      </trkpt>
      <trkpt lat="52.276639" lon="5.129627">
        <ele>-1.721522</ele>
        <time>2026-04-13T18:32:10.720Z</time>
      </trkpt>
      <trkpt lat="52.277560" lon="5.132896">
        <ele>-1.528990</ele>
        <time>2026-04-13T18:32:55.474Z</time>
      </trkpt>
      <trkpt lat="52.277859" lon="5.134074">
        <ele>-1.350016</ele>
        <time>2026-04-13T18:33:13.051Z</time>
      </trkpt>
      <trkpt lat="52.278000" lon="5.134529">
        <ele>-1.260945</ele>
        <time>2026-04-13T18:33:20.007Z</time>
      </trkpt>
      <trkpt lat="52.278098" lon="5.134753">
        <ele>-1.212855</ele>
        <time>2026-04-13T18:33:23.764Z</time>
      </trkpt>
      <trkpt lat="52.278596" lon="5.136426">
        <ele>-0.929713</ele>
        <time>2026-04-13T18:33:47.116Z</time>
      </trkpt>
      <trkpt lat="52.278784" lon="5.136762">
        <ele>-0.898370</ele>
        <time>2026-04-13T18:33:52.491Z</time>
      </trkpt>
      <trkpt lat="52.279614" lon="5.137874">
        <ele>-0.777624</ele>
        <time>2026-04-13T18:34:14.412Z</time>
      </trkpt>
      <trkpt lat="52.279862" lon="5.138269">
        <ele>-0.681966</ele>
        <time>2026-04-13T18:34:22.052Z</time>
      </trkpt>
      <trkpt lat="52.280813" lon="5.139478">
        <ele>-0.061759</ele>
        <time>2026-04-13T18:34:49.620Z</time>
      </trkpt>
      <trkpt lat="52.281000" lon="5.139665">
        <ele>0.051092</ele>
        <time>2026-04-13T18:34:54.569Z</time>
      </trkpt>
      <trkpt lat="52.281247" lon="5.139913">
        <ele>0.178173</ele>
        <time>2026-04-13T18:35:01.019Z</time>
      </trkpt>
      <trkpt lat="52.282340" lon="5.141215">
        <ele>0.341334</ele>
        <time>2026-04-13T18:35:29.029Z</time>
      </trkpt>
      <trkpt lat="52.282517" lon="5.141348">
        <ele>0.364835</ele>
        <time>2026-04-13T18:35:32.873Z</time>
      </trkpt>
      <trkpt lat="52.283423" lon="5.141766">
        <ele>0.338604</ele>
        <time>2026-04-13T18:35:51.483Z</time>
      </trkpt>
      <trkpt lat="52.284208" lon="5.142047">
        <ele>0.284993</ele>
        <time>2026-04-13T18:36:07.557Z</time>
      </trkpt>
      <trkpt lat="52.284721" lon="5.142267">
        <ele>0.161383</ele>
        <time>2026-04-13T18:36:15.403Z</time>
      </trkpt>
      <trkpt lat="52.285088" lon="5.142555">
        <ele>0.006637</ele>
        <time>2026-04-13T18:36:21.066Z</time>
      </trkpt>
      <trkpt lat="52.285515" lon="5.142659">
        <ele>-0.157467</ele>
        <time>2026-04-13T18:36:26.754Z</time>
      </trkpt>
      <trkpt lat="52.285578" lon="5.142681">
        <ele>-0.181955</ele>
        <time>2026-04-13T18:36:27.581Z</time>
      </trkpt>
      <trkpt lat="52.285612" lon="5.142688">
        <ele>-0.194981</ele>
        <time>2026-04-13T18:36:28.029Z</time>
      </trkpt>
      <trkpt lat="52.286651" lon="5.143002">
        <ele>-0.432307</ele>
        <time>2026-04-13T18:36:41.823Z</time>
      </trkpt>
      <trkpt lat="52.287298" lon="5.143111">
        <ele>-0.455481</ele>
        <time>2026-04-13T18:36:51.260Z</time>
      </trkpt>
      <trkpt lat="52.288800" lon="5.143266">
        <ele>-0.349202</ele>
        <time>2026-04-13T18:37:16.125Z</time>
      </trkpt>
      <trkpt lat="52.288929" lon="5.143177">
        <ele>-0.327337</ele>
        <time>2026-04-13T18:37:18.279Z</time>
      </trkpt>
      <trkpt lat="52.289912" lon="5.143346">
        <ele>-0.216776</ele>
        <time>2026-04-13T18:37:32.813Z</time>
      </trkpt>
      <trkpt lat="52.289992" lon="5.143439">
        <ele>-0.227732</ele>
        <time>2026-04-13T18:37:34.155Z</time>
      </trkpt>
      <trkpt lat="52.290022" lon="5.143516">
        <ele>-0.233964</ele>
        <time>2026-04-13T18:37:34.914Z</time>
      </trkpt>
      <trkpt lat="52.290286" lon="5.144441">
        <ele>-0.303645</ele>
        <time>2026-04-13T18:37:43.571Z</time>
      </trkpt>
      <trkpt lat="52.290786" lon="5.144972">
        <ele>-0.370188</ele>
        <time>2026-04-13T18:37:52.334Z</time>
      </trkpt>
      <trkpt lat="52.291303" lon="5.145554">
        <ele>-0.371749</ele>
        <time>2026-04-13T18:38:01.629Z</time>
      </trkpt>
      <trkpt lat="52.291592" lon="5.145780">
        <ele>-0.347743</ele>
        <time>2026-04-13T18:38:06.410Z</time>
      </trkpt>
      <trkpt lat="52.291656" lon="5.145672">
        <ele>-0.340851</ele>
        <time>2026-04-13T18:38:07.814Z</time>
      </trkpt>
      <trkpt lat="52.292937" lon="5.144797">
        <ele>-0.320584</ele>
        <time>2026-04-13T18:38:29.114Z</time>
      </trkpt>
      <trkpt lat="52.293068" lon="5.144766">
        <ele>-0.340699</ele>
        <time>2026-04-13T18:38:31.109Z</time>
      </trkpt>
      <trkpt lat="52.293161" lon="5.144785">
        <ele>-0.354942</ele>
        <time>2026-04-13T18:38:32.506Z</time>
      </trkpt>
      <trkpt lat="52.293310" lon="5.144920">
        <ele>-0.380829</ele>
        <time>2026-04-13T18:38:34.971Z</time>
      </trkpt>
      <trkpt lat="52.293360" lon="5.144931">
        <ele>-0.388496</ele>
        <time>2026-04-13T18:38:35.715Z</time>
      </trkpt>
      <trkpt lat="52.293414" lon="5.144889">
        <ele>-0.397584</ele>
        <time>2026-04-13T18:38:36.896Z</time>
      </trkpt>
      <trkpt lat="52.293800" lon="5.143910">
        <ele>-0.505846</ele>
        <time>2026-04-13T18:38:50.510Z</time>
      </trkpt>
      <trkpt lat="52.294060" lon="5.143560">
        <ele>-0.559487</ele>
        <time>2026-04-13T18:38:56.833Z</time>
      </trkpt>
      <trkpt lat="52.294200" lon="5.143320">
        <ele>-0.594261</ele>
        <time>2026-04-13T18:39:00.571Z</time>
      </trkpt>
      <trkpt lat="52.294710" lon="5.142260">
        <ele>-0.735667</ele>
        <time>2026-04-13T18:39:16.236Z</time>
      </trkpt>
      <trkpt lat="52.295000" lon="5.141590">
        <ele>-0.821727</ele>
        <time>2026-04-13T18:39:26.584Z</time>
      </trkpt>
      <trkpt lat="52.295195" lon="5.140986">
        <ele>-0.776496</ele>
        <time>2026-04-13T18:39:35.549Z</time>
      </trkpt>
      <trkpt lat="52.297238" lon="5.136643">
        <ele>0.050644</ele>
        <time>2026-04-13T18:40:46.926Z</time>
      </trkpt>
      <trkpt lat="52.298148" lon="5.134709">
        <ele>0.094459</ele>
        <time>2026-04-13T18:41:17.552Z</time>
      </trkpt>
      <trkpt lat="52.298387" lon="5.134262">
        <ele>0.072698</ele>
        <time>2026-04-13T18:41:24.612Z</time>
      </trkpt>
      <trkpt lat="52.298594" lon="5.133960">
        <ele>-0.024231</ele>
        <time>2026-04-13T18:41:29.916Z</time>
      </trkpt>
      <trkpt lat="52.301685" lon="5.130072">
        <ele>-1.436785</ele>
        <time>2026-04-13T18:42:43.028Z</time>
      </trkpt>
      <trkpt lat="52.302500" lon="5.128840">
        <ele>-1.659432</ele>
        <time>2026-04-13T18:43:05.509Z</time>
      </trkpt>
      <trkpt lat="52.302580" lon="5.128670">
        <ele>-1.689961</ele>
        <time>2026-04-13T18:43:08.094Z</time>
      </trkpt>
      <trkpt lat="52.302670" lon="5.128320">
        <ele>-1.745616</ele>
        <time>2026-04-13T18:43:12.582Z</time>
      </trkpt>
      <trkpt lat="52.302828" lon="5.127281">
        <ele>-1.902555</ele>
        <time>2026-04-13T18:43:24.996Z</time>
      </trkpt>
      <trkpt lat="52.302899" lon="5.127000">
        <ele>-1.947122</ele>
        <time>2026-04-13T18:43:28.513Z</time>
      </trkpt>
      <trkpt lat="52.303062" lon="5.126654">
        <ele>-2.011146</ele>
        <time>2026-04-13T18:43:33.570Z</time>
      </trkpt>
      <trkpt lat="52.303520" lon="5.126160">
        <ele>-2.078936</ele>
        <time>2026-04-13T18:43:44.291Z</time>
      </trkpt>
      <trkpt lat="52.304500" lon="5.125310">
        <ele>-1.987162</ele>
        <time>2026-04-13T18:44:07.544Z</time>
      </trkpt>
      <trkpt lat="52.305248" lon="5.124578">
        <ele>-1.916321</ele>
        <time>2026-04-13T18:44:25.499Z</time>
      </trkpt>
      <trkpt lat="52.305952" lon="5.123776">
        <ele>-1.848221</ele>
        <time>2026-04-13T18:44:43.304Z</time>
      </trkpt>
      <trkpt lat="52.306337" lon="5.123356">
        <ele>-1.811487</ele>
        <time>2026-04-13T18:44:52.739Z</time>
      </trkpt>
      <trkpt lat="52.306882" lon="5.122775">
        <ele>-1.848782</ele>
        <time>2026-04-13T18:45:05.863Z</time>
      </trkpt>
      <trkpt lat="52.307263" lon="5.122416">
        <ele>-1.884640</ele>
        <time>2026-04-13T18:45:14.572Z</time>
      </trkpt>
      <trkpt lat="52.307843" lon="5.121757">
        <ele>-1.942231</ele>
        <time>2026-04-13T18:45:28.225Z</time>
      </trkpt>
      <trkpt lat="52.308924" lon="5.120201">
        <ele>-1.823278</ele>
        <time>2026-04-13T18:45:57.389Z</time>
      </trkpt>
      <trkpt lat="52.309054" lon="5.120094">
        <ele>-1.809472</ele>
        <time>2026-04-13T18:46:00.434Z</time>
      </trkpt>
      <trkpt lat="52.309934" lon="5.119557">
        <ele>-1.293388</ele>
        <time>2026-04-13T18:46:21.145Z</time>
      </trkpt>
      <trkpt lat="52.310034" lon="5.119460">
        <ele>-1.203069</ele>
        <time>2026-04-13T18:46:23.203Z</time>
      </trkpt>
      <trkpt lat="52.310085" lon="5.119360">
        <ele>-1.141218</ele>
        <time>2026-04-13T18:46:24.645Z</time>
      </trkpt>
      <trkpt lat="52.310633" lon="5.117926">
        <ele>-0.344450</ele>
        <time>2026-04-13T18:46:44.421Z</time>
      </trkpt>
      <trkpt lat="52.311038" lon="5.116533">
        <ele>0.282305</ele>
        <time>2026-04-13T18:47:01.862Z</time>
      </trkpt>
      <trkpt lat="52.311279" lon="5.115723">
        <ele>0.648332</ele>
        <time>2026-04-13T18:47:13.990Z</time>
      </trkpt>
      <trkpt lat="52.312118" lon="5.113320">
        <ele>0.743964</ele>
        <time>2026-04-13T18:47:48.044Z</time>
      </trkpt>
      <trkpt lat="52.312893" lon="5.110874">
        <ele>0.530474</ele>
        <time>2026-04-13T18:48:21.080Z</time>
      </trkpt>
      <trkpt lat="52.313010" lon="5.110337">
        <ele>0.478956</ele>
        <time>2026-04-13T18:48:27.843Z</time>
      </trkpt>
      <trkpt lat="52.313080" lon="5.109839">
        <ele>0.432757</ele>
        <time>2026-04-13T18:48:34.024Z</time>
      </trkpt>
      <trkpt lat="52.313121" lon="5.109143">
        <ele>0.369521</ele>
        <time>2026-04-13T18:48:42.584Z</time>
      </trkpt>
      <trkpt lat="52.313103" lon="5.108466">
        <ele>0.308236</ele>
        <time>2026-04-13T18:48:50.997Z</time>
      </trkpt>
      <trkpt lat="52.313005" lon="5.107647">
        <ele>0.232762</ele>
        <time>2026-04-13T18:49:01.080Z</time>
      </trkpt>
      <trkpt lat="52.312806" lon="5.106813">
        <ele>-0.055028</ele>
        <time>2026-04-13T18:49:11.489Z</time>
      </trkpt>
      <trkpt lat="52.311788" lon="5.103803">
        <ele>-1.448544</ele>
        <time>2026-04-13T18:49:47.928Z</time>
      </trkpt>
      <trkpt lat="52.310999" lon="5.101746">
        <ele>-1.604821</ele>
        <time>2026-04-13T18:50:19.235Z</time>
      </trkpt>
      <trkpt lat="52.310715" lon="5.101050">
        <ele>-1.499726</ele>
        <time>2026-04-13T18:50:30.693Z</time>
      </trkpt>
      <trkpt lat="52.310471" lon="5.100597">
        <ele>-1.423900</ele>
        <time>2026-04-13T18:50:38.684Z</time>
      </trkpt>
      <trkpt lat="52.310422" lon="5.100512">
        <ele>-1.409227</ele>
        <time>2026-04-13T18:50:40.227Z</time>
      </trkpt>
      <trkpt lat="52.310375" lon="5.100426">
        <ele>-1.394739</ele>
        <time>2026-04-13T18:50:41.727Z</time>
      </trkpt>
      <trkpt lat="52.310188" lon="5.100109">
        <ele>-1.339413</ele>
        <time>2026-04-13T18:50:47.372Z</time>
      </trkpt>
      <trkpt lat="52.310021" lon="5.099635">
        <ele>-1.333946</ele>
        <time>2026-04-13T18:50:53.768Z</time>
      </trkpt>
      <trkpt lat="52.309799" lon="5.099282">
        <ele>-1.447091</ele>
        <time>2026-04-13T18:50:59.414Z</time>
      </trkpt>
      <trkpt lat="52.309588" lon="5.098657">
        <ele>-1.606607</ele>
        <time>2026-04-13T18:51:07.494Z</time>
      </trkpt>
      <trkpt lat="52.309275" lon="5.097888">
        <ele>-1.813014</ele>
        <time>2026-04-13T18:51:18.108Z</time>
      </trkpt>
      <trkpt lat="52.308953" lon="5.097142">
        <ele>-1.983748</ele>
        <time>2026-04-13T18:51:28.833Z</time>
      </trkpt>
      <trkpt lat="52.308736" lon="5.096713">
        <ele>-2.045668</ele>
        <time>2026-04-13T18:51:35.452Z</time>
      </trkpt>
      <trkpt lat="52.308660" lon="5.096411">
        <ele>-2.081986</ele>
        <time>2026-04-13T18:51:39.355Z</time>
      </trkpt>
      <trkpt lat="52.308628" lon="5.096138">
        <ele>-2.112899</ele>
        <time>2026-04-13T18:51:42.685Z</time>
      </trkpt>
      <trkpt lat="52.308626" lon="5.096121">
        <ele>-2.114825</ele>
        <time>2026-04-13T18:51:42.893Z</time>
      </trkpt>
      <trkpt lat="52.308570" lon="5.095980">
        <ele>-2.133523</ele>
        <time>2026-04-13T18:51:44.904Z</time>
      </trkpt>
      <trkpt lat="52.308376" lon="5.095666">
        <ele>-2.183167</ele>
        <time>2026-04-13T18:51:50.272Z</time>
      </trkpt>
      <trkpt lat="52.307900" lon="5.095180">
        <ele>-2.282811</ele>
        <time>2026-04-13T18:52:01.430Z</time>
      </trkpt>
      <trkpt lat="52.307610" lon="5.094990">
        <ele>-2.320846</ele>
        <time>2026-04-13T18:52:07.661Z</time>
      </trkpt>
      <trkpt lat="52.307100" lon="5.094570">
        <ele>-2.390366</ele>
        <time>2026-04-13T18:52:19.007Z</time>
      </trkpt>
      <trkpt lat="52.306749" lon="5.094398">
        <ele>-2.434977</ele>
        <time>2026-04-13T18:52:26.209Z</time>
      </trkpt>
      <trkpt lat="52.306588" lon="5.094250">
        <ele>-2.457463</ele>
        <time>2026-04-13T18:52:29.814Z</time>
      </trkpt>
      <trkpt lat="52.306360" lon="5.093860">
        <ele>-2.497103</ele>
        <time>2026-04-13T18:52:36.184Z</time>
      </trkpt>
      <trkpt lat="52.306100" lon="5.093328">
        <ele>-2.511468</ele>
        <time>2026-04-13T18:52:44.217Z</time>
      </trkpt>
      <trkpt lat="52.305756" lon="5.092794">
        <ele>-2.527828</ele>
        <time>2026-04-13T18:52:53.738Z</time>
      </trkpt>
      <trkpt lat="52.305466" lon="5.092435">
        <ele>-2.540374</ele>
        <time>2026-04-13T18:53:01.081Z</time>
      </trkpt>
      <trkpt lat="52.305419" lon="5.092315">
        <ele>-2.543380</ele>
        <time>2026-04-13T18:53:02.873Z</time>
      </trkpt>
      <trkpt lat="52.305389" lon="5.092036">
        <ele>-2.549355</ele>
        <time>2026-04-13T18:53:06.420Z</time>
      </trkpt>
      <trkpt lat="52.305123" lon="5.091643">
        <ele>-2.559658</ele>
        <time>2026-04-13T18:53:13.915Z</time>
      </trkpt>
      <trkpt lat="52.304933" lon="5.091415">
        <ele>-2.561759</ele>
        <time>2026-04-13T18:53:18.971Z</time>
      </trkpt>
      <trkpt lat="52.304540" lon="5.091250">
        <ele>-2.565378</ele>
        <time>2026-04-13T18:53:27.377Z</time>
      </trkpt>
      <trkpt lat="52.304468" lon="5.091092">
        <ele>-2.566452</ele>
        <time>2026-04-13T18:53:29.771Z</time>
      </trkpt>
      <trkpt lat="52.304402" lon="5.090814">
        <ele>-2.568078</ele>
        <time>2026-04-13T18:53:33.356Z</time>
      </trkpt>
      <trkpt lat="52.304267" lon="5.090585">
        <ele>-2.569813</ele>
        <time>2026-04-13T18:53:37.164Z</time>
      </trkpt>
      <trkpt lat="52.304055" lon="5.090339">
        <ele>-2.572131</ele>
        <time>2026-04-13T18:53:42.201Z</time>
      </trkpt>
      <trkpt lat="52.303686" lon="5.090180">
        <ele>-2.573100</ele>
        <time>2026-04-13T18:53:49.696Z</time>
      </trkpt>
      <trkpt lat="52.302750" lon="5.089636">
        <ele>-2.543140</ele>
        <time>2026-04-13T18:54:09.820Z</time>
      </trkpt>
      <trkpt lat="52.302317" lon="5.089650">
        <ele>-2.530078</ele>
        <time>2026-04-13T18:54:19.069Z</time>
      </trkpt>
      <trkpt lat="52.301171" lon="5.089384">
        <ele>-2.470074</ele>
        <time>2026-04-13T18:54:42.603Z</time>
      </trkpt>
      <trkpt lat="52.300307" lon="5.089423">
        <ele>-2.418416</ele>
        <time>2026-04-13T18:54:59.919Z</time>
      </trkpt>
      <trkpt lat="52.299967" lon="5.089523">
        <ele>-2.348425</ele>
        <time>2026-04-13T18:55:07.292Z</time>
      </trkpt>
      <trkpt lat="52.299862" lon="5.089506">
        <ele>-2.321994</ele>
        <time>2026-04-13T18:55:09.632Z</time>
      </trkpt>
      <trkpt lat="52.299588" lon="5.089090">
        <ele>-2.228336</ele>
        <time>2026-04-13T18:55:17.986Z</time>
      </trkpt>
      <trkpt lat="52.299358" lon="5.088911">
        <ele>-2.164529</ele>
        <time>2026-04-13T18:55:23.443Z</time>
      </trkpt>
      <trkpt lat="52.299072" lon="5.088774">
        <ele>-2.089876</ele>
        <time>2026-04-13T18:55:29.782Z</time>
      </trkpt>
      <trkpt lat="52.298922" lon="5.088702">
        <ele>-2.050716</ele>
        <time>2026-04-13T18:55:33.064Z</time>
      </trkpt>
      <trkpt lat="52.298831" lon="5.088645">
        <ele>-2.026305</ele>
        <time>2026-04-13T18:55:35.122Z</time>
      </trkpt>
      <trkpt lat="52.298518" lon="5.088185">
        <ele>-1.956067</ele>
        <time>2026-04-13T18:55:43.894Z</time>
      </trkpt>
      <trkpt lat="52.298459" lon="5.088101">
        <ele>-1.952967</ele>
        <time>2026-04-13T18:55:45.457Z</time>
      </trkpt>
      <trkpt lat="52.297766" lon="5.087482">
        <ele>-1.921683</ele>
        <time>2026-04-13T18:55:56.725Z</time>
      </trkpt>
      <trkpt lat="52.297382" lon="5.087053">
        <ele>-1.903257</ele>
        <time>2026-04-13T18:56:03.664Z</time>
      </trkpt>
      <trkpt lat="52.297140" lon="5.086639">
        <ele>-1.867432</ele>
        <time>2026-04-13T18:56:09.151Z</time>
      </trkpt>
      <trkpt lat="52.296925" lon="5.086202">
        <ele>-1.707299</ele>
        <time>2026-04-13T18:56:14.586Z</time>
      </trkpt>
      <trkpt lat="52.296814" lon="5.085897">
        <ele>-1.605964</ele>
        <time>2026-04-13T18:56:18.026Z</time>
      </trkpt>
      <trkpt lat="52.296758" lon="5.085634">
        <ele>-1.526452</ele>
        <time>2026-04-13T18:56:20.819Z</time>
      </trkpt>
      <trkpt lat="52.296641" lon="5.084790">
        <ele>-1.279362</ele>
        <time>2026-04-13T18:56:30.057Z</time>
      </trkpt>
      <trkpt lat="52.296492" lon="5.084069">
        <ele>-1.062069</ele>
        <time>2026-04-13T18:56:38.278Z</time>
      </trkpt>
      <trkpt lat="52.296447" lon="5.083835">
        <ele>-1.027605</ele>
        <time>2026-04-13T18:56:40.856Z</time>
      </trkpt>
      <trkpt lat="52.296324" lon="5.082727">
        <ele>-0.897749</ele>
        <time>2026-04-13T18:56:52.268Z</time>
      </trkpt>
      <trkpt lat="52.296492" lon="5.082518">
        <ele>-0.857946</ele>
        <time>2026-04-13T18:56:55.621Z</time>
      </trkpt>
      <trkpt lat="52.296774" lon="5.081681">
        <ele>-0.747751</ele>
        <time>2026-04-13T18:57:04.308Z</time>
      </trkpt>
      <trkpt lat="52.296960" lon="5.081210">
        <ele>-0.750786</ele>
        <time>2026-04-13T18:57:09.053Z</time>
      </trkpt>
      <trkpt lat="52.297089" lon="5.080952">
        <ele>-0.800628</ele>
        <time>2026-04-13T18:57:11.851Z</time>
      </trkpt>
      <trkpt lat="52.297833" lon="5.080040">
        <ele>-1.028024</ele>
        <time>2026-04-13T18:57:24.526Z</time>
      </trkpt>
      <trkpt lat="52.298005" lon="5.079777">
        <ele>-1.085613</ele>
        <time>2026-04-13T18:57:27.764Z</time>
      </trkpt>
      <trkpt lat="52.298119" lon="5.079426">
        <ele>-1.145051</ele>
        <time>2026-04-13T18:57:31.186Z</time>
      </trkpt>
      <trkpt lat="52.298173" lon="5.078808">
        <ele>-1.081667</ele>
        <time>2026-04-13T18:57:36.779Z</time>
      </trkpt>
      <trkpt lat="52.298219" lon="5.078609">
        <ele>-1.055483</ele>
        <time>2026-04-13T18:57:38.733Z</time>
      </trkpt>
      <trkpt lat="52.298304" lon="5.078398">
        <ele>-1.024386</ele>
        <time>2026-04-13T18:57:41.078Z</time>
      </trkpt>
      <trkpt lat="52.298553" lon="5.078014">
        <ele>-0.955502</ele>
        <time>2026-04-13T18:57:46.475Z</time>
      </trkpt>
      <trkpt lat="52.298703" lon="5.077708">
        <ele>-0.907234</ele>
        <time>2026-04-13T18:57:50.453Z</time>
      </trkpt>
      <trkpt lat="52.298819" lon="5.077340">
        <ele>-0.856279</ele>
        <time>2026-04-13T18:57:54.608Z</time>
      </trkpt>
      <trkpt lat="52.298885" lon="5.077014">
        <ele>-0.814014</ele>
        <time>2026-04-13T18:57:58.075Z</time>
      </trkpt>
      <trkpt lat="52.298921" lon="5.076676">
        <ele>-0.775479</ele>
        <time>2026-04-13T18:58:01.520Z</time>
      </trkpt>
      <trkpt lat="52.298920" lon="5.076451">
        <ele>-0.753266</ele>
        <time>2026-04-13T18:58:03.772Z</time>
      </trkpt>
      <trkpt lat="52.298893" lon="5.076201">
        <ele>-0.728203</ele>
        <time>2026-04-13T18:58:06.287Z</time>
      </trkpt>
      <trkpt lat="52.298759" lon="5.075779">
        <ele>-0.681260</ele>
        <time>2026-04-13T18:58:10.807Z</time>
      </trkpt>
      <trkpt lat="52.298586" lon="5.075451">
        <ele>-0.638498</ele>
        <time>2026-04-13T18:58:14.845Z</time>
      </trkpt>
      <trkpt lat="52.297936" lon="5.074376">
        <ele>-0.494325</ele>
        <time>2026-04-13T18:58:28.605Z</time>
      </trkpt>
      <trkpt lat="52.297262" lon="5.072411">
        <ele>-0.376103</ele>
        <time>2026-04-13T18:58:49.970Z</time>
      </trkpt>
      <trkpt lat="52.297193" lon="5.072153">
        <ele>-0.361326</ele>
        <time>2026-04-13T18:58:52.565Z</time>
      </trkpt>
      <trkpt lat="52.297157" lon="5.071872">
        <ele>-0.346261</ele>
        <time>2026-04-13T18:58:55.172Z</time>
      </trkpt>
      <trkpt lat="52.297201" lon="5.070760">
        <ele>-0.440086</ele>
        <time>2026-04-13T18:59:04.957Z</time>
      </trkpt>
      <trkpt lat="52.297100" lon="5.067860">
        <ele>-0.722346</ele>
        <time>2026-04-13T18:59:29.980Z</time>
      </trkpt>
      <trkpt lat="52.297060" lon="5.067660">
        <ele>-0.747051</ele>
        <time>2026-04-13T18:59:31.818Z</time>
      </trkpt>
      <trkpt lat="52.297060" lon="5.067430">
        <ele>-0.774054</ele>
        <time>2026-04-13T18:59:33.802Z</time>
      </trkpt>
      <trkpt lat="52.296923" lon="5.066806">
        <ele>-0.851892</ele>
        <time>2026-04-13T18:59:39.450Z</time>
      </trkpt>
      <trkpt lat="52.296790" lon="5.066260">
        <ele>-0.920893</ele>
        <time>2026-04-13T18:59:44.580Z</time>
      </trkpt>
      <trkpt lat="52.296629" lon="5.065423">
        <ele>-0.869660</ele>
        <time>2026-04-13T18:59:52.403Z</time>
      </trkpt>
      <trkpt lat="52.296370" lon="5.063680">
        <ele>-0.682583</ele>
        <time>2026-04-13T19:00:09.306Z</time>
      </trkpt>
      <trkpt lat="52.296340" lon="5.063280">
        <ele>-0.640552</ele>
        <time>2026-04-13T19:00:13.523Z</time>
      </trkpt>
      <trkpt lat="52.296380" lon="5.062990">
        <ele>-0.607028</ele>
        <time>2026-04-13T19:00:16.604Z</time>
      </trkpt>
      <trkpt lat="52.296440" lon="5.062750">
        <ele>-0.577360</ele>
        <time>2026-04-13T19:00:19.266Z</time>
      </trkpt>
      <trkpt lat="52.296520" lon="5.062530">
        <ele>-0.548074</ele>
        <time>2026-04-13T19:00:21.862Z</time>
      </trkpt>
      <trkpt lat="52.296790" lon="5.062090">
        <ele>-0.476754</ele>
        <time>2026-04-13T19:00:28.060Z</time>
      </trkpt>
      <trkpt lat="52.297200" lon="5.061760">
        <ele>-0.391255</ele>
        <time>2026-04-13T19:00:35.120Z</time>
      </trkpt>
      <trkpt lat="52.297610" lon="5.061550">
        <ele>-0.310871</ele>
        <time>2026-04-13T19:00:41.418Z</time>
      </trkpt>
      <trkpt lat="52.297810" lon="5.061410">
        <ele>-0.323665</ele>
        <time>2026-04-13T19:00:44.561Z</time>
      </trkpt>
      <trkpt lat="52.298380" lon="5.060870">
        <ele>-0.429331</ele>
        <time>2026-04-13T19:00:54.006Z</time>
      </trkpt>
      <trkpt lat="52.299320" lon="5.059510">
        <ele>-0.608354</ele>
        <time>2026-04-13T19:01:11.756Z</time>
      </trkpt>
      <trkpt lat="52.299580" lon="5.059018">
        <ele>-0.639195</ele>
        <time>2026-04-13T19:01:17.039Z</time>
      </trkpt>
      <trkpt lat="52.299904" lon="5.058298">
        <ele>-0.681592</ele>
        <time>2026-04-13T19:01:25.053Z</time>
      </trkpt>
      <trkpt lat="52.299987" lon="5.058048">
        <ele>-0.695084</ele>
        <time>2026-04-13T19:01:27.716Z</time>
      </trkpt>
      <trkpt lat="52.300037" lon="5.057896">
        <ele>-0.703270</ele>
        <time>2026-04-13T19:01:29.372Z</time>
      </trkpt>
      <trkpt lat="52.300072" lon="5.057651">
        <ele>-0.715203</ele>
        <time>2026-04-13T19:01:31.716Z</time>
      </trkpt>
      <trkpt lat="52.300071" lon="5.056685">
        <ele>-0.619930</ele>
        <time>2026-04-13T19:01:40.857Z</time>
      </trkpt>
      <trkpt lat="52.300096" lon="5.056338">
        <ele>-0.567825</ele>
        <time>2026-04-13T19:01:44.332Z</time>
      </trkpt>
      <trkpt lat="52.300151" lon="5.055859">
        <ele>-0.495145</ele>
        <time>2026-04-13T19:01:49.574Z</time>
      </trkpt>
      <trkpt lat="52.300219" lon="5.055477">
        <ele>-0.435813</ele>
        <time>2026-04-13T19:01:53.617Z</time>
      </trkpt>
      <trkpt lat="52.300327" lon="5.055129">
        <ele>-0.377617</ele>
        <time>2026-04-13T19:01:57.349Z</time>
      </trkpt>
      <trkpt lat="52.300463" lon="5.054886">
        <ele>-0.328493</ele>
        <time>2026-04-13T19:02:00.284Z</time>
      </trkpt>
      <trkpt lat="52.300587" lon="5.054738">
        <ele>-0.291057</ele>
        <time>2026-04-13T19:02:02.482Z</time>
      </trkpt>
      <trkpt lat="52.301350" lon="5.054220">
        <ele>-0.341373</ele>
        <time>2026-04-13T19:02:14.428Z</time>
      </trkpt>
      <trkpt lat="52.301920" lon="5.054170">
        <ele>-0.378504</ele>
        <time>2026-04-13T19:02:22.723Z</time>
      </trkpt>
      <trkpt lat="52.302590" lon="5.053940">
        <ele>-0.442250</ele>
        <time>2026-04-13T19:02:32.777Z</time>
      </trkpt>
      <trkpt lat="52.303210" lon="5.053630">
        <ele>-0.530249</ele>
        <time>2026-04-13T19:02:42.007Z</time>
      </trkpt>
      <trkpt lat="52.303390" lon="5.053490">
        <ele>-0.557304</ele>
        <time>2026-04-13T19:02:44.835Z</time>
      </trkpt>
      <trkpt lat="52.303660" lon="5.053160">
        <ele>-0.603055</ele>
        <time>2026-04-13T19:02:49.632Z</time>
      </trkpt>
      <trkpt lat="52.303800" lon="5.052940">
        <ele>-0.629408</ele>
        <time>2026-04-13T19:02:52.407Z</time>
      </trkpt>
      <trkpt lat="52.303940" lon="5.052640">
        <ele>-0.666306</ele>
        <time>2026-04-13T19:02:55.706Z</time>
      </trkpt>
      <trkpt lat="52.304440" lon="5.051300">
        <ele>-0.861207</ele>
        <time>2026-04-13T19:03:09.362Z</time>
      </trkpt>
      <trkpt lat="52.305059" lon="5.050096">
        <ele>-1.019422</ele>
        <time>2026-04-13T19:03:22.647Z</time>
      </trkpt>
      <trkpt lat="52.305160" lon="5.049900">
        <ele>-1.023018</ele>
        <time>2026-04-13T19:03:25.646Z</time>
      </trkpt>
      <trkpt lat="52.305490" lon="5.049610">
        <ele>-1.031614</ele>
        <time>2026-04-13T19:03:32.941Z</time>
      </trkpt>
      <trkpt lat="52.305660" lon="5.049540">
        <ele>-1.035636</ele>
        <time>2026-04-13T19:03:36.414Z</time>
      </trkpt>
      <trkpt lat="52.305930" lon="5.049340">
        <ele>-1.042438</ele>
        <time>2026-04-13T19:03:42.394Z</time>
      </trkpt>
      <trkpt lat="52.306350" lon="5.048970">
        <ele>-1.053384</ele>
        <time>2026-04-13T19:03:52.453Z</time>
      </trkpt>
      <trkpt lat="52.306485" lon="5.048929">
        <ele>-1.049324</ele>
        <time>2026-04-13T19:03:55.388Z</time>
      </trkpt>
      <trkpt lat="52.306662" lon="5.048959">
        <ele>-1.001459</ele>
        <time>2026-04-13T19:03:59.209Z</time>
      </trkpt>
      <trkpt lat="52.307013" lon="5.049384">
        <ele>-0.883987</ele>
        <time>2026-04-13T19:04:08.638Z</time>
      </trkpt>
      <trkpt lat="52.307124" lon="5.049469">
        <ele>-0.851019</ele>
        <time>2026-04-13T19:04:11.260Z</time>
      </trkpt>
      <trkpt lat="52.307244" lon="5.049508">
        <ele>-0.818110</ele>
        <time>2026-04-13T19:04:13.869Z</time>
      </trkpt>
      <trkpt lat="52.307431" lon="5.049478">
        <ele>-0.767568</ele>
        <time>2026-04-13T19:04:17.852Z</time>
      </trkpt>
      <trkpt lat="52.307617" lon="5.049332">
        <ele>-0.712074</ele>
        <time>2026-04-13T19:04:22.223Z</time>
      </trkpt>
      <trkpt lat="52.307709" lon="5.049182">
        <ele>-0.677131</ele>
        <time>2026-04-13T19:04:24.944Z</time>
      </trkpt>
      <trkpt lat="52.308321" lon="5.047322">
        <ele>-0.126153</ele>
        <time>2026-04-13T19:04:52.802Z</time>
      </trkpt>
      <trkpt lat="52.308275" lon="5.047289">
        <ele>-0.101294</ele>
        <time>2026-04-13T19:04:53.904Z</time>
      </trkpt>
      <trkpt lat="52.308215" lon="5.047220">
        <ele>-0.064994</ele>
        <time>2026-04-13T19:04:55.553Z</time>
      </trkpt>
      <trkpt lat="52.307958" lon="5.046684">
        <ele>0.141118</ele>
        <time>2026-04-13T19:05:04.954Z</time>
      </trkpt>
      <trkpt lat="52.307971" lon="5.046506">
        <ele>0.195362</ele>
        <time>2026-04-13T19:05:07.473Z</time>
      </trkpt>
      <trkpt lat="52.307924" lon="5.046422">
        <ele>0.229817</ele>
        <time>2026-04-13T19:05:09.134Z</time>
      </trkpt>
      <trkpt lat="52.307823" lon="5.046384">
        <ele>0.281107</ele>
        <time>2026-04-13T19:05:11.510Z</time>
      </trkpt>
      <trkpt lat="52.307545" lon="5.046367">
        <ele>0.477838</ele>
        <time>2026-04-13T19:05:17.907Z</time>
      </trkpt>
      <trkpt lat="52.307416" lon="5.046252">
        <ele>0.593147</ele>
        <time>2026-04-13T19:05:21.351Z</time>
      </trkpt>
      <trkpt lat="52.307325" lon="5.045997">
        <ele>0.734833</ele>
        <time>2026-04-13T19:05:25.701Z</time>
      </trkpt>
      <trkpt lat="52.307306" lon="5.045578">
        <ele>0.936453</ele>
        <time>2026-04-13T19:05:31.714Z</time>
      </trkpt>
      <trkpt lat="52.307309" lon="5.045400">
        <ele>1.021903</ele>
        <time>2026-04-13T19:05:34.272Z</time>
      </trkpt>
      <trkpt lat="52.307257" lon="5.045244">
        <ele>1.107166</ele>
        <time>2026-04-13T19:05:36.749Z</time>
      </trkpt>
      <trkpt lat="52.307005" lon="5.044795">
        <ele>1.399642</ele>
        <time>2026-04-13T19:05:43.656Z</time>
      </trkpt>
      <trkpt lat="52.306921" lon="5.044643">
        <ele>1.497963</ele>
        <time>2026-04-13T19:05:46.748Z</time>
      </trkpt>
      <trkpt lat="52.307343" lon="5.044020">
        <ele>1.759446</ele>
        <time>2026-04-13T19:05:59.921Z</time>
      </trkpt>
      <trkpt lat="52.307615" lon="5.043677">
        <ele>1.796893</ele>
        <time>2026-04-13T19:06:07.204Z</time>
      </trkpt>
      <trkpt lat="52.307997" lon="5.043338">
        <ele>1.844279</ele>
        <time>2026-04-13T19:06:16.094Z</time>
      </trkpt>
      <trkpt lat="52.308476" lon="5.042988">
        <ele>1.901478</ele>
        <time>2026-04-13T19:06:26.724Z</time>
      </trkpt>
      <trkpt lat="52.308696" lon="5.042906">
        <ele>1.925101</ele>
        <time>2026-04-13T19:06:30.970Z</time>
      </trkpt>
      <trkpt lat="52.308720" lon="5.042903">
        <ele>1.919845</ele>
        <time>2026-04-13T19:06:31.408Z</time>
      </trkpt>
      <trkpt lat="52.308907" lon="5.042840">
        <ele>1.878148</ele>
        <time>2026-04-13T19:06:34.882Z</time>
      </trkpt>
      <trkpt lat="52.308971" lon="5.042818">
        <ele>1.863866</ele>
        <time>2026-04-13T19:06:36.064Z</time>
      </trkpt>
      <trkpt lat="52.309071" lon="5.042779">
        <ele>1.841414</ele>
        <time>2026-04-13T19:06:37.391Z</time>
      </trkpt>
      <trkpt lat="52.309162" lon="5.042747">
        <ele>1.821087</ele>
        <time>2026-04-13T19:06:39.063Z</time>
      </trkpt>
      <trkpt lat="52.309126" lon="5.042415">
        <ele>1.776065</ele>
        <time>2026-04-13T19:06:42.961Z</time>
      </trkpt>
      <trkpt lat="52.308999" lon="5.041366">
        <ele>1.633278</ele>
        <time>2026-04-13T19:06:55.862Z</time>
      </trkpt>
      <trkpt lat="52.308926" lon="5.040881">
        <ele>1.566585</ele>
        <time>2026-04-13T19:07:01.946Z</time>
      </trkpt>
      <trkpt lat="52.308895" lon="5.040677">
        <ele>1.538517</ele>
        <time>2026-04-13T19:07:04.562Z</time>
      </trkpt>
      <trkpt lat="52.308698" lon="5.039396">
        <ele>1.418817</ele>
        <time>2026-04-13T19:07:20.608Z</time>
      </trkpt>
      <trkpt lat="52.308675" lon="5.039284">
        <ele>1.408275</ele>
        <time>2026-04-13T19:07:22.105Z</time>
      </trkpt>
      <trkpt lat="52.308682" lon="5.039046">
        <ele>1.387016</ele>
        <time>2026-04-13T19:07:24.988Z</time>
      </trkpt>
      <trkpt lat="52.308975" lon="5.037167">
        <ele>1.186746</ele>
        <time>2026-04-13T19:07:47.856Z</time>
      </trkpt>
      <trkpt lat="52.308892" lon="5.037116">
        <ele>1.167562</ele>
        <time>2026-04-13T19:07:49.456Z</time>
      </trkpt>
      <trkpt lat="52.308822" lon="5.036674">
        <ele>1.107163</ele>
        <time>2026-04-13T19:07:54.685Z</time>
      </trkpt>
      <trkpt lat="52.308767" lon="5.036408">
        <ele>1.070018</ele>
        <time>2026-04-13T19:07:57.971Z</time>
      </trkpt>
      <trkpt lat="52.308732" lon="5.036237">
        <ele>1.046163</ele>
        <time>2026-04-13T19:08:00.147Z</time>
      </trkpt>
      <trkpt lat="52.308685" lon="5.035926">
        <ele>1.003784</ele>
        <time>2026-04-13T19:08:03.997Z</time>
      </trkpt>
      <trkpt lat="52.308635" lon="5.035515">
        <ele>0.948349</ele>
        <time>2026-04-13T19:08:09.171Z</time>
      </trkpt>
      <trkpt lat="52.308583" lon="5.035536">
        <ele>0.936761</ele>
        <time>2026-04-13T19:08:09.961Z</time>
      </trkpt>
      <trkpt lat="52.308429" lon="5.035609">
        <ele>0.902070</ele>
        <time>2026-04-13T19:08:12.328Z</time>
      </trkpt>
      <trkpt lat="52.308324" lon="5.035653">
        <ele>0.880227</ele>
        <time>2026-04-13T19:08:13.958Z</time>
      </trkpt>
      <trkpt lat="52.308297" lon="5.035482">
        <ele>0.870796</ele>
        <time>2026-04-13T19:08:16.082Z</time>
      </trkpt>
      <trkpt lat="52.308231" lon="5.035095">
        <ele>0.849339</ele>
        <time>2026-04-13T19:08:20.992Z</time>
      </trkpt>
      <trkpt lat="52.308082" lon="5.034434">
        <ele>0.811716</ele>
        <time>2026-04-13T19:08:29.906Z</time>
      </trkpt>
      <trkpt lat="52.307833" lon="5.033554">
        <ele>0.759932</ele>
        <time>2026-04-13T19:08:42.025Z</time>
      </trkpt>
      <trkpt lat="52.307746" lon="5.033117">
        <ele>0.735388</ele>
        <time>2026-04-13T19:08:47.428Z</time>
      </trkpt>
      <trkpt lat="52.307687" lon="5.032677">
        <ele>0.665154</ele>
        <time>2026-04-13T19:08:52.601Z</time>
      </trkpt>
      <trkpt lat="52.307643" lon="5.031674">
        <ele>0.418947</ele>
        <time>2026-04-13T19:09:03.954Z</time>
      </trkpt>
      <trkpt lat="52.307631" lon="5.031364">
        <ele>0.342895</ele>
        <time>2026-04-13T19:09:07.423Z</time>
      </trkpt>
      <trkpt lat="52.307663" lon="5.029542">
        <ele>-0.043613</ele>
        <time>2026-04-13T19:09:22.488Z</time>
      </trkpt>
      <trkpt lat="52.307667" lon="5.029116">
        <ele>-0.089838</ele>
        <time>2026-04-13T19:09:26.198Z</time>
      </trkpt>
      <trkpt lat="52.307719" lon="5.027662">
        <ele>-0.247861</ele>
        <time>2026-04-13T19:09:39.131Z</time>
      </trkpt>
      <trkpt lat="52.307710" lon="5.027158">
        <ele>-0.302566</ele>
        <time>2026-04-13T19:09:43.614Z</time>
      </trkpt>
      <trkpt lat="52.307601" lon="5.026734">
        <ele>-0.326826</ele>
        <time>2026-04-13T19:09:47.668Z</time>
      </trkpt>
      <trkpt lat="52.307209" lon="5.026091">
        <ele>-0.357533</ele>
        <time>2026-04-13T19:09:55.615Z</time>
      </trkpt>
      <trkpt lat="52.306681" lon="5.025430">
        <ele>-0.394311</ele>
        <time>2026-04-13T19:10:05.198Z</time>
      </trkpt>
      <trkpt lat="52.306220" lon="5.024853">
        <ele>-0.394053</ele>
        <time>2026-04-13T19:10:13.963Z</time>
      </trkpt>
      <trkpt lat="52.305619" lon="5.024315">
        <ele>-0.327312</ele>
        <time>2026-04-13T19:10:24.418Z</time>
      </trkpt>
      <trkpt lat="52.305141" lon="5.023817">
        <ele>-0.272103</ele>
        <time>2026-04-13T19:10:33.073Z</time>
      </trkpt>
      <trkpt lat="52.305052" lon="5.023814">
        <ele>-0.263431</ele>
        <time>2026-04-13T19:10:34.439Z</time>
      </trkpt>
      <trkpt lat="52.304989" lon="5.023764">
        <ele>-0.256610</ele>
        <time>2026-04-13T19:10:35.535Z</time>
      </trkpt>
      <trkpt lat="52.304704" lon="5.023352">
        <ele>-0.208320</ele>
        <time>2026-04-13T19:10:43.417Z</time>
      </trkpt>
      <trkpt lat="52.304584" lon="5.023116">
        <ele>-0.179731</ele>
        <time>2026-04-13T19:10:47.317Z</time>
      </trkpt>
      <trkpt lat="52.304515" lon="5.022989">
        <ele>-0.163907</ele>
        <time>2026-04-13T19:10:49.435Z</time>
      </trkpt>
      <trkpt lat="52.304499" lon="5.022942">
        <ele>-0.158896</ele>
        <time>2026-04-13T19:10:50.109Z</time>
      </trkpt>
      <trkpt lat="52.304334" lon="5.022468">
        <ele>-0.108093</ele>
        <time>2026-04-13T19:10:57.027Z</time>
      </trkpt>
      <trkpt lat="52.304214" lon="5.022187">
        <ele>-0.076168</ele>
        <time>2026-04-13T19:11:01.471Z</time>
      </trkpt>
      <trkpt lat="52.304146" lon="5.022100">
        <ele>-0.063017</ele>
        <time>2026-04-13T19:11:03.312Z</time>
      </trkpt>
      <trkpt lat="52.304056" lon="5.022045">
        <ele>-0.048381</ele>
        <time>2026-04-13T19:11:05.343Z</time>
      </trkpt>
      <trkpt lat="52.303956" lon="5.022037">
        <ele>-0.033130</ele>
        <time>2026-04-13T19:11:07.514Z</time>
      </trkpt>
      <trkpt lat="52.303596" lon="5.022071">
        <ele>0.021800</ele>
        <time>2026-04-13T19:11:15.045Z</time>
      </trkpt>
      <trkpt lat="52.303198" lon="5.022110">
        <ele>-0.020491</ele>
        <time>2026-04-13T19:11:23.166Z</time>
      </trkpt>
      <trkpt lat="52.302474" lon="5.022163">
        <ele>-0.146869</ele>
        <time>2026-04-13T19:11:37.448Z</time>
      </trkpt>
      <trkpt lat="52.302475" lon="5.022234">
        <ele>-0.154442</ele>
        <time>2026-04-13T19:11:38.276Z</time>
      </trkpt>
      <trkpt lat="52.302569" lon="5.022237">
        <ele>-0.170837</ele>
        <time>2026-04-13T19:11:39.605Z</time>
      </trkpt>
      <trkpt lat="52.302577" lon="5.022828">
        <ele>-0.233871</ele>
        <time>2026-04-13T19:11:44.461Z</time>
      </trkpt>
      <trkpt lat="52.302650" lon="5.023721">
        <ele>-0.323205</ele>
        <time>2026-04-13T19:11:51.899Z</time>
      </trkpt>
      <trkpt lat="52.302643" lon="5.024749">
        <ele>-0.418292</ele>
        <time>2026-04-13T19:12:00.581Z</time>
      </trkpt>
      <trkpt lat="52.302604" lon="5.025893">
        <ele>-0.524267</ele>
        <time>2026-04-13T19:12:10.870Z</time>
      </trkpt>
      <trkpt lat="52.302639" lon="5.026078">
        <ele>-0.542178</ele>
        <time>2026-04-13T19:12:12.684Z</time>
      </trkpt>
      <trkpt lat="52.302666" lon="5.025980">
        <ele>-0.549337</ele>
        <time>2026-04-13T19:12:13.699Z</time>
      </trkpt>
      <trkpt lat="52.302656" lon="5.025755">
        <ele>-0.506833</ele>
        <time>2026-04-13T19:12:15.843Z</time>
      </trkpt>
      <trkpt lat="52.302784" lon="5.024700">
        <ele>-0.304188</ele>
        <time>2026-04-13T19:12:26.509Z</time>
      </trkpt>
      <trkpt lat="52.302816" lon="5.023730">
        <ele>-0.121166</ele>
        <time>2026-04-13T19:12:36.465Z</time>
      </trkpt>
      <trkpt lat="52.302810" lon="5.022409">
        <ele>-0.044023</ele>
        <time>2026-04-13T19:12:49.321Z</time>
      </trkpt>
      <trkpt lat="52.302779" lon="5.021504">
        <ele>-0.108374</ele>
        <time>2026-04-13T19:12:57.340Z</time>
      </trkpt>
      <trkpt lat="52.302748" lon="5.020269">
        <ele>-0.196127</ele>
        <time>2026-04-13T19:13:07.594Z</time>
      </trkpt>
      <trkpt lat="52.302730" lon="5.019978">
        <ele>-0.196211</ele>
        <time>2026-04-13T19:13:10.020Z</time>
      </trkpt>
      <trkpt lat="52.302749" lon="5.019075">
        <ele>-0.140284</ele>
        <time>2026-04-13T19:13:17.764Z</time>
      </trkpt>
      <trkpt lat="52.302815" lon="5.018290">
        <ele>-0.091237</ele>
        <time>2026-04-13T19:13:24.933Z</time>
      </trkpt>
      <trkpt lat="52.302984" lon="5.017036">
        <ele>0.010067</ele>
        <time>2026-04-13T19:13:38.118Z</time>
      </trkpt>
      <trkpt lat="52.303171" lon="5.016177">
        <ele>0.168949</ele>
        <time>2026-04-13T19:13:47.798Z</time>
      </trkpt>
      <trkpt lat="52.303323" lon="5.015625">
        <ele>0.274437</ele>
        <time>2026-04-13T19:13:53.952Z</time>
      </trkpt>
      <trkpt lat="52.303667" lon="5.014545">
        <ele>0.486624</ele>
        <time>2026-04-13T19:14:05.321Z</time>
      </trkpt>
      <trkpt lat="52.303651" lon="5.014341">
        <ele>0.435328</ele>
        <time>2026-04-13T19:14:07.083Z</time>
      </trkpt>
      <trkpt lat="52.303464" lon="5.014273">
        <ele>0.348753</ele>
        <time>2026-04-13T19:14:10.740Z</time>
      </trkpt>
      <trkpt lat="52.303010" lon="5.014131">
        <ele>0.139859</ele>
        <time>2026-04-13T19:14:16.820Z</time>
      </trkpt>
      <trkpt lat="52.302859" lon="5.014229">
        <ele>0.066440</ele>
        <time>2026-04-13T19:14:18.928Z</time>
      </trkpt>
      <trkpt lat="52.302066" lon="5.015034">
        <ele>-0.347909</ele>
        <time>2026-04-13T19:14:31.083Z</time>
      </trkpt>
      <trkpt lat="52.301707" lon="5.015356">
        <ele>-0.488802</ele>
        <time>2026-04-13T19:14:36.505Z</time>
      </trkpt>
      <trkpt lat="52.301291" lon="5.015608">
        <ele>-0.641454</ele>
        <time>2026-04-13T19:14:42.564Z</time>
      </trkpt>
      <trkpt lat="52.301097" lon="5.015668">
        <ele>-0.709394</ele>
        <time>2026-04-13T19:14:45.333Z</time>
      </trkpt>
      <trkpt lat="52.300662" lon="5.015700">
        <ele>-0.859229</ele>
        <time>2026-04-13T19:14:51.544Z</time>
      </trkpt>
      <trkpt lat="52.300248" lon="5.015581">
        <ele>-0.988294</ele>
        <time>2026-04-13T19:14:57.575Z</time>
      </trkpt>
      <trkpt lat="52.300132" lon="5.015573">
        <ele>-1.018021</ele>
        <time>2026-04-13T19:14:59.181Z</time>
      </trkpt>
      <trkpt lat="52.299474" lon="5.015364">
        <ele>-1.189640</ele>
        <time>2026-04-13T19:15:08.396Z</time>
      </trkpt>
      <trkpt lat="52.299205" lon="5.015174">
        <ele>-1.264663</ele>
        <time>2026-04-13T19:15:12.469Z</time>
      </trkpt>
      <trkpt lat="52.299023" lon="5.014990">
        <ele>-1.319448</ele>
        <time>2026-04-13T19:15:15.370Z</time>
      </trkpt>
      <trkpt lat="52.298305" lon="5.014352">
        <ele>-1.377445</ele>
        <time>2026-04-13T19:15:26.605Z</time>
      </trkpt>
      <trkpt lat="52.297698" lon="5.013878">
        <ele>-1.341560</ele>
        <time>2026-04-13T19:15:37.053Z</time>
      </trkpt>
      <trkpt lat="52.296904" lon="5.013278">
        <ele>-1.280619</ele>
        <time>2026-04-13T19:15:51.157Z</time>
      </trkpt>
      <trkpt lat="52.295898" lon="5.013006">
        <ele>-1.164928</ele>
        <time>2026-04-13T19:16:06.661Z</time>
      </trkpt>
      <trkpt lat="52.295654" lon="5.012899">
        <ele>-1.136265</ele>
        <time>2026-04-13T19:16:10.309Z</time>
      </trkpt>
      <trkpt lat="52.295063" lon="5.012473">
        <ele>-1.107824</ele>
        <time>2026-04-13T19:16:19.753Z</time>
      </trkpt>
      <trkpt lat="52.294484" lon="5.011828">
        <ele>-1.116328</ele>
        <time>2026-04-13T19:16:30.286Z</time>
      </trkpt>
      <trkpt lat="52.294391" lon="5.011724">
        <ele>-1.117695</ele>
        <time>2026-04-13T19:16:32.051Z</time>
      </trkpt>
      <trkpt lat="52.294275" lon="5.011543">
        <ele>-1.119642</ele>
        <time>2026-04-13T19:16:34.551Z</time>
      </trkpt>
      <trkpt lat="52.294176" lon="5.011320">
        <ele>-1.121687</ele>
        <time>2026-04-13T19:16:37.105Z</time>
      </trkpt>
      <trkpt lat="52.294161" lon="5.011156">
        <ele>-1.122918</ele>
        <time>2026-04-13T19:16:38.573Z</time>
      </trkpt>
      <trkpt lat="52.294159" lon="5.010834">
        <ele>-1.125308</ele>
        <time>2026-04-13T19:16:41.354Z</time>
      </trkpt>
      <trkpt lat="52.294097" lon="5.010318">
        <ele>-1.166201</ele>
        <time>2026-04-13T19:16:45.815Z</time>
      </trkpt>
      <trkpt lat="52.293982" lon="5.009806">
        <ele>-1.208747</ele>
        <time>2026-04-13T19:16:50.494Z</time>
      </trkpt>
      <trkpt lat="52.293918" lon="5.009286">
        <ele>-1.250121</ele>
        <time>2026-04-13T19:16:55.299Z</time>
      </trkpt>
      <trkpt lat="52.293906" lon="5.008979">
        <ele>-1.274117</ele>
        <time>2026-04-13T19:16:58.049Z</time>
      </trkpt>
      <trkpt lat="52.294121" lon="5.007652">
        <ele>-1.393354</ele>
        <time>2026-04-13T19:17:09.942Z</time>
      </trkpt>
      <trkpt lat="52.294111" lon="5.007382">
        <ele>-1.424139</ele>
        <time>2026-04-13T19:17:12.383Z</time>
      </trkpt>
      <trkpt lat="52.294058" lon="5.007120">
        <ele>-1.455545</ele>
        <time>2026-04-13T19:17:14.888Z</time>
      </trkpt>
      <trkpt lat="52.293979" lon="5.006876">
        <ele>-1.486966</ele>
        <time>2026-04-13T19:17:17.341Z</time>
      </trkpt>
      <trkpt lat="52.293754" lon="5.006361">
        <ele>-1.558996</ele>
        <time>2026-04-13T19:17:22.751Z</time>
      </trkpt>
      <trkpt lat="52.293617" lon="5.006146">
        <ele>-1.594332</ele>
        <time>2026-04-13T19:17:25.339Z</time>
      </trkpt>
      <trkpt lat="52.293132" lon="5.005591">
        <ele>-1.675022</ele>
        <time>2026-04-13T19:17:33.384Z</time>
      </trkpt>
      <trkpt lat="52.292925" lon="5.005397">
        <ele>-1.632659</ele>
        <time>2026-04-13T19:17:36.794Z</time>
      </trkpt>
      <trkpt lat="52.292356" lon="5.005044">
        <ele>-1.524606</ele>
        <time>2026-04-13T19:17:46.342Z</time>
      </trkpt>
      <trkpt lat="52.292056" lon="5.004802">
        <ele>-1.465210</ele>
        <time>2026-04-13T19:17:51.937Z</time>
      </trkpt>
      <trkpt lat="52.291829" lon="5.004537">
        <ele>-1.415687</ele>
        <time>2026-04-13T19:17:56.645Z</time>
      </trkpt>
      <trkpt lat="52.291675" lon="5.004281">
        <ele>-1.376693</ele>
        <time>2026-04-13T19:18:00.238Z</time>
      </trkpt>
      <trkpt lat="52.291461" lon="5.003752">
        <ele>-1.417263</ele>
        <time>2026-04-13T19:18:06.324Z</time>
      </trkpt>
      <trkpt lat="52.291363" lon="5.003574">
        <ele>-1.436985</ele>
        <time>2026-04-13T19:18:08.463Z</time>
      </trkpt>
      <trkpt lat="52.291260" lon="5.003441">
        <ele>-1.454656</ele>
        <time>2026-04-13T19:18:10.293Z</time>
      </trkpt>
      <trkpt lat="52.291087" lon="5.003324">
        <ele>-1.479862</ele>
        <time>2026-04-13T19:18:12.879Z</time>
      </trkpt>
      <trkpt lat="52.290523" lon="5.003108">
        <ele>-1.557853</ele>
        <time>2026-04-13T19:18:20.675Z</time>
      </trkpt>
      <trkpt lat="52.290231" lon="5.002988">
        <ele>-1.598390</ele>
        <time>2026-04-13T19:18:24.819Z</time>
      </trkpt>
      <trkpt lat="52.289997" lon="5.002940">
        <ele>-1.576898</ele>
        <time>2026-04-13T19:18:28.167Z</time>
      </trkpt>
      <trkpt lat="52.289708" lon="5.002983">
        <ele>-1.499857</ele>
        <time>2026-04-13T19:18:32.466Z</time>
      </trkpt>
      <trkpt lat="52.289322" lon="5.003121">
        <ele>-1.394959</ele>
        <time>2026-04-13T19:18:38.661Z</time>
      </trkpt>
      <trkpt lat="52.288986" lon="5.003300">
        <ele>-1.301141</ele>
        <time>2026-04-13T19:18:44.703Z</time>
      </trkpt>
      <trkpt lat="52.288260" lon="5.003940">
        <ele>-1.117735</ele>
        <time>2026-04-13T19:18:58.610Z</time>
      </trkpt>
      <trkpt lat="52.288031" lon="5.004009">
        <ele>-1.097757</ele>
        <time>2026-04-13T19:19:02.309Z</time>
      </trkpt>
      <trkpt lat="52.286160" lon="5.004210">
        <ele>-1.054878</ele>
        <time>2026-04-13T19:19:29.960Z</time>
      </trkpt>
      <trkpt lat="52.284857" lon="5.004528">
        <ele>-1.241704</ele>
        <time>2026-04-13T19:19:48.491Z</time>
      </trkpt>
      <trkpt lat="52.284657" lon="5.004653">
        <ele>-1.218627</ele>
        <time>2026-04-13T19:19:51.557Z</time>
      </trkpt>
      <trkpt lat="52.284556" lon="5.004790">
        <ele>-1.204483</ele>
        <time>2026-04-13T19:19:53.455Z</time>
      </trkpt>
      <trkpt lat="52.284373" lon="5.005364">
        <ele>-1.161808</ele>
        <time>2026-04-13T19:19:59.285Z</time>
      </trkpt>
      <trkpt lat="52.283939" lon="5.006362">
        <ele>-1.081077</ele>
        <time>2026-04-13T19:20:11.119Z</time>
      </trkpt>
      <trkpt lat="52.283850" lon="5.006514">
        <ele>-1.067205</ele>
        <time>2026-04-13T19:20:13.207Z</time>
      </trkpt>
      <trkpt lat="52.283767" lon="5.006586">
        <ele>-1.057078</ele>
        <time>2026-04-13T19:20:14.711Z</time>
      </trkpt>
      <trkpt lat="52.283661" lon="5.006661">
        <ele>-1.047933</ele>
        <time>2026-04-13T19:20:16.549Z</time>
      </trkpt>
      <trkpt lat="52.283514" lon="5.006682">
        <ele>-1.040746</ele>
        <time>2026-04-13T19:20:18.865Z</time>
      </trkpt>
      <trkpt lat="52.283385" lon="5.006635">
        <ele>-1.034308</ele>
        <time>2026-04-13T19:20:20.934Z</time>
      </trkpt>
      <trkpt lat="52.283271" lon="5.006508">
        <ele>-1.027588</ele>
        <time>2026-04-13T19:20:23.100Z</time>
      </trkpt>
      <trkpt lat="52.283159" lon="5.006252">
        <ele>-1.018210</ele>
        <time>2026-04-13T19:20:26.052Z</time>
      </trkpt>
      <trkpt lat="52.283020" lon="5.005662">
        <ele>-0.999371</ele>
        <time>2026-04-13T19:20:31.935Z</time>
      </trkpt>
      <trkpt lat="52.282882" lon="5.005395">
        <ele>-0.988955</ele>
        <time>2026-04-13T19:20:35.106Z</time>
      </trkpt>
      <trkpt lat="52.282814" lon="5.005306">
        <ele>-0.984712</ele>
        <time>2026-04-13T19:20:36.386Z</time>
      </trkpt>
      <trkpt lat="52.282674" lon="5.005212">
        <ele>-0.977340</ele>
        <time>2026-04-13T19:20:38.589Z</time>
      </trkpt>
      <trkpt lat="52.282404" lon="5.005127">
        <ele>-0.963947</ele>
        <time>2026-04-13T19:20:42.469Z</time>
      </trkpt>
      <trkpt lat="52.281715" lon="5.004911">
        <ele>-1.030751</ele>
        <time>2026-04-13T19:20:52.298Z</time>
      </trkpt>
      <trkpt lat="52.281582" lon="5.004907">
        <ele>-1.043936</ele>
        <time>2026-04-13T19:20:54.201Z</time>
      </trkpt>
      <trkpt lat="52.281439" lon="5.004962">
        <ele>-1.058496</ele>
        <time>2026-04-13T19:20:56.330Z</time>
      </trkpt>
      <trkpt lat="52.281112" lon="5.005170">
        <ele>-1.093273</ele>
        <time>2026-04-13T19:21:01.604Z</time>
      </trkpt>
      <trkpt lat="52.281014" lon="5.005194">
        <ele>-1.103095</ele>
        <time>2026-04-13T19:21:03.132Z</time>
      </trkpt>
      <trkpt lat="52.280861" lon="5.005152">
        <ele>-1.118471</ele>
        <time>2026-04-13T19:21:05.502Z</time>
      </trkpt>
      <trkpt lat="52.280600" lon="5.004963">
        <ele>-1.148334</ele>
        <time>2026-04-13T19:21:09.678Z</time>
      </trkpt>
      <trkpt lat="52.280436" lon="5.004769">
        <ele>-1.174179</ele>
        <time>2026-04-13T19:21:12.484Z</time>
      </trkpt>
      <trkpt lat="52.280160" lon="5.004300">
        <ele>-1.225005</ele>
        <time>2026-04-13T19:21:18.119Z</time>
      </trkpt>
      <trkpt lat="52.279990" lon="5.004086">
        <ele>-1.252399</ele>
        <time>2026-04-13T19:21:21.413Z</time>
      </trkpt>
      <trkpt lat="52.279476" lon="5.003998">
        <ele>-1.318377</ele>
        <time>2026-04-13T19:21:29.061Z</time>
      </trkpt>
      <trkpt lat="52.279374" lon="5.003862">
        <ele>-1.335182</ele>
        <time>2026-04-13T19:21:30.895Z</time>
      </trkpt>
      <trkpt lat="52.279253" lon="5.003548">
        <ele>-1.364167</ele>
        <time>2026-04-13T19:21:34.001Z</time>
      </trkpt>
      <trkpt lat="52.279225" lon="5.003190">
        <ele>-1.433906</ele>
        <time>2026-04-13T19:21:36.944Z</time>
      </trkpt>
      <trkpt lat="52.279235" lon="5.002679">
        <ele>-1.551306</ele>
        <time>2026-04-13T19:21:41.160Z</time>
      </trkpt>
      <trkpt lat="52.279192" lon="5.002363">
        <ele>-1.625642</ele>
        <time>2026-04-13T19:21:43.961Z</time>
      </trkpt>
      <trkpt lat="52.279116" lon="5.002181">
        <ele>-1.676241</ele>
        <time>2026-04-13T19:21:45.956Z</time>
      </trkpt>
      <trkpt lat="52.278594" lon="5.000986">
        <ele>-2.013411</ele>
        <time>2026-04-13T19:21:58.008Z</time>
      </trkpt>
      <trkpt lat="52.278176" lon="5.000443">
        <ele>-2.229161</ele>
        <time>2026-04-13T19:22:05.097Z</time>
      </trkpt>
      <trkpt lat="52.277912" lon="4.999795">
        <ele>-2.424287</ele>
        <time>2026-04-13T19:22:11.196Z</time>
      </trkpt>
      <trkpt lat="52.277640" lon="4.999080">
        <ele>-2.635311</ele>
        <time>2026-04-13T19:22:18.118Z</time>
      </trkpt>
      <trkpt lat="52.277525" lon="4.998875">
        <ele>-2.705020</ele>
        <time>2026-04-13T19:22:20.433Z</time>
      </trkpt>
      <trkpt lat="52.277360" lon="4.998550">
        <ele>-2.762870</ele>
        <time>2026-04-13T19:22:24.082Z</time>
      </trkpt>
      <trkpt lat="52.276990" lon="4.998070">
        <ele>-2.625109</ele>
        <time>2026-04-13T19:22:31.342Z</time>
      </trkpt>
      <trkpt lat="52.276314" lon="4.997382">
        <ele>-2.392873</ele>
        <time>2026-04-13T19:22:44.897Z</time>
      </trkpt>
      <trkpt lat="52.276221" lon="4.997281">
        <ele>-2.360310</ele>
        <time>2026-04-13T19:22:46.813Z</time>
      </trkpt>
      <trkpt lat="52.275855" lon="4.996731">
        <ele>-2.252455</ele>
        <time>2026-04-13T19:22:57.633Z</time>
      </trkpt>
      <trkpt lat="52.275585" lon="4.996367">
        <ele>-2.238573</ele>
        <time>2026-04-13T19:23:04.752Z</time>
      </trkpt>
      <trkpt lat="52.275548" lon="4.996286">
        <ele>-2.236120</ele>
        <time>2026-04-13T19:23:05.959Z</time>
      </trkpt>
      <trkpt lat="52.275523" lon="4.996080">
        <ele>-2.231023</ele>
        <time>2026-04-13T19:23:08.506Z</time>
      </trkpt>
      <trkpt lat="52.275687" lon="4.995244">
        <ele>-2.209718</ele>
        <time>2026-04-13T19:23:19.263Z</time>
      </trkpt>
      <trkpt lat="52.275815" lon="4.994806">
        <ele>-2.197938</ele>
        <time>2026-04-13T19:23:25.199Z</time>
      </trkpt>
      <trkpt lat="52.275862" lon="4.994729">
        <ele>-2.195299</ele>
        <time>2026-04-13T19:23:26.507Z</time>
      </trkpt>
      <trkpt lat="52.275892" lon="4.994680">
        <ele>-2.193617</ele>
        <time>2026-04-13T19:23:27.394Z</time>
      </trkpt>
      <trkpt lat="52.275960" lon="4.994603">
        <ele>-2.190336</ele>
        <time>2026-04-13T19:23:29.079Z</time>
      </trkpt>
      <trkpt lat="52.275990" lon="4.994571">
        <ele>-2.188915</ele>
        <time>2026-04-13T19:23:29.799Z</time>
      </trkpt>
      <trkpt lat="52.276150" lon="4.994341">
        <ele>-2.167721</ele>
        <time>2026-04-13T19:23:34.219Z</time>
      </trkpt>
      <trkpt lat="52.276259" lon="4.993943">
        <ele>-2.136393</ele>
        <time>2026-04-13T19:23:39.673Z</time>
      </trkpt>
      <trkpt lat="52.276343" lon="4.993737">
        <ele>-2.118607</ele>
        <time>2026-04-13T19:23:42.759Z</time>
      </trkpt>
      <trkpt lat="52.276474" lon="4.993572">
        <ele>-2.099186</ele>
        <time>2026-04-13T19:23:46.155Z</time>
      </trkpt>
      <trkpt lat="52.276858" lon="4.993247">
        <ele>-2.048408</ele>
        <time>2026-04-13T19:23:55.217Z</time>
      </trkpt>
      <trkpt lat="52.277597" lon="4.992385">
        <ele>-1.907911</ele>
        <time>2026-04-13T19:24:14.128Z</time>
      </trkpt>
      <trkpt lat="52.277876" lon="4.992079">
        <ele>-1.829087</ele>
        <time>2026-04-13T19:24:21.134Z</time>
      </trkpt>
      <trkpt lat="52.278384" lon="4.991279">
        <ele>-1.663592</ele>
        <time>2026-04-13T19:24:36.129Z</time>
      </trkpt>
      <trkpt lat="52.278517" lon="4.990971">
        <ele>-1.609481</ele>
        <time>2026-04-13T19:24:41.107Z</time>
      </trkpt>
      <trkpt lat="52.278594" lon="4.990670">
        <ele>-1.562653</ele>
        <time>2026-04-13T19:24:45.374Z</time>
      </trkpt>
      <trkpt lat="52.278713" lon="4.989897">
        <ele>-1.458061</ele>
        <time>2026-04-13T19:24:55.754Z</time>
      </trkpt>
      <trkpt lat="52.278836" lon="4.989272">
        <ele>-1.372591</ele>
        <time>2026-04-13T19:25:04.370Z</time>
      </trkpt>
      <trkpt lat="52.278831" lon="4.988980">
        <ele>-1.334563</ele>
        <time>2026-04-13T19:25:08.258Z</time>
      </trkpt>
      <trkpt lat="52.278717" lon="4.988319">
        <ele>-1.245158</ele>
        <time>2026-04-13T19:25:17.206Z</time>
      </trkpt>
      <trkpt lat="52.278521" lon="4.987453">
        <ele>-1.281486</ele>
        <time>2026-04-13T19:25:28.689Z</time>
      </trkpt>
      <trkpt lat="52.278499" lon="4.987357">
        <ele>-1.313426</ele>
        <time>2026-04-13T19:25:29.908Z</time>
      </trkpt>
      <trkpt lat="52.278397" lon="4.986899">
        <ele>-1.465288</ele>
        <time>2026-04-13T19:25:35.515Z</time>
      </trkpt>
      <trkpt lat="52.278268" lon="4.986559">
        <ele>-1.589939</ele>
        <time>2026-04-13T19:25:39.963Z</time>
      </trkpt>
      <trkpt lat="52.278085" lon="4.985910">
        <ele>-1.812594</ele>
        <time>2026-04-13T19:25:47.783Z</time>
      </trkpt>
      <trkpt lat="52.277827" lon="4.985121">
        <ele>-2.087505</ele>
        <time>2026-04-13T19:25:57.488Z</time>
      </trkpt>
      <trkpt lat="52.277631" lon="4.984544">
        <ele>-2.109347</ele>
        <time>2026-04-13T19:26:04.882Z</time>
      </trkpt>
      <trkpt lat="52.277250" lon="4.983840">
        <ele>-2.140453</ele>
        <time>2026-04-13T19:26:16.137Z</time>
      </trkpt>
      <trkpt lat="52.276965" lon="4.983407">
        <ele>-2.161501</ele>
        <time>2026-04-13T19:26:24.375Z</time>
      </trkpt>
      <trkpt lat="52.276543" lon="4.982909">
        <ele>-2.125057</ele>
        <time>2026-04-13T19:26:35.829Z</time>
      </trkpt>
      <trkpt lat="52.276103" lon="4.982570">
        <ele>-1.831524</ele>
        <time>2026-04-13T19:26:46.927Z</time>
      </trkpt>
      <trkpt lat="52.275984" lon="4.982490">
        <ele>-1.753878</ele>
        <time>2026-04-13T19:26:49.874Z</time>
      </trkpt>
      <trkpt lat="52.275384" lon="4.982129">
        <ele>-1.368063</ele>
        <time>2026-04-13T19:27:04.341Z</time>
      </trkpt>
      <trkpt lat="52.274795" lon="4.981998">
        <ele>-1.023813</ele>
        <time>2026-04-13T19:27:17.825Z</time>
      </trkpt>
      <trkpt lat="52.274755" lon="4.981990">
        <ele>-1.003416</ele>
        <time>2026-04-13T19:27:18.741Z</time>
      </trkpt>
      <trkpt lat="52.274580" lon="4.981955">
        <ele>-0.914180</ele>
        <time>2026-04-13T19:27:22.776Z</time>
      </trkpt>
      <trkpt lat="52.274368" lon="4.981883">
        <ele>-0.804584</ele>
        <time>2026-04-13T19:27:27.939Z</time>
      </trkpt>
      <trkpt lat="52.274015" lon="4.981623">
        <ele>-0.608608</ele>
        <time>2026-04-13T19:27:36.783Z</time>
      </trkpt>
      <trkpt lat="52.273655" lon="4.981230">
        <ele>-0.389483</ele>
        <time>2026-04-13T19:27:43.881Z</time>
      </trkpt>
      <trkpt lat="52.273635" lon="4.981207">
        <ele>-0.377105</ele>
        <time>2026-04-13T19:27:44.279Z</time>
      </trkpt>
      <trkpt lat="52.273599" lon="4.981162">
        <ele>-0.354165</ele>
        <time>2026-04-13T19:27:45.025Z</time>
      </trkpt>
      <trkpt lat="52.273542" lon="4.981090">
        <ele>-0.317702</ele>
        <time>2026-04-13T19:27:46.170Z</time>
      </trkpt>
      <trkpt lat="52.273470" lon="4.980977">
        <ele>-0.267176</ele>
        <time>2026-04-13T19:27:47.789Z</time>
      </trkpt>
      <trkpt lat="52.273165" lon="4.980208">
        <ele>-0.131352</ele>
        <time>2026-04-13T19:27:59.661Z</time>
      </trkpt>
      <trkpt lat="52.273012" lon="4.979690">
        <ele>-0.081661</ele>
        <time>2026-04-13T19:28:06.906Z</time>
      </trkpt>
      <trkpt lat="52.272750" lon="4.978783">
        <ele>0.004988</ele>
        <time>2026-04-13T19:28:18.777Z</time>
      </trkpt>
      <trkpt lat="52.272420" lon="4.977638">
        <ele>0.333667</ele>
        <time>2026-04-13T19:28:35.610Z</time>
      </trkpt>
      <trkpt lat="52.271989" lon="4.975895">
        <ele>1.223178</ele>
        <time>2026-04-13T19:29:03.625Z</time>
      </trkpt>
      <trkpt lat="52.271848" lon="4.975469">
        <ele>1.452343</ele>
        <time>2026-04-13T19:29:10.414Z</time>
      </trkpt>
      <trkpt lat="52.271837" lon="4.975441">
        <ele>1.455724</ele>
        <time>2026-04-13T19:29:10.875Z</time>
      </trkpt>
      <trkpt lat="52.271730" lon="4.975154">
        <ele>1.450217</ele>
        <time>2026-04-13T19:29:15.546Z</time>
      </trkpt>
      <trkpt lat="52.271738" lon="4.974583">
        <ele>1.440858</ele>
        <time>2026-04-13T19:29:23.477Z</time>
      </trkpt>
      <trkpt lat="52.271892" lon="4.974550">
        <ele>1.436699</ele>
        <time>2026-04-13T19:29:26.833Z</time>
      </trkpt>
      <trkpt lat="52.271935" lon="4.974523">
        <ele>1.435465</ele>
        <time>2026-04-13T19:29:27.764Z</time>
      </trkpt>
      <trkpt lat="52.272134" lon="4.974384">
        <ele>1.429670</ele>
        <time>2026-04-13T19:29:32.154Z</time>
      </trkpt>
      <trkpt lat="52.272095" lon="4.974167">
        <ele>1.425964</ele>
        <time>2026-04-13T19:29:34.816Z</time>
      </trkpt>
      <trkpt lat="52.272120" lon="4.973997">
        <ele>1.423099</ele>
        <time>2026-04-13T19:29:36.776Z</time>
      </trkpt>
      <trkpt lat="52.272381" lon="4.973831">
        <ele>1.415599</ele>
        <time>2026-04-13T19:29:41.758Z</time>
      </trkpt>
      <trkpt lat="52.272421" lon="4.973777">
        <ele>1.414209</ele>
        <time>2026-04-13T19:29:42.645Z</time>
      </trkpt>
      <trkpt lat="52.272507" lon="4.973525">
        <ele>1.409481</ele>
        <time>2026-04-13T19:29:45.753Z</time>
      </trkpt>
      <trkpt lat="52.272547" lon="4.973409">
        <ele>1.391494</ele>
        <time>2026-04-13T19:29:47.237Z</time>
      </trkpt>
      <trkpt lat="52.272630" lon="4.973234">
        <ele>1.302637</ele>
        <time>2026-04-13T19:29:49.727Z</time>
      </trkpt>
      <trkpt lat="52.272823" lon="4.973126">
        <ele>1.168844</ele>
        <time>2026-04-13T19:29:53.596Z</time>
      </trkpt>
      <trkpt lat="52.272867" lon="4.972957">
        <ele>1.095137</ele>
        <time>2026-04-13T19:29:55.709Z</time>
      </trkpt>
      <trkpt lat="52.272919" lon="4.972876">
        <ele>1.048023</ele>
        <time>2026-04-13T19:29:57.017Z</time>
      </trkpt>
      <trkpt lat="52.273035" lon="4.972727">
        <ele>0.951258</ele>
        <time>2026-04-13T19:29:58.921Z</time>
      </trkpt>
      <trkpt lat="52.273403" lon="4.972246">
        <ele>0.642207</ele>
        <time>2026-04-13T19:30:04.775Z</time>
      </trkpt>
      <trkpt lat="52.273584" lon="4.971857">
        <ele>0.446090</ele>
        <time>2026-04-13T19:30:08.562Z</time>
      </trkpt>
      <trkpt lat="52.273609" lon="4.971787">
        <ele>0.413563</ele>
        <time>2026-04-13T19:30:09.216Z</time>
      </trkpt>
      <trkpt lat="52.273661" lon="4.971613">
        <ele>0.335852</ele>
        <time>2026-04-13T19:30:10.763Z</time>
      </trkpt>
      <trkpt lat="52.273836" lon="4.970989">
        <ele>0.090766</ele>
        <time>2026-04-13T19:30:16.405Z</time>
      </trkpt>
      <trkpt lat="52.273951" lon="4.970829">
        <ele>0.009631</ele>
        <time>2026-04-13T19:30:18.374Z</time>
      </trkpt>
      <trkpt lat="52.274102" lon="4.970748">
        <ele>-0.075746</ele>
        <time>2026-04-13T19:30:20.431Z</time>
      </trkpt>
      <trkpt lat="52.274272" lon="4.970689">
        <ele>-0.169109</ele>
        <time>2026-04-13T19:30:22.671Z</time>
      </trkpt>
      <trkpt lat="52.274237" lon="4.970465">
        <ele>-0.245103</ele>
        <time>2026-04-13T19:30:24.518Z</time>
      </trkpt>
      <trkpt lat="52.274230" lon="4.970414">
        <ele>-0.262284</ele>
        <time>2026-04-13T19:30:25.099Z</time>
      </trkpt>
      <trkpt lat="52.274216" lon="4.970297">
        <ele>-0.301472</ele>
        <time>2026-04-13T19:30:26.446Z</time>
      </trkpt>
      <trkpt lat="52.274208" lon="4.970231">
        <ele>-0.323588</ele>
        <time>2026-04-13T19:30:27.207Z</time>
      </trkpt>
      <trkpt lat="52.274204" lon="4.970191">
        <ele>-0.336911</ele>
        <time>2026-04-13T19:30:27.538Z</time>
      </trkpt>
      <trkpt lat="52.274171" lon="4.969925">
        <ele>-0.426128</ele>
        <time>2026-04-13T19:30:29.761Z</time>
      </trkpt>
      <trkpt lat="52.274156" lon="4.969757">
        <ele>-0.481936</ele>
        <time>2026-04-13T19:30:31.168Z</time>
      </trkpt>
      <trkpt lat="52.274155" lon="4.968923">
        <ele>-0.753394</ele>
        <time>2026-04-13T19:30:38.159Z</time>
      </trkpt>
      <trkpt lat="52.274036" lon="4.968129">
        <ele>-0.982326</ele>
        <time>2026-04-13T19:30:44.622Z</time>
      </trkpt>
      <trkpt lat="52.273994" lon="4.967722">
        <ele>-1.097915</ele>
        <time>2026-04-13T19:30:47.909Z</time>
      </trkpt>
      <trkpt lat="52.274035" lon="4.967630">
        <ele>-1.129789</ele>
        <time>2026-04-13T19:30:48.844Z</time>
      </trkpt>
      <trkpt lat="52.274035" lon="4.967519">
        <ele>-1.160874</ele>
        <time>2026-04-13T19:30:49.734Z</time>
      </trkpt>
      <trkpt lat="52.274141" lon="4.967467">
        <ele>-1.211527</ele>
        <time>2026-04-13T19:30:51.803Z</time>
      </trkpt>
      <trkpt lat="52.274218" lon="4.967431">
        <ele>-1.248182</ele>
        <time>2026-04-13T19:30:53.314Z</time>
      </trkpt>
      <trkpt lat="52.274255" lon="4.967343">
        <ele>-1.278083</ele>
        <time>2026-04-13T19:30:54.573Z</time>
      </trkpt>
      <trkpt lat="52.274345" lon="4.967369">
        <ele>-1.319913</ele>
        <time>2026-04-13T19:30:56.329Z</time>
      </trkpt>
      <trkpt lat="52.274450" lon="4.967328">
        <ele>-1.369322</ele>
        <time>2026-04-13T19:30:58.428Z</time>
      </trkpt>
      <trkpt lat="52.274563" lon="4.967284">
        <ele>-1.422488</ele>
        <time>2026-04-13T19:31:00.652Z</time>
      </trkpt>
      <trkpt lat="52.274624" lon="4.967260">
        <ele>-1.451204</ele>
        <time>2026-04-13T19:31:01.856Z</time>
      </trkpt>
      <trkpt lat="52.274806" lon="4.967190">
        <ele>-1.536778</ele>
        <time>2026-04-13T19:31:05.401Z</time>
      </trkpt>
      <trkpt lat="52.275030" lon="4.967103">
        <ele>-1.626481</ele>
        <time>2026-04-13T19:31:09.719Z</time>
      </trkpt>
      <trkpt lat="52.275116" lon="4.967096">
        <ele>-1.658268</ele>
        <time>2026-04-13T19:31:11.306Z</time>
      </trkpt>
      <trkpt lat="52.275195" lon="4.967149">
        <ele>-1.689792</ele>
        <time>2026-04-13T19:31:12.874Z</time>
      </trkpt>
      <trkpt lat="52.275329" lon="4.967322">
        <ele>-1.752831</ele>
        <time>2026-04-13T19:31:16.015Z</time>
      </trkpt>
      <trkpt lat="52.275415" lon="4.967160">
        <ele>-1.801275</ele>
        <time>2026-04-13T19:31:17.741Z</time>
      </trkpt>
      <trkpt lat="52.275834" lon="4.966363">
        <ele>-2.038617</ele>
        <time>2026-04-13T19:31:26.762Z</time>
      </trkpt>
      <trkpt lat="52.276002" lon="4.965760">
        <ele>-2.188272</ele>
        <time>2026-04-13T19:31:32.226Z</time>
      </trkpt>
      <trkpt lat="52.276064" lon="4.965355">
        <ele>-2.248737</ele>
        <time>2026-04-13T19:31:35.559Z</time>
      </trkpt>
      <trkpt lat="52.276058" lon="4.964374">
        <ele>-2.339867</ele>
        <time>2026-04-13T19:31:43.727Z</time>
      </trkpt>
      <trkpt lat="52.276079" lon="4.964241">
        <ele>-2.352626</ele>
        <time>2026-04-13T19:31:44.922Z</time>
      </trkpt>
      <trkpt lat="52.276186" lon="4.963906">
        <ele>-2.387729</ele>
        <time>2026-04-13T19:31:48.249Z</time>
      </trkpt>
      <trkpt lat="52.276618" lon="4.962849">
        <ele>-2.498971</ele>
        <time>2026-04-13T19:32:00.056Z</time>
      </trkpt>
      <trkpt lat="52.277098" lon="4.962161">
        <ele>-2.509166</ele>
        <time>2026-04-13T19:32:09.999Z</time>
      </trkpt>
      <trkpt lat="52.277444" lon="4.961738">
        <ele>-2.516066</ele>
        <time>2026-04-13T19:32:16.300Z</time>
      </trkpt>
      <trkpt lat="52.277596" lon="4.961530">
        <ele>-2.519232</ele>
        <time>2026-04-13T19:32:19.139Z</time>
      </trkpt>
      <trkpt lat="52.277767" lon="4.961262">
        <ele>-2.523015</ele>
        <time>2026-04-13T19:32:22.486Z</time>
      </trkpt>
      <trkpt lat="52.277894" lon="4.960967">
        <ele>-2.526539</ele>
        <time>2026-04-13T19:32:25.630Z</time>
      </trkpt>
      <trkpt lat="52.278047" lon="4.960352">
        <ele>-2.491143</ele>
        <time>2026-04-13T19:32:31.388Z</time>
      </trkpt>
      <trkpt lat="52.278142" lon="4.959706">
        <ele>-2.453322</ele>
        <time>2026-04-13T19:32:37.143Z</time>
      </trkpt>
      <trkpt lat="52.278150" lon="4.958534">
        <ele>-2.386602</ele>
        <time>2026-04-13T19:32:48.115Z</time>
      </trkpt>
      <trkpt lat="52.278393" lon="4.957690">
        <ele>-2.214204</ele>
        <time>2026-04-13T19:32:57.717Z</time>
      </trkpt>
      <trkpt lat="52.278462" lon="4.957215">
        <ele>-2.059089</ele>
        <time>2026-04-13T19:33:03.150Z</time>
      </trkpt>
      <trkpt lat="52.278467" lon="4.957019">
        <ele>-1.996761</ele>
        <time>2026-04-13T19:33:05.395Z</time>
      </trkpt>
      <trkpt lat="52.278407" lon="4.956529">
        <ele>-1.837989</ele>
        <time>2026-04-13T19:33:11.050Z</time>
      </trkpt>
      <trkpt lat="52.278348" lon="4.956301">
        <ele>-1.759335</ele>
        <time>2026-04-13T19:33:13.815Z</time>
      </trkpt>
      <trkpt lat="52.278155" lon="4.955771">
        <ele>-1.563371</ele>
        <time>2026-04-13T19:33:20.304Z</time>
      </trkpt>
      <trkpt lat="52.278103" lon="4.955501">
        <ele>-1.473435</ele>
        <time>2026-04-13T19:33:23.023Z</time>
      </trkpt>
      <trkpt lat="52.278081" lon="4.955193">
        <ele>-1.486047</ele>
        <time>2026-04-13T19:33:25.791Z</time>
      </trkpt>
      <trkpt lat="52.277965" lon="4.954475">
        <ele>-1.768457</ele>
        <time>2026-04-13T19:33:31.976Z</time>
      </trkpt>
      <trkpt lat="52.277841" lon="4.953613">
        <ele>-2.105209</ele>
        <time>2026-04-13T19:33:38.720Z</time>
      </trkpt>
      <trkpt lat="52.277856" lon="4.953193">
        <ele>-2.265205</ele>
        <time>2026-04-13T19:33:41.820Z</time>
      </trkpt>
      <trkpt lat="52.277994" lon="4.952609">
        <ele>-2.503285</ele>
        <time>2026-04-13T19:33:46.466Z</time>
      </trkpt>
      <trkpt lat="52.278047" lon="4.952233">
        <ele>-2.580121</ele>
        <time>2026-04-13T19:33:49.412Z</time>
      </trkpt>
      <trkpt lat="52.278086" lon="4.951502">
        <ele>-2.676100</ele>
        <time>2026-04-13T19:33:55.473Z</time>
      </trkpt>
      <trkpt lat="52.278177" lon="4.950558">
        <ele>-2.801100</ele>
        <time>2026-04-13T19:34:04.210Z</time>
      </trkpt>
      <trkpt lat="52.278322" lon="4.949495">
        <ele>-2.914359</ele>
        <time>2026-04-13T19:34:14.350Z</time>
      </trkpt>
      <trkpt lat="52.278441" lon="4.948908">
        <ele>-2.843412</ele>
        <time>2026-04-13T19:34:19.987Z</time>
      </trkpt>
      <trkpt lat="52.278786" lon="4.947833">
        <ele>-2.704140</ele>
        <time>2026-04-13T19:34:31.177Z</time>
      </trkpt>
      <trkpt lat="52.278825" lon="4.947501">
        <ele>-2.665354</ele>
        <time>2026-04-13T19:34:34.479Z</time>
      </trkpt>
      <trkpt lat="52.278831" lon="4.947170">
        <ele>-2.627362</ele>
        <time>2026-04-13T19:34:37.802Z</time>
      </trkpt>
      <trkpt lat="52.278790" lon="4.946456">
        <ele>-2.555202</ele>
        <time>2026-04-13T19:34:45.078Z</time>
      </trkpt>
      <trkpt lat="52.278749" lon="4.946172">
        <ele>-2.529145</ele>
        <time>2026-04-13T19:34:48.042Z</time>
      </trkpt>
      <trkpt lat="52.278721" lon="4.945979">
        <ele>-2.511433</ele>
        <time>2026-04-13T19:34:50.040Z</time>
      </trkpt>
      <trkpt lat="52.278555" lon="4.945366">
        <ele>-2.451573</ele>
        <time>2026-04-13T19:34:56.795Z</time>
      </trkpt>
      <trkpt lat="52.278145" lon="4.944474">
        <ele>-2.351948</ele>
        <time>2026-04-13T19:35:06.891Z</time>
      </trkpt>
      <trkpt lat="52.278050" lon="4.944022">
        <ele>-2.366986</ele>
        <time>2026-04-13T19:35:10.856Z</time>
      </trkpt>
      <trkpt lat="52.277971" lon="4.942973">
        <ele>-2.560278</ele>
        <time>2026-04-13T19:35:19.454Z</time>
      </trkpt>
      <trkpt lat="52.277984" lon="4.942695">
        <ele>-2.611268</ele>
        <time>2026-04-13T19:35:21.742Z</time>
      </trkpt>
      <trkpt lat="52.278034" lon="4.942405">
        <ele>-2.666370</ele>
        <time>2026-04-13T19:35:24.235Z</time>
      </trkpt>
      <trkpt lat="52.278221" lon="4.941928">
        <ele>-2.769976</ele>
        <time>2026-04-13T19:35:28.970Z</time>
      </trkpt>
      <trkpt lat="52.278729" lon="4.940977">
        <ele>-2.808578</ele>
        <time>2026-04-13T19:35:40.342Z</time>
      </trkpt>
      <trkpt lat="52.278892" lon="4.940591">
        <ele>-2.772201</ele>
        <time>2026-04-13T19:35:44.753Z</time>
      </trkpt>
      <trkpt lat="52.278960" lon="4.940273">
        <ele>-2.746073</ele>
        <time>2026-04-13T19:35:47.988Z</time>
      </trkpt>
      <trkpt lat="52.278989" lon="4.939322">
        <ele>-2.672221</ele>
        <time>2026-04-13T19:35:57.373Z</time>
      </trkpt>
      <trkpt lat="52.279199" lon="4.938578">
        <ele>-2.637386</ele>
        <time>2026-04-13T19:36:05.248Z</time>
      </trkpt>
      <trkpt lat="52.279257" lon="4.938166">
        <ele>-2.636894</ele>
        <time>2026-04-13T19:36:09.230Z</time>
      </trkpt>
      <trkpt lat="52.279341" lon="4.937387">
        <ele>-2.635974</ele>
        <time>2026-04-13T19:36:16.574Z</time>
      </trkpt>
      <trkpt lat="52.279396" lon="4.937191">
        <ele>-2.635723</ele>
        <time>2026-04-13T19:36:18.522Z</time>
      </trkpt>
      <trkpt lat="52.279607" lon="4.936845">
        <ele>-2.635155</ele>
        <time>2026-04-13T19:36:22.767Z</time>
      </trkpt>
      <trkpt lat="52.279838" lon="4.936483">
        <ele>-2.634546</ele>
        <time>2026-04-13T19:36:27.158Z</time>
      </trkpt>
      <trkpt lat="52.280001" lon="4.936169">
        <ele>-2.639046</ele>
        <time>2026-04-13T19:36:30.628Z</time>
      </trkpt>
      <trkpt lat="52.280244" lon="4.935314">
        <ele>-2.654201</ele>
        <time>2026-04-13T19:36:38.787Z</time>
      </trkpt>
      <trkpt lat="52.280520" lon="4.934116">
        <ele>-2.674779</ele>
        <time>2026-04-13T19:36:50.575Z</time>
      </trkpt>
      <trkpt lat="52.280582" lon="4.933755">
        <ele>-2.680806</ele>
        <time>2026-04-13T19:36:54.179Z</time>
      </trkpt>
      <trkpt lat="52.280564" lon="4.933446">
        <ele>-2.658425</ele>
        <time>2026-04-13T19:36:57.196Z</time>
      </trkpt>
      <trkpt lat="52.280445" lon="4.932818">
        <ele>-2.599003</ele>
        <time>2026-04-13T19:37:03.645Z</time>
      </trkpt>
      <trkpt lat="52.280397" lon="4.932224">
        <ele>-2.544849</ele>
        <time>2026-04-13T19:37:09.467Z</time>
      </trkpt>
      <trkpt lat="52.280300" lon="4.931582">
        <ele>-2.485079</ele>
        <time>2026-04-13T19:37:15.861Z</time>
      </trkpt>
      <trkpt lat="52.279785" lon="4.930034">
        <ele>-2.441976</ele>
        <time>2026-04-13T19:37:31.692Z</time>
      </trkpt>
      <trkpt lat="52.279378" lon="4.929052">
        <ele>-2.472947</ele>
        <time>2026-04-13T19:37:42.027Z</time>
      </trkpt>
      <trkpt lat="52.279338" lon="4.928801">
        <ele>-2.479720</ele>
        <time>2026-04-13T19:37:44.326Z</time>
      </trkpt>
      <trkpt lat="52.279310" lon="4.928374">
        <ele>-2.490934</ele>
        <time>2026-04-13T19:37:48.174Z</time>
      </trkpt>
      <trkpt lat="52.279306" lon="4.927946">
        <ele>-2.503507</ele>
        <time>2026-04-13T19:37:52.088Z</time>
      </trkpt>
      <trkpt lat="52.279313" lon="4.927477">
        <ele>-2.517576</ele>
        <time>2026-04-13T19:37:56.444Z</time>
      </trkpt>
      <trkpt lat="52.279367" lon="4.926688">
        <ele>-2.541384</ele>
        <time>2026-04-13T19:38:03.744Z</time>
      </trkpt>
      <trkpt lat="52.279387" lon="4.926432">
        <ele>-2.549124</ele>
        <time>2026-04-13T19:38:06.077Z</time>
      </trkpt>
      <trkpt lat="52.279399" lon="4.926317">
        <ele>-2.552622</ele>
        <time>2026-04-13T19:38:07.133Z</time>
      </trkpt>
      <trkpt lat="52.279425" lon="4.926137">
        <ele>-2.558168</ele>
        <time>2026-04-13T19:38:09.393Z</time>
      </trkpt>
      <trkpt lat="52.279438" lon="4.926012">
        <ele>-2.561971</ele>
        <time>2026-04-13T19:38:10.521Z</time>
      </trkpt>
      <trkpt lat="52.279409" lon="4.926001">
        <ele>-2.563430</ele>
        <time>2026-04-13T19:38:10.940Z</time>
      </trkpt>
      <trkpt lat="52.278368" lon="4.925715">
        <ele>-2.572079</ele>
        <time>2026-04-13T19:38:25.966Z</time>
      </trkpt>
      <trkpt lat="52.278202" lon="4.925699">
        <ele>-2.569992</ele>
        <time>2026-04-13T19:38:28.308Z</time>
      </trkpt>
      <trkpt lat="52.278008" lon="4.925734">
        <ele>-2.567541</ele>
        <time>2026-04-13T19:38:31.106Z</time>
      </trkpt>
      <trkpt lat="52.277743" lon="4.925877">
        <ele>-2.564038</ele>
        <time>2026-04-13T19:38:35.175Z</time>
      </trkpt>
      <trkpt lat="52.276935" lon="4.926440">
        <ele>-2.400150</ele>
        <time>2026-04-13T19:38:49.297Z</time>
      </trkpt>
      <trkpt lat="52.276812" lon="4.926490">
        <ele>-2.352444</ele>
        <time>2026-04-13T19:38:51.416Z</time>
      </trkpt>
      <trkpt lat="52.276393" lon="4.926477">
        <ele>-2.194707</ele>
        <time>2026-04-13T19:38:58.575Z</time>
      </trkpt>
      <trkpt lat="52.276153" lon="4.926458">
        <ele>-2.104268</ele>
        <time>2026-04-13T19:39:02.738Z</time>
      </trkpt>
      <trkpt lat="52.275397" lon="4.926394">
        <ele>-1.897475</ele>
        <time>2026-04-13T19:39:14.974Z</time>
      </trkpt>
      <trkpt lat="52.275319" lon="4.926407">
        <ele>-1.905184</ele>
        <time>2026-04-13T19:39:16.180Z</time>
      </trkpt>
      <trkpt lat="52.275230" lon="4.926437">
        <ele>-1.914118</ele>
        <time>2026-04-13T19:39:17.574Z</time>
      </trkpt>
      <trkpt lat="52.274788" lon="4.926833">
        <ele>-1.963675</ele>
        <time>2026-04-13T19:39:24.853Z</time>
      </trkpt>
      <trkpt lat="52.274038" lon="4.927360">
        <ele>-2.043939</ele>
        <time>2026-04-13T19:39:36.177Z</time>
      </trkpt>
      <trkpt lat="52.273894" lon="4.927431">
        <ele>-2.059844</ele>
        <time>2026-04-13T19:39:38.253Z</time>
      </trkpt>
      <trkpt lat="52.273660" lon="4.927445">
        <ele>-2.125791</ele>
        <time>2026-04-13T19:39:41.526Z</time>
      </trkpt>
      <trkpt lat="52.273417" lon="4.927286">
        <ele>-2.199510</ele>
        <time>2026-04-13T19:39:45.191Z</time>
      </trkpt>
      <trkpt lat="52.273140" lon="4.927022">
        <ele>-2.289819</ele>
        <time>2026-04-13T19:39:49.616Z</time>
      </trkpt>
      <trkpt lat="52.272712" lon="4.926384">
        <ele>-2.452971</ele>
        <time>2026-04-13T19:39:57.538Z</time>
      </trkpt>
      <trkpt lat="52.272623" lon="4.926294">
        <ele>-2.482447</ele>
        <time>2026-04-13T19:39:58.996Z</time>
      </trkpt>
      <trkpt lat="52.272532" lon="4.926257">
        <ele>-2.508857</ele>
        <time>2026-04-13T19:40:00.298Z</time>
      </trkpt>
      <trkpt lat="52.272427" lon="4.926288">
        <ele>-2.538907</ele>
        <time>2026-04-13T19:40:01.789Z</time>
      </trkpt>
      <trkpt lat="52.272238" lon="4.926441">
        <ele>-2.552953</ele>
        <time>2026-04-13T19:40:04.750Z</time>
      </trkpt>
      <trkpt lat="52.272140" lon="4.926543">
        <ele>-2.541530</ele>
        <time>2026-04-13T19:40:06.377Z</time>
      </trkpt>
      <trkpt lat="52.271991" lon="4.926800">
        <ele>-2.520232</ele>
        <time>2026-04-13T19:40:09.469Z</time>
      </trkpt>
      <trkpt lat="52.271757" lon="4.927550">
        <ele>-2.469587</ele>
        <time>2026-04-13T19:40:17.096Z</time>
      </trkpt>
      <trkpt lat="52.271685" lon="4.927696">
        <ele>-2.458306</ele>
        <time>2026-04-13T19:40:18.846Z</time>
      </trkpt>
      <trkpt lat="52.271584" lon="4.927779">
        <ele>-2.447192</ele>
        <time>2026-04-13T19:40:20.612Z</time>
      </trkpt>
      <trkpt lat="52.271182" lon="4.927858">
        <ele>-2.407386</ele>
        <time>2026-04-13T19:40:27.219Z</time>
      </trkpt>
      <trkpt lat="52.270497" lon="4.928218">
        <ele>-2.173196</ele>
        <time>2026-04-13T19:40:39.116Z</time>
      </trkpt>
      <trkpt lat="52.270347" lon="4.928351">
        <ele>-2.102873</ele>
        <time>2026-04-13T19:40:41.962Z</time>
      </trkpt>
      <trkpt lat="52.270226" lon="4.928522">
        <ele>-2.036955</ele>
        <time>2026-04-13T19:40:44.657Z</time>
      </trkpt>
      <trkpt lat="52.269967" lon="4.929061">
        <ele>-1.864146</ele>
        <time>2026-04-13T19:40:51.802Z</time>
      </trkpt>
      <trkpt lat="52.269867" lon="4.929167">
        <ele>-1.815030</ele>
        <time>2026-04-13T19:40:53.810Z</time>
      </trkpt>
      <trkpt lat="52.269635" lon="4.929246">
        <ele>-1.717377</ele>
        <time>2026-04-13T19:40:57.711Z</time>
      </trkpt>
      <trkpt lat="52.269347" lon="4.929287">
        <ele>-1.664277</ele>
        <time>2026-04-13T19:41:02.329Z</time>
      </trkpt>
      <trkpt lat="52.269061" lon="4.929253">
        <ele>-1.707144</ele>
        <time>2026-04-13T19:41:06.618Z</time>
      </trkpt>
      <trkpt lat="52.268787" lon="4.929121">
        <ele>-1.749847</ele>
        <time>2026-04-13T19:41:10.735Z</time>
      </trkpt>
      <trkpt lat="52.268344" lon="4.928760">
        <ele>-1.823849</ele>
        <time>2026-04-13T19:41:17.695Z</time>
      </trkpt>
      <trkpt lat="52.268276" lon="4.928660">
        <ele>-1.837524</ele>
        <time>2026-04-13T19:41:18.948Z</time>
      </trkpt>
      <trkpt lat="52.268163" lon="4.928394">
        <ele>-1.867147</ele>
        <time>2026-04-13T19:41:21.625Z</time>
      </trkpt>
      <trkpt lat="52.268031" lon="4.927975">
        <ele>-1.910259</ele>
        <time>2026-04-13T19:41:25.466Z</time>
      </trkpt>
      <trkpt lat="52.267905" lon="4.927227">
        <ele>-1.967328</ele>
        <time>2026-04-13T19:41:31.884Z</time>
      </trkpt>
      <trkpt lat="52.267734" lon="4.926206">
        <ele>-2.043656</ele>
        <time>2026-04-13T19:41:41.187Z</time>
      </trkpt>
      <trkpt lat="52.267625" lon="4.925778">
        <ele>-2.077084</ele>
        <time>2026-04-13T19:41:45.440Z</time>
      </trkpt>
      <trkpt lat="52.267479" lon="4.925351">
        <ele>-2.112353</ele>
        <time>2026-04-13T19:41:49.966Z</time>
      </trkpt>
      <trkpt lat="52.267223" lon="4.924828">
        <ele>-2.105931</ele>
        <time>2026-04-13T19:41:56.198Z</time>
      </trkpt>
      <trkpt lat="52.266953" lon="4.924499">
        <ele>-2.080089</ele>
        <time>2026-04-13T19:42:01.323Z</time>
      </trkpt>
      <trkpt lat="52.266581" lon="4.924262">
        <ele>-2.049455</ele>
        <time>2026-04-13T19:42:07.364Z</time>
      </trkpt>
      <trkpt lat="52.265918" lon="4.924029">
        <ele>-1.997424</ele>
        <time>2026-04-13T19:42:17.484Z</time>
      </trkpt>
      <trkpt lat="52.265299" lon="4.923853">
        <ele>-1.897778</ele>
        <time>2026-04-13T19:42:26.912Z</time>
      </trkpt>
      <trkpt lat="52.264962" lon="4.923799">
        <ele>-1.838628</ele>
        <time>2026-04-13T19:42:32.165Z</time>
      </trkpt>
      <trkpt lat="52.264462" lon="4.923749">
        <ele>-1.751125</ele>
        <time>2026-04-13T19:42:40.159Z</time>
      </trkpt>
      <trkpt lat="52.263845" lon="4.923739">
        <ele>-1.666202</ele>
        <time>2026-04-13T19:42:49.986Z</time>
      </trkpt>
      <trkpt lat="52.263662" lon="4.923633">
        <ele>-1.656532</ele>
        <time>2026-04-13T19:42:53.070Z</time>
      </trkpt>
      <trkpt lat="52.263473" lon="4.923431">
        <ele>-1.645284</ele>
        <time>2026-04-13T19:42:56.609Z</time>
      </trkpt>
      <trkpt lat="52.263188" lon="4.923028">
        <ele>-1.626512</ele>
        <time>2026-04-13T19:43:02.394Z</time>
      </trkpt>
      <trkpt lat="52.262937" lon="4.922524">
        <ele>-1.606705</ele>
        <time>2026-04-13T19:43:08.256Z</time>
      </trkpt>
      <trkpt lat="52.262735" lon="4.921927">
        <ele>-1.585910</ele>
        <time>2026-04-13T19:43:14.185Z</time>
      </trkpt>
      <trkpt lat="52.262677" lon="4.921689">
        <ele>-1.608166</ele>
        <time>2026-04-13T19:43:16.412Z</time>
      </trkpt>
      <trkpt lat="52.262529" lon="4.920660">
        <ele>-1.702804</ele>
        <time>2026-04-13T19:43:25.661Z</time>
      </trkpt>
      <trkpt lat="52.262107" lon="4.918790">
        <ele>-1.853126</ele>
        <time>2026-04-13T19:43:43.027Z</time>
      </trkpt>
      <trkpt lat="52.262019" lon="4.918535">
        <ele>-1.856585</ele>
        <time>2026-04-13T19:43:45.564Z</time>
      </trkpt>
      <trkpt lat="52.261838" lon="4.918167">
        <ele>-1.862164</ele>
        <time>2026-04-13T19:43:49.698Z</time>
      </trkpt>
      <trkpt lat="52.261687" lon="4.917953">
        <ele>-1.866023</ele>
        <time>2026-04-13T19:43:52.552Z</time>
      </trkpt>
      <trkpt lat="52.261612" lon="4.917890">
        <ele>-1.867651</ele>
        <time>2026-04-13T19:43:53.776Z</time>
      </trkpt>
      <trkpt lat="52.261477" lon="4.917834">
        <ele>-1.870340</ele>
        <time>2026-04-13T19:43:55.783Z</time>
      </trkpt>
      <trkpt lat="52.261194" lon="4.917859">
        <ele>-1.875812</ele>
        <time>2026-04-13T19:43:59.878Z</time>
      </trkpt>
      <trkpt lat="52.259601" lon="4.918319">
        <ele>-1.508264</ele>
        <time>2026-04-13T19:44:25.414Z</time>
      </trkpt>
      <trkpt lat="52.259255" lon="4.918379">
        <ele>-1.400835</ele>
        <time>2026-04-13T19:44:31.327Z</time>
      </trkpt>
      <trkpt lat="52.258785" lon="4.918274">
        <ele>-1.263024</ele>
        <time>2026-04-13T19:44:39.341Z</time>
      </trkpt>
      <trkpt lat="52.258152" lon="4.918063">
        <ele>-1.086925</ele>
        <time>2026-04-13T19:44:50.149Z</time>
      </trkpt>
      <trkpt lat="52.257828" lon="4.917871">
        <ele>-0.992978</ele>
        <time>2026-04-13T19:44:55.639Z</time>
      </trkpt>
      <trkpt lat="52.257602" lon="4.917705">
        <ele>-0.925435</ele>
        <time>2026-04-13T19:44:59.425Z</time>
      </trkpt>
      <trkpt lat="52.257299" lon="4.917340">
        <ele>-0.850427</ele>
        <time>2026-04-13T19:45:04.999Z</time>
      </trkpt>
      <trkpt lat="52.256765" lon="4.916584">
        <ele>-1.009026</ele>
        <time>2026-04-13T19:45:15.069Z</time>
      </trkpt>
      <trkpt lat="52.256542" lon="4.916310">
        <ele>-1.071655</ele>
        <time>2026-04-13T19:45:18.950Z</time>
      </trkpt>
      <trkpt lat="52.256326" lon="4.915971">
        <ele>-1.138883</ele>
        <time>2026-04-13T19:45:23.064Z</time>
      </trkpt>
      <trkpt lat="52.255790" lon="4.914759">
        <ele>-1.345905</ele>
        <time>2026-04-13T19:45:35.576Z</time>
      </trkpt>
      <trkpt lat="52.255415" lon="4.914097">
        <ele>-1.471748</ele>
        <time>2026-04-13T19:45:43.164Z</time>
      </trkpt>
      <trkpt lat="52.255189" lon="4.913621">
        <ele>-1.555796</ele>
        <time>2026-04-13T19:45:48.393Z</time>
      </trkpt>
      <trkpt lat="52.254971" lon="4.913340">
        <ele>-1.619089</ele>
        <time>2026-04-13T19:45:52.395Z</time>
      </trkpt>
      <trkpt lat="52.254670" lon="4.913103">
        <ele>-1.648344</ele>
        <time>2026-04-13T19:45:57.232Z</time>
      </trkpt>
      <trkpt lat="52.254164" lon="4.912318">
        <ele>-1.636403</ele>
        <time>2026-04-13T19:46:07.229Z</time>
      </trkpt>
      <trkpt lat="52.254109" lon="4.912256">
        <ele>-1.635260</ele>
        <time>2026-04-13T19:46:08.218Z</time>
      </trkpt>
      <trkpt lat="52.253882" lon="4.911996">
        <ele>-1.630516</ele>
        <time>2026-04-13T19:46:12.416Z</time>
      </trkpt>
      <trkpt lat="52.253618" lon="4.911755">
        <ele>-1.625342</ele>
        <time>2026-04-13T19:46:17.035Z</time>
      </trkpt>
      <trkpt lat="52.253308" lon="4.911550">
        <ele>-1.613605</ele>
        <time>2026-04-13T19:46:22.286Z</time>
      </trkpt>
      <trkpt lat="52.252814" lon="4.910941">
        <ele>-1.550979</ele>
        <time>2026-04-13T19:46:31.995Z</time>
      </trkpt>
      <trkpt lat="52.252675" lon="4.910692">
        <ele>-1.530104</ele>
        <time>2026-04-13T19:46:35.292Z</time>
      </trkpt>
      <trkpt lat="52.252571" lon="4.910366">
        <ele>-1.507332</ele>
        <time>2026-04-13T19:46:38.856Z</time>
      </trkpt>
      <trkpt lat="52.252509" lon="4.909847">
        <ele>-1.474575</ele>
        <time>2026-04-13T19:46:43.856Z</time>
      </trkpt>
      <trkpt lat="52.252529" lon="4.909642">
        <ele>-1.461716</ele>
        <time>2026-04-13T19:46:45.759Z</time>
      </trkpt>
      <trkpt lat="52.252561" lon="4.909410">
        <ele>-1.446984</ele>
        <time>2026-04-13T19:46:47.888Z</time>
      </trkpt>
      <trkpt lat="52.252853" lon="4.908332">
        <ele>-1.720921</ele>
        <time>2026-04-13T19:46:57.593Z</time>
      </trkpt>
      <trkpt lat="52.253025" lon="4.907306">
        <ele>-2.007437</ele>
        <time>2026-04-13T19:47:05.949Z</time>
      </trkpt>
      <trkpt lat="52.253109" lon="4.906684">
        <ele>-2.178994</ele>
        <time>2026-04-13T19:47:11.048Z</time>
      </trkpt>
      <trkpt lat="52.253229" lon="4.905890">
        <ele>-2.138600</ele>
        <time>2026-04-13T19:47:18.029Z</time>
      </trkpt>
      <trkpt lat="52.253326" lon="4.905045">
        <ele>-2.013173</ele>
        <time>2026-04-13T19:47:26.296Z</time>
      </trkpt>
      <trkpt lat="52.253370" lon="4.903849">
        <ele>-1.838371</ele>
        <time>2026-04-13T19:47:39.094Z</time>
      </trkpt>
      <trkpt lat="52.253374" lon="4.903707">
        <ele>-1.817632</ele>
        <time>2026-04-13T19:47:40.574Z</time>
      </trkpt>
      <trkpt lat="52.253342" lon="4.903153">
        <ele>-1.850721</ele>
        <time>2026-04-13T19:47:46.302Z</time>
      </trkpt>
      <trkpt lat="52.253284" lon="4.902830">
        <ele>-1.887831</ele>
        <time>2026-04-13T19:47:49.645Z</time>
      </trkpt>
      <trkpt lat="52.253177" lon="4.902370">
        <ele>-1.942082</ele>
        <time>2026-04-13T19:47:54.250Z</time>
      </trkpt>
      <trkpt lat="52.253089" lon="4.902444">
        <ele>-1.959907</ele>
        <time>2026-04-13T19:47:55.683Z</time>
      </trkpt>
      <trkpt lat="52.253038" lon="4.902492">
        <ele>-1.970507</ele>
        <time>2026-04-13T19:47:56.525Z</time>
      </trkpt>
      <trkpt lat="52.252916" lon="4.902601">
        <ele>-1.995550</ele>
        <time>2026-04-13T19:47:58.454Z</time>
      </trkpt>
      <trkpt lat="52.252790" lon="4.902192">
        <ele>-2.046029</ele>
        <time>2026-04-13T19:48:02.155Z</time>
      </trkpt>
      <trkpt lat="52.252629" lon="4.901856">
        <ele>-2.093071</ele>
        <time>2026-04-13T19:48:05.426Z</time>
      </trkpt>
      <trkpt lat="52.252213" lon="4.901293">
        <ele>-2.421333</ele>
        <time>2026-04-13T19:48:12.116Z</time>
      </trkpt>
      <trkpt lat="52.251771" lon="4.900787">
        <ele>-2.864445</ele>
        <time>2026-04-13T19:48:18.638Z</time>
      </trkpt>
      <trkpt lat="52.251360" lon="4.900300">
        <ele>-3.281292</ele>
        <time>2026-04-13T19:48:24.774Z</time>
      </trkpt>
      <trkpt lat="52.251163" lon="4.899985">
        <ele>-3.507615</ele>
        <time>2026-04-13T19:48:28.325Z</time>
      </trkpt>
      <trkpt lat="52.250850" lon="4.898967">
        <ele>-3.481198</ele>
        <time>2026-04-13T19:48:38.558Z</time>
      </trkpt>
      <trkpt lat="52.250822" lon="4.898745">
        <ele>-3.452389</ele>
        <time>2026-04-13T19:48:40.797Z</time>
      </trkpt>
      <trkpt lat="52.250835" lon="4.898523">
        <ele>-3.424044</ele>
        <time>2026-04-13T19:48:43.061Z</time>
      </trkpt>
      <trkpt lat="52.251027" lon="4.897636">
        <ele>-3.304468</ele>
        <time>2026-04-13T19:48:52.879Z</time>
      </trkpt>
      <trkpt lat="52.251116" lon="4.896727">
        <ele>-3.253285</ele>
        <time>2026-04-13T19:49:02.517Z</time>
      </trkpt>
      <trkpt lat="52.251162" lon="4.896442">
        <ele>-3.275651</ele>
        <time>2026-04-13T19:49:05.345Z</time>
      </trkpt>
      <trkpt lat="52.251234" lon="4.896205">
        <ele>-3.295729</ele>
        <time>2026-04-13T19:49:07.784Z</time>
      </trkpt>
      <trkpt lat="52.251256" lon="4.896142">
        <ele>-3.301233</ele>
        <time>2026-04-13T19:49:08.448Z</time>
      </trkpt>
      <trkpt lat="52.251529" lon="4.895523">
        <ele>-3.359125</ele>
        <time>2026-04-13T19:49:14.967Z</time>
      </trkpt>
      <trkpt lat="52.251656" lon="4.895367">
        <ele>-3.378822</ele>
        <time>2026-04-13T19:49:17.090Z</time>
      </trkpt>
      <trkpt lat="52.251902" lon="4.895161">
        <ele>-3.413088</ele>
        <time>2026-04-13T19:49:20.760Z</time>
      </trkpt>
      <trkpt lat="52.252051" lon="4.894806">
        <ele>-3.445751</ele>
        <time>2026-04-13T19:49:24.263Z</time>
      </trkpt>
      <trkpt lat="52.252273" lon="4.894382">
        <ele>-3.566490</ele>
        <time>2026-04-13T19:49:28.794Z</time>
      </trkpt>
      <trkpt lat="52.252479" lon="4.893731">
        <ele>-3.741686</ele>
        <time>2026-04-13T19:49:34.815Z</time>
      </trkpt>
      <trkpt lat="52.252863" lon="4.893037">
        <ele>-3.965325</ele>
        <time>2026-04-13T19:49:42.539Z</time>
      </trkpt>
      <trkpt lat="52.252924" lon="4.892885">
        <ele>-4.008775</ele>
        <time>2026-04-13T19:49:44.039Z</time>
      </trkpt>
      <trkpt lat="52.253029" lon="4.892540">
        <ele>-4.100883</ele>
        <time>2026-04-13T19:49:47.248Z</time>
      </trkpt>
      <trkpt lat="52.253110" lon="4.892144">
        <ele>-4.177039</ele>
        <time>2026-04-13T19:49:50.765Z</time>
      </trkpt>
      <trkpt lat="52.253170" lon="4.891540">
        <ele>-4.249166</ele>
        <time>2026-04-13T19:49:56.127Z</time>
      </trkpt>
      <trkpt lat="52.253140" lon="4.891253">
        <ele>-4.283485</ele>
        <time>2026-04-13T19:49:58.782Z</time>
      </trkpt>
      <trkpt lat="52.253093" lon="4.891084">
        <ele>-4.305365</ele>
        <time>2026-04-13T19:50:00.449Z</time>
      </trkpt>
      <trkpt lat="52.253017" lon="4.890914">
        <ele>-4.330178</ele>
        <time>2026-04-13T19:50:02.304Z</time>
      </trkpt>
      <trkpt lat="52.252855" lon="4.890668">
        <ele>-4.372767</ele>
        <time>2026-04-13T19:50:05.395Z</time>
      </trkpt>
      <trkpt lat="52.252599" lon="4.890378">
        <ele>-4.432752</ele>
        <time>2026-04-13T19:50:09.719Z</time>
      </trkpt>
      <trkpt lat="52.252344" lon="4.890088">
        <ele>-4.492579</ele>
        <time>2026-04-13T19:50:14.120Z</time>
      </trkpt>
      <trkpt lat="52.251914" lon="4.889584">
        <ele>-4.572236</ele>
        <time>2026-04-13T19:50:21.781Z</time>
      </trkpt>
      <trkpt lat="52.251559" lon="4.888956">
        <ele>-4.649179</ele>
        <time>2026-04-13T19:50:29.093Z</time>
      </trkpt>
      <trkpt lat="52.251111" lon="4.888417">
        <ele>-4.730992</ele>
        <time>2026-04-13T19:50:36.743Z</time>
      </trkpt>
      <trkpt lat="52.251007" lon="4.888197">
        <ele>-4.756012</ele>
        <time>2026-04-13T19:50:39.298Z</time>
      </trkpt>
      <trkpt lat="52.250860" lon="4.887745">
        <ele>-4.677505</ele>
        <time>2026-04-13T19:50:44.144Z</time>
      </trkpt>
      <trkpt lat="52.250770" lon="4.887295">
        <ele>-4.577644</ele>
        <time>2026-04-13T19:50:48.775Z</time>
      </trkpt>
      <trkpt lat="52.250771" lon="4.886995">
        <ele>-4.514360</ele>
        <time>2026-04-13T19:50:51.733Z</time>
      </trkpt>
      <trkpt lat="52.250807" lon="4.886737">
        <ele>-4.458541</ele>
        <time>2026-04-13T19:50:54.362Z</time>
      </trkpt>
      <trkpt lat="52.250867" lon="4.886530">
        <ele>-4.410229</ele>
        <time>2026-04-13T19:50:56.640Z</time>
      </trkpt>
      <trkpt lat="52.250972" lon="4.886283">
        <ele>-4.346797</ele>
        <time>2026-04-13T19:50:59.688Z</time>
      </trkpt>
      <trkpt lat="52.251135" lon="4.885976">
        <ele>-4.261077</ele>
        <time>2026-04-13T19:51:03.912Z</time>
      </trkpt>
      <trkpt lat="52.251430" lon="4.885539">
        <ele>-4.117013</ele>
        <time>2026-04-13T19:51:10.894Z</time>
      </trkpt>
      <trkpt lat="52.252969" lon="4.884352">
        <ele>-3.341466</ele>
        <time>2026-04-13T19:51:39.159Z</time>
      </trkpt>
      <trkpt lat="52.253130" lon="4.884183">
        <ele>-3.258791</ele>
        <time>2026-04-13T19:51:42.186Z</time>
      </trkpt>
      <trkpt lat="52.253306" lon="4.883918">
        <ele>-3.156660</ele>
        <time>2026-04-13T19:51:46.031Z</time>
      </trkpt>
      <trkpt lat="52.253524" lon="4.883429">
        <ele>-2.998652</ele>
        <time>2026-04-13T19:51:52.194Z</time>
      </trkpt>
      <trkpt lat="52.253601" lon="4.883055">
        <ele>-2.895586</ele>
        <time>2026-04-13T19:51:56.315Z</time>
      </trkpt>
      <trkpt lat="52.253584" lon="4.882652">
        <ele>-2.790072</ele>
        <time>2026-04-13T19:52:00.566Z</time>
      </trkpt>
      <trkpt lat="52.253442" lon="4.881803">
        <ele>-2.560183</ele>
        <time>2026-04-13T19:52:09.595Z</time>
      </trkpt>
      <trkpt lat="52.253346" lon="4.881134">
        <ele>-2.701170</ele>
        <time>2026-04-13T19:52:16.221Z</time>
      </trkpt>
      <trkpt lat="52.253185" lon="4.880381">
        <ele>-2.869381</ele>
        <time>2026-04-13T19:52:23.251Z</time>
      </trkpt>
      <trkpt lat="52.253006" lon="4.879235">
        <ele>-3.118810</ele>
        <time>2026-04-13T19:52:32.395Z</time>
      </trkpt>
      <trkpt lat="52.252882" lon="4.878459">
        <ele>-3.409327</ele>
        <time>2026-04-13T19:52:38.368Z</time>
      </trkpt>
      <trkpt lat="52.252794" lon="4.878045">
        <ele>-3.603459</ele>
        <time>2026-04-13T19:52:41.778Z</time>
      </trkpt>
      <trkpt lat="52.252434" lon="4.877193">
        <ele>-4.062044</ele>
        <time>2026-04-13T19:52:49.827Z</time>
      </trkpt>
      <trkpt lat="52.252113" lon="4.876564">
        <ele>-4.424796</ele>
        <time>2026-04-13T19:52:56.097Z</time>
      </trkpt>
      <trkpt lat="52.251612" lon="4.875701">
        <ele>-4.272129</ele>
        <time>2026-04-13T19:53:06.410Z</time>
      </trkpt>
      <trkpt lat="52.251346" lon="4.875244">
        <ele>-4.149739</ele>
        <time>2026-04-13T19:53:12.784Z</time>
      </trkpt>
      <trkpt lat="52.251083" lon="4.874917">
        <ele>-4.044951</ele>
        <time>2026-04-13T19:53:18.346Z</time>
      </trkpt>
      <trkpt lat="52.250945" lon="4.874701">
        <ele>-3.984356</ele>
        <time>2026-04-13T19:53:21.814Z</time>
      </trkpt>
      <trkpt lat="52.250729" lon="4.874298">
        <ele>-3.831743</ele>
        <time>2026-04-13T19:53:28.138Z</time>
      </trkpt>
      <trkpt lat="52.250663" lon="4.874114">
        <ele>-3.719731</ele>
        <time>2026-04-13T19:53:30.685Z</time>
      </trkpt>
      <trkpt lat="52.250646" lon="4.873909">
        <ele>-3.611072</ele>
        <time>2026-04-13T19:53:33.163Z</time>
      </trkpt>
      <trkpt lat="52.250662" lon="4.873619">
        <ele>-3.458134</ele>
        <time>2026-04-13T19:53:36.760Z</time>
      </trkpt>
      <trkpt lat="52.250829" lon="4.872894">
        <ele>-3.051270</ele>
        <time>2026-04-13T19:53:45.714Z</time>
      </trkpt>
      <trkpt lat="52.250836" lon="4.872241">
        <ele>-2.708233</ele>
        <time>2026-04-13T19:53:52.534Z</time>
      </trkpt>
      <trkpt lat="52.250834" lon="4.868235">
        <ele>-1.425823</ele>
        <time>2026-04-13T19:54:35.164Z</time>
      </trkpt>
      <trkpt lat="52.250820" lon="4.867544">
        <ele>-1.578174</ele>
        <time>2026-04-13T19:54:43.542Z</time>
      </trkpt>
      <trkpt lat="52.250821" lon="4.867251">
        <ele>-1.642740</ele>
        <time>2026-04-13T19:54:46.949Z</time>
      </trkpt>
      <trkpt lat="52.248292" lon="4.867310">
        <ele>-3.201324</ele>
        <time>2026-04-13T19:55:31.813Z</time>
      </trkpt>
      <trkpt lat="52.248092" lon="4.867387">
        <ele>-3.359162</ele>
        <time>2026-04-13T19:55:35.469Z</time>
      </trkpt>
      <trkpt lat="52.245328" lon="4.870378">
        <ele>-4.779438</ele>
        <time>2026-04-13T19:56:37.006Z</time>
      </trkpt>
      <trkpt lat="52.244848" lon="4.870884">
        <ele>-4.809374</ele>
        <time>2026-04-13T19:56:49.504Z</time>
      </trkpt>
      <trkpt lat="52.244249" lon="4.871431">
        <ele>-4.673455</ele>
        <time>2026-04-13T19:57:04.373Z</time>
      </trkpt>
      <trkpt lat="52.244089" lon="4.871577">
        <ele>-4.637156</ele>
        <time>2026-04-13T19:57:08.273Z</time>
      </trkpt>
      <trkpt lat="52.243559" lon="4.872061">
        <ele>-4.516893</ele>
        <time>2026-04-13T19:57:20.642Z</time>
      </trkpt>
      <trkpt lat="52.242329" lon="4.873179">
        <ele>-4.438092</ele>
        <time>2026-04-13T19:57:41.420Z</time>
      </trkpt>
      <trkpt lat="52.242276" lon="4.873228">
        <ele>-4.434919</ele>
        <time>2026-04-13T19:57:42.415Z</time>
      </trkpt>
      <trkpt lat="52.242025" lon="4.872712">
        <ele>-4.423147</ele>
        <time>2026-04-13T19:57:48.851Z</time>
      </trkpt>
      <trkpt lat="52.241518" lon="4.871670">
        <ele>-4.590075</ele>
        <time>2026-04-13T19:58:01.362Z</time>
      </trkpt>
      <trkpt lat="52.239444" lon="4.867421">
        <ele>-5.712346</ele>
        <time>2026-04-13T19:58:45.257Z</time>
      </trkpt>
      <trkpt lat="52.239160" lon="4.866850">
        <ele>-5.725785</ele>
        <time>2026-04-13T19:58:51.628Z</time>
      </trkpt>
      <trkpt lat="52.238517" lon="4.865557">
        <ele>-5.651808</ele>
        <time>2026-04-13T19:59:08.595Z</time>
      </trkpt>
      <trkpt lat="52.238357" lon="4.865236">
        <ele>-5.554702</ele>
        <time>2026-04-13T19:59:13.144Z</time>
      </trkpt>
      <trkpt lat="52.238233" lon="4.864987">
        <ele>-5.479404</ele>
        <time>2026-04-13T19:59:16.587Z</time>
      </trkpt>
      <trkpt lat="52.237146" lon="4.862796">
        <ele>-5.078464</ele>
        <time>2026-04-13T19:59:43.699Z</time>
      </trkpt>
      <trkpt lat="52.237007" lon="4.862515">
        <ele>-5.085088</ele>
        <time>2026-04-13T19:59:46.887Z</time>
      </trkpt>
      <trkpt lat="52.236944" lon="4.862386">
        <ele>-5.088114</ele>
        <time>2026-04-13T19:59:48.318Z</time>
      </trkpt>
      <trkpt lat="52.236142" lon="4.860759">
        <ele>-5.059363</ele>
        <time>2026-04-13T20:00:06.627Z</time>
      </trkpt>
      <trkpt lat="52.235743" lon="4.859948">
        <ele>-4.979930</ele>
        <time>2026-04-13T20:00:16.206Z</time>
      </trkpt>
      <trkpt lat="52.234899" lon="4.858234">
        <ele>-4.922414</ele>
        <time>2026-04-13T20:00:37.880Z</time>
      </trkpt>
      <trkpt lat="52.234251" lon="4.856919">
        <ele>-4.977927</ele>
        <time>2026-04-13T20:00:53.267Z</time>
      </trkpt>
      <trkpt lat="52.234007" lon="4.856422">
        <ele>-5.097642</ele>
        <time>2026-04-13T20:00:58.026Z</time>
      </trkpt>
      <trkpt lat="52.233699" lon="4.855798">
        <ele>-5.322560</ele>
        <time>2026-04-13T20:01:04.117Z</time>
      </trkpt>
      <trkpt lat="52.233619" lon="4.855633">
        <ele>-5.381621</ele>
        <time>2026-04-13T20:01:06.526Z</time>
      </trkpt>
      <trkpt lat="52.233587" lon="4.855567">
        <ele>-5.405245</ele>
        <time>2026-04-13T20:01:07.192Z</time>
      </trkpt>
      <trkpt lat="52.233304" lon="4.854994">
        <ele>-5.611831</ele>
        <time>2026-04-13T20:01:13.287Z</time>
      </trkpt>
      <trkpt lat="52.233046" lon="4.854468">
        <ele>-5.800960</ele>
        <time>2026-04-13T20:01:19.027Z</time>
      </trkpt>
      <trkpt lat="52.232791" lon="4.853949">
        <ele>-5.747437</ele>
        <time>2026-04-13T20:01:25.230Z</time>
      </trkpt>
      <trkpt lat="52.231907" lon="4.852149">
        <ele>-5.519861</ele>
        <time>2026-04-13T20:01:48.239Z</time>
      </trkpt>
      <trkpt lat="52.231684" lon="4.851695">
        <ele>-5.510556</ele>
        <time>2026-04-13T20:01:53.170Z</time>
      </trkpt>
      <trkpt lat="52.231441" lon="4.851200">
        <ele>-5.500413</ele>
        <time>2026-04-13T20:01:58.722Z</time>
      </trkpt>
      <trkpt lat="52.231198" lon="4.850706">
        <ele>-5.490283</ele>
        <time>2026-04-13T20:02:04.462Z</time>
      </trkpt>
      <trkpt lat="52.230981" lon="4.850262">
        <ele>-5.481201</ele>
        <time>2026-04-13T20:02:09.663Z</time>
      </trkpt>
      <trkpt lat="52.230035" lon="4.848325">
        <ele>-5.553403</ele>
        <time>2026-04-13T20:02:32.554Z</time>
      </trkpt>
      <trkpt lat="52.229828" lon="4.847901">
        <ele>-5.575628</ele>
        <time>2026-04-13T20:02:37.235Z</time>
      </trkpt>
      <trkpt lat="52.229419" lon="4.847062">
        <ele>-5.631981</ele>
        <time>2026-04-13T20:02:46.256Z</time>
      </trkpt>
      <trkpt lat="52.229391" lon="4.847005">
        <ele>-5.636391</ele>
        <time>2026-04-13T20:02:46.861Z</time>
      </trkpt>
      <trkpt lat="52.229088" lon="4.846399">
        <ele>-5.683607</ele>
        <time>2026-04-13T20:02:53.225Z</time>
      </trkpt>
      <trkpt lat="52.228921" lon="4.846027">
        <ele>-5.711444</ele>
        <time>2026-04-13T20:02:57.150Z</time>
      </trkpt>
      <trkpt lat="52.228813" lon="4.845599">
        <ele>-5.739383</ele>
        <time>2026-04-13T20:03:01.676Z</time>
      </trkpt>
      <trkpt lat="52.228744" lon="4.845069">
        <ele>-5.764491</ele>
        <time>2026-04-13T20:03:07.105Z</time>
      </trkpt>
      <trkpt lat="52.228544" lon="4.844880">
        <ele>-5.672910</ele>
        <time>2026-04-13T20:03:10.837Z</time>
      </trkpt>
      <trkpt lat="52.228460" lon="4.844696">
        <ele>-5.617205</ele>
        <time>2026-04-13T20:03:13.128Z</time>
      </trkpt>
      <trkpt lat="52.228397" lon="4.844528">
        <ele>-5.569389</ele>
        <time>2026-04-13T20:03:15.136Z</time>
      </trkpt>
      <trkpt lat="52.228346" lon="4.844382">
        <ele>-5.528591</ele>
        <time>2026-04-13T20:03:16.865Z</time>
      </trkpt>
      <trkpt lat="52.228299" lon="4.844252">
        <ele>-5.491948</ele>
        <time>2026-04-13T20:03:18.378Z</time>
      </trkpt>
      <trkpt lat="52.228099" lon="4.843696">
        <ele>-5.335431</ele>
        <time>2026-04-13T20:03:25.103Z</time>
      </trkpt>
      <trkpt lat="52.227957" lon="4.843532">
        <ele>-5.266499</ele>
        <time>2026-04-13T20:03:28.221Z</time>
      </trkpt>
      <trkpt lat="52.228469" lon="4.841433">
        <ele>-4.443255</ele>
        <time>2026-04-13T20:03:50.142Z</time>
      </trkpt>
      <trkpt lat="52.228642" lon="4.840714">
        <ele>-4.104047</ele>
        <time>2026-04-13T20:03:58.708Z</time>
      </trkpt>
      <trkpt lat="52.228690" lon="4.840406">
        <ele>-3.964492</ele>
        <time>2026-04-13T20:04:02.374Z</time>
      </trkpt>
      <trkpt lat="52.228772" lon="4.839681">
        <ele>-3.580313</ele>
        <time>2026-04-13T20:04:11.226Z</time>
      </trkpt>
      <trkpt lat="52.228982" lon="4.838794">
        <ele>-2.964889</ele>
        <time>2026-04-13T20:04:24.187Z</time>
      </trkpt>
      <trkpt lat="52.229025" lon="4.838461">
        <ele>-2.744647</ele>
        <time>2026-04-13T20:04:28.750Z</time>
      </trkpt>
      <trkpt lat="52.229292" lon="4.837523">
        <ele>-2.075261</ele>
        <time>2026-04-13T20:04:40.023Z</time>
      </trkpt>
      <trkpt lat="52.229430" lon="4.836882">
        <ele>-1.903438</ele>
        <time>2026-04-13T20:04:46.658Z</time>
      </trkpt>
      <trkpt lat="52.229422" lon="4.836613">
        <ele>-1.930087</ele>
        <time>2026-04-13T20:04:49.148Z</time>
      </trkpt>
      <trkpt lat="52.229308" lon="4.836255">
        <ele>-1.970012</ele>
        <time>2026-04-13T20:04:52.651Z</time>
      </trkpt>
      <trkpt lat="52.229098" lon="4.836031">
        <ele>-2.010537</ele>
        <time>2026-04-13T20:04:56.002Z</time>
      </trkpt>
      <trkpt lat="52.228898" lon="4.835543">
        <ele>-2.068637</ele>
        <time>2026-04-13T20:05:00.689Z</time>
      </trkpt>
      <trkpt lat="52.228143" lon="4.834532">
        <ele>-2.268089</ele>
        <time>2026-04-13T20:05:14.328Z</time>
      </trkpt>
      <trkpt lat="52.226498" lon="4.832465">
        <ele>-2.686097</ele>
        <time>2026-04-13T20:05:43.380Z</time>
      </trkpt>
      <trkpt lat="52.225988" lon="4.831826">
        <ele>-2.740102</ele>
        <time>2026-04-13T20:05:53.101Z</time>
      </trkpt>
      <trkpt lat="52.225586" lon="4.831322">
        <ele>-2.790520</ele>
        <time>2026-04-13T20:06:00.810Z</time>
      </trkpt>
      <trkpt lat="52.224454" lon="4.829887">
        <ele>-3.142008</ele>
        <time>2026-04-13T20:06:20.267Z</time>
      </trkpt>
      <trkpt lat="52.224285" lon="4.829707">
        <ele>-3.191496</ele>
        <time>2026-04-13T20:06:23.097Z</time>
      </trkpt>
      <trkpt lat="52.224004" lon="4.829508">
        <ele>-3.236255</ele>
        <time>2026-04-13T20:06:27.419Z</time>
      </trkpt>
      <trkpt lat="52.223879" lon="4.829447">
        <ele>-3.247544</ele>
        <time>2026-04-13T20:06:29.289Z</time>
      </trkpt>
      <trkpt lat="52.219996" lon="4.828563">
        <ele>-3.520382</ele>
        <time>2026-04-13T20:07:26.591Z</time>
      </trkpt>
      <trkpt lat="52.219201" lon="4.828331">
        <ele>-3.582674</ele>
        <time>2026-04-13T20:07:38.133Z</time>
      </trkpt>
      <trkpt lat="52.218408" lon="4.828011">
        <ele>-3.518662</ele>
        <time>2026-04-13T20:07:50.627Z</time>
      </trkpt>
      <trkpt lat="52.218270" lon="4.827916">
        <ele>-3.489814</ele>
        <time>2026-04-13T20:07:53.014Z</time>
      </trkpt>
      <trkpt lat="52.217791" lon="4.827225">
        <ele>-3.366683</ele>
        <time>2026-04-13T20:08:03.037Z</time>
      </trkpt>
      <trkpt lat="52.217438" lon="4.826659">
        <ele>-3.271373</ele>
        <time>2026-04-13T20:08:10.743Z</time>
      </trkpt>
      <trkpt lat="52.216959" lon="4.825898">
        <ele>-3.015894</ele>
        <time>2026-04-13T20:08:21.192Z</time>
      </trkpt>
      <trkpt lat="52.216223" lon="4.824914">
        <ele>-2.639599</ele>
        <time>2026-04-13T20:08:37.076Z</time>
      </trkpt>
      <trkpt lat="52.215959" lon="4.824448">
        <ele>-2.558818</ele>
        <time>2026-04-13T20:08:44.071Z</time>
      </trkpt>
      <trkpt lat="52.215568" lon="4.823678">
        <ele>-2.585724</ele>
        <time>2026-04-13T20:08:54.097Z</time>
      </trkpt>
      <trkpt lat="52.215515" lon="4.823581">
        <ele>-2.589220</ele>
        <time>2026-04-13T20:08:55.660Z</time>
      </trkpt>
      <trkpt lat="52.215151" lon="4.822995">
        <ele>-2.611671</ele>
        <time>2026-04-13T20:09:05.343Z</time>
      </trkpt>
      <trkpt lat="52.214937" lon="4.822751">
        <ele>-2.623134</ele>
        <time>2026-04-13T20:09:10.141Z</time>
      </trkpt>
      <trkpt lat="52.214783" lon="4.822589">
        <ele>-2.629820</ele>
        <time>2026-04-13T20:09:13.491Z</time>
      </trkpt>
      <trkpt lat="52.214597" lon="4.822414">
        <ele>-2.620353</ele>
        <time>2026-04-13T20:09:16.283Z</time>
      </trkpt>
      <trkpt lat="52.214541" lon="4.822353">
        <ele>-2.617385</ele>
        <time>2026-04-13T20:09:17.485Z</time>
      </trkpt>
      <trkpt lat="52.214117" lon="4.821812">
        <ele>-2.593654</ele>
        <time>2026-04-13T20:09:27.260Z</time>
      </trkpt>
      <trkpt lat="52.210922" lon="4.818002">
        <ele>-1.923001</ele>
        <time>2026-04-13T20:10:51.182Z</time>
      </trkpt>
      <trkpt lat="52.210726" lon="4.817714">
        <ele>-1.801900</ele>
        <time>2026-04-13T20:10:57.397Z</time>
      </trkpt>
      <trkpt lat="52.210300" lon="4.817020">
        <ele>-1.549887</ele>
        <time>2026-04-13T20:11:11.592Z</time>
      </trkpt>
      <trkpt lat="52.210251" lon="4.816797">
        <ele>-1.496715</ele>
        <time>2026-04-13T20:11:15.011Z</time>
      </trkpt>
      <trkpt lat="52.209958" lon="4.816097">
        <ele>-1.306446</ele>
        <time>2026-04-13T20:11:26.886Z</time>
      </trkpt>
      <trkpt lat="52.209758" lon="4.815486">
        <ele>-1.150968</ele>
        <time>2026-04-13T20:11:36.019Z</time>
      </trkpt>
      <trkpt lat="52.209490" lon="4.814437">
        <ele>-1.079350</ele>
        <time>2026-04-13T20:11:49.447Z</time>
      </trkpt>
      <trkpt lat="52.209493" lon="4.814330">
        <ele>-1.103614</ele>
        <time>2026-04-13T20:11:50.672Z</time>
      </trkpt>
      <trkpt lat="52.209487" lon="4.813949">
        <ele>-1.189950</ele>
        <time>2026-04-13T20:11:55.047Z</time>
      </trkpt>
      <trkpt lat="52.209461" lon="4.813765">
        <ele>-1.232726</ele>
        <time>2026-04-13T20:11:57.201Z</time>
      </trkpt>
      <trkpt lat="52.209447" lon="4.813689">
        <ele>-1.250703</ele>
        <time>2026-04-13T20:11:58.126Z</time>
      </trkpt>
      <trkpt lat="52.209367" lon="4.813264">
        <ele>-1.351418</ele>
        <time>2026-04-13T20:12:03.177Z</time>
      </trkpt>
      <trkpt lat="52.209343" lon="4.813155">
        <ele>-1.377656</ele>
        <time>2026-04-13T20:12:04.519Z</time>
      </trkpt>
      <trkpt lat="52.208879" lon="4.810898">
        <ele>-1.752603</ele>
        <time>2026-04-13T20:12:32.275Z</time>
      </trkpt>
      <trkpt lat="52.208594" lon="4.809569">
        <ele>-1.873639</ele>
        <time>2026-04-13T20:12:49.812Z</time>
      </trkpt>
      <trkpt lat="52.208475" lon="4.809245">
        <ele>-1.905639</ele>
        <time>2026-04-13T20:12:54.467Z</time>
      </trkpt>
      <trkpt lat="52.208268" lon="4.808498">
        <ele>-1.956497</ele>
        <time>2026-04-13T20:13:04.411Z</time>
      </trkpt>
      <trkpt lat="52.207861" lon="4.807130">
        <ele>-2.050835</ele>
        <time>2026-04-13T20:13:22.821Z</time>
      </trkpt>
      <trkpt lat="52.207821" lon="4.806851">
        <ele>-2.068611</ele>
        <time>2026-04-13T20:13:26.257Z</time>
      </trkpt>
      <trkpt lat="52.207365" lon="4.805313">
        <ele>-2.234138</ele>
        <time>2026-04-13T20:13:46.937Z</time>
      </trkpt>
      <trkpt lat="52.207265" lon="4.805047">
        <ele>-2.266580</ele>
        <time>2026-04-13T20:13:50.760Z</time>
      </trkpt>
      <trkpt lat="52.206594" lon="4.802745">
        <ele>-2.936665</ele>
        <time>2026-04-13T20:14:20.942Z</time>
      </trkpt>
      <trkpt lat="52.206242" lon="4.801434">
        <ele>-3.516140</ele>
        <time>2026-04-13T20:14:36.348Z</time>
      </trkpt>
      <trkpt lat="52.205883" lon="4.800279">
        <ele>-4.221815</ele>
        <time>2026-04-13T20:14:49.724Z</time>
      </trkpt>
      <trkpt lat="52.205761" lon="4.799978">
        <ele>-4.425452</ele>
        <time>2026-04-13T20:14:53.468Z</time>
      </trkpt>
      <trkpt lat="52.205525" lon="4.799068">
        <ele>-4.983038</ele>
        <time>2026-04-13T20:15:03.956Z</time>
      </trkpt>
      <trkpt lat="52.204627" lon="4.795265">
        <ele>-5.699640</ele>
        <time>2026-04-13T20:15:52.615Z</time>
      </trkpt>
      <trkpt lat="52.204603" lon="4.795170">
        <ele>-5.707296</ele>
        <time>2026-04-13T20:15:53.874Z</time>
      </trkpt>
      <trkpt lat="52.204543" lon="4.795015">
        <ele>-5.720955</ele>
        <time>2026-04-13T20:15:56.098Z</time>
      </trkpt>
      <trkpt lat="52.203212" lon="4.789568">
        <ele>-6.046214</ele>
        <time>2026-04-13T20:17:07.770Z</time>
      </trkpt>
      <trkpt lat="52.203182" lon="4.789378">
        <ele>-6.062396</ele>
        <time>2026-04-13T20:17:10.137Z</time>
      </trkpt>
      <trkpt lat="52.203150" lon="4.789256">
        <ele>-6.073341</ele>
        <time>2026-04-13T20:17:11.729Z</time>
      </trkpt>
      <trkpt lat="52.202236" lon="4.785625">
        <ele>-6.401827</ele>
        <time>2026-04-13T20:17:58.515Z</time>
      </trkpt>
      <trkpt lat="52.201921" lon="4.784485">
        <ele>-6.381431</ele>
        <time>2026-04-13T20:18:14.382Z</time>
      </trkpt>
      <trkpt lat="52.201685" lon="4.783709">
        <ele>-6.274878</ele>
        <time>2026-04-13T20:18:25.782Z</time>
      </trkpt>
      <trkpt lat="52.201604" lon="4.783568">
        <ele>-6.251107</ele>
        <time>2026-04-13T20:18:28.315Z</time>
      </trkpt>
      <trkpt lat="52.201497" lon="4.783530">
        <ele>-6.229131</ele>
        <time>2026-04-13T20:18:30.635Z</time>
      </trkpt>
      <trkpt lat="52.201460" lon="4.783452">
        <ele>-6.216999</ele>
        <time>2026-04-13T20:18:31.945Z</time>
      </trkpt>
      <trkpt lat="52.201439" lon="4.783372">
        <ele>-6.206294</ele>
        <time>2026-04-13T20:18:33.098Z</time>
      </trkpt>
      <trkpt lat="52.201393" lon="4.783224">
        <ele>-6.185883</ele>
        <time>2026-04-13T20:18:35.252Z</time>
      </trkpt>
      <trkpt lat="52.201429" lon="4.783101">
        <ele>-6.169117</ele>
        <time>2026-04-13T20:18:37.014Z</time>
      </trkpt>
      <trkpt lat="52.201428" lon="4.783003">
        <ele>-6.157062</ele>
        <time>2026-04-13T20:18:38.309Z</time>
      </trkpt>
      <trkpt lat="52.201045" lon="4.781657">
        <ele>-6.061488</ele>
        <time>2026-04-13T20:18:57.381Z</time>
      </trkpt>
      <trkpt lat="52.200554" lon="4.779774">
        <ele>-5.992950</ele>
        <time>2026-04-13T20:19:22.420Z</time>
      </trkpt>
      <trkpt lat="52.199261" lon="4.774483">
        <ele>-5.681382</ele>
        <time>2026-04-13T20:20:33.369Z</time>
      </trkpt>
      <trkpt lat="52.198683" lon="4.772399">
        <ele>-4.685038</ele>
        <time>2026-04-13T20:21:06.940Z</time>
      </trkpt>
      <trkpt lat="52.198621" lon="4.772282">
        <ele>-4.615747</ele>
        <time>2026-04-13T20:21:09.213Z</time>
      </trkpt>
      <trkpt lat="52.198258" lon="4.771943">
        <ele>-4.360306</ele>
        <time>2026-04-13T20:21:18.963Z</time>
      </trkpt>
      <trkpt lat="52.198214" lon="4.771731">
        <ele>-4.362745</ele>
        <time>2026-04-13T20:21:22.021Z</time>
      </trkpt>
      <trkpt lat="52.198194" lon="4.771638">
        <ele>-4.363819</ele>
        <time>2026-04-13T20:21:23.325Z</time>
      </trkpt>
      <trkpt lat="52.198390" lon="4.771444">
        <ele>-4.367894</ele>
        <time>2026-04-13T20:21:28.249Z</time>
      </trkpt>
      <trkpt lat="52.198775" lon="4.771205">
        <ele>-4.375218</ele>
        <time>2026-04-13T20:21:36.650Z</time>
      </trkpt>
      <trkpt lat="52.198799" lon="4.771133">
        <ele>-4.376111</ele>
        <time>2026-04-13T20:21:37.654Z</time>
      </trkpt>
      <trkpt lat="52.198797" lon="4.771047">
        <ele>-4.377049</ele>
        <time>2026-04-13T20:21:38.677Z</time>
      </trkpt>
      <trkpt lat="52.198781" lon="4.770945">
        <ele>-4.378196</ele>
        <time>2026-04-13T20:21:39.953Z</time>
      </trkpt>
      <trkpt lat="52.198600" lon="4.770494">
        <ele>-4.384070</ele>
        <time>2026-04-13T20:21:46.308Z</time>
      </trkpt>
      <trkpt lat="52.197972" lon="4.768238">
        <ele>-5.029161</ele>
        <time>2026-04-13T20:22:14.414Z</time>
      </trkpt>
      <trkpt lat="52.197800" lon="4.767800">
        <ele>-5.210172</ele>
        <time>2026-04-13T20:22:20.115Z</time>
      </trkpt>
      <trkpt lat="52.197420" lon="4.766190">
        <ele>-5.602482</ele>
        <time>2026-04-13T20:22:39.221Z</time>
      </trkpt>
      <trkpt lat="52.196384" lon="4.762028">
        <ele>-5.900000</ele>
        <time>2026-04-13T20:23:34.915Z</time>
      </trkpt>
      <trkpt lat="52.196244" lon="4.761581">
        <ele>-5.880642</ele>
        <time>2026-04-13T20:23:41.248Z</time>
      </trkpt>
      <trkpt lat="52.196086" lon="4.761200">
        <ele>-5.847645</ele>
        <time>2026-04-13T20:23:46.805Z</time>
      </trkpt>
      <trkpt lat="52.195860" lon="4.760805">
        <ele>-5.808885</ele>
        <time>2026-04-13T20:23:53.510Z</time>
      </trkpt>
      <trkpt lat="52.195649" lon="4.760516">
        <ele>-5.776644</ele>
        <time>2026-04-13T20:23:59.243Z</time>
      </trkpt>
      <trkpt lat="52.195409" lon="4.760264">
        <ele>-5.743243</ele>
        <time>2026-04-13T20:24:05.094Z</time>
      </trkpt>
      <trkpt lat="52.195160" lon="4.760065">
        <ele>-5.710795</ele>
        <time>2026-04-13T20:24:10.922Z</time>
      </trkpt>
      <trkpt lat="52.194790" lon="4.759865">
        <ele>-5.547727</ele>
        <time>2026-04-13T20:24:19.202Z</time>
      </trkpt>
      <trkpt lat="52.194518" lon="4.759793">
        <ele>-5.359817</ele>
        <time>2026-04-13T20:24:25.256Z</time>
      </trkpt>
      <trkpt lat="52.194211" lon="4.759769">
        <ele>-5.150225</ele>
        <time>2026-04-13T20:24:32.584Z</time>
      </trkpt>
      <trkpt lat="52.193810" lon="4.759844">
        <ele>-4.874980</ele>
        <time>2026-04-13T20:24:42.288Z</time>
      </trkpt>
      <trkpt lat="52.193397" lon="4.759976">
        <ele>-4.587989</ele>
        <time>2026-04-13T20:24:52.298Z</time>
      </trkpt>
      <trkpt lat="52.192291" lon="4.760330">
        <ele>-4.140815</ele>
        <time>2026-04-13T20:25:17.647Z</time>
      </trkpt>
      <trkpt lat="52.192159" lon="4.760291">
        <ele>-4.095023</ele>
        <time>2026-04-13T20:25:20.486Z</time>
      </trkpt>
      <trkpt lat="52.191826" lon="4.760091">
        <ele>-3.973893</ele>
        <time>2026-04-13T20:25:27.765Z</time>
      </trkpt>
      <trkpt lat="52.191245" lon="4.760402">
        <ele>-3.878541</ele>
        <time>2026-04-13T20:25:36.895Z</time>
      </trkpt>
      <trkpt lat="52.191044" lon="4.760378">
        <ele>-3.902787</ele>
        <time>2026-04-13T20:25:40.864Z</time>
      </trkpt>
      <trkpt lat="52.190945" lon="4.760416">
        <ele>-3.915022</ele>
        <time>2026-04-13T20:25:42.848Z</time>
      </trkpt>
      <trkpt lat="52.190428" lon="4.760460">
        <ele>-3.977305</ele>
        <time>2026-04-13T20:25:52.742Z</time>
      </trkpt>
      <trkpt lat="52.190333" lon="4.760463">
        <ele>-3.988736</ele>
        <time>2026-04-13T20:25:54.583Z</time>
      </trkpt>
      <trkpt lat="52.189475" lon="4.760472">
        <ele>-4.112824</ele>
        <time>2026-04-13T20:26:11.803Z</time>
      </trkpt>
      <trkpt lat="52.189413" lon="4.760437">
        <ele>-4.126912</ele>
        <time>2026-04-13T20:26:13.132Z</time>
      </trkpt>
      <trkpt lat="52.189346" lon="4.760331">
        <ele>-4.146956</ele>
        <time>2026-04-13T20:26:14.985Z</time>
      </trkpt>
      <trkpt lat="52.189272" lon="4.760397">
        <ele>-4.165067</ele>
        <time>2026-04-13T20:26:16.727Z</time>
      </trkpt>
      <trkpt lat="52.189225" lon="4.760440">
        <ele>-4.176639</ele>
        <time>2026-04-13T20:26:17.782Z</time>
      </trkpt>
      <trkpt lat="52.189127" lon="4.760522">
        <ele>-4.200291</ele>
        <time>2026-04-13T20:26:19.997Z</time>
      </trkpt>
      <trkpt lat="52.188900" lon="4.761028">
        <ele>-4.282836</ele>
        <time>2026-04-13T20:26:27.528Z</time>
      </trkpt>
      <trkpt lat="52.188414" lon="4.761467">
        <ele>-4.402134</ele>
        <time>2026-04-13T20:26:38.490Z</time>
      </trkpt>
      <trkpt lat="52.188041" lon="4.761971">
        <ele>-4.581229</ele>
        <time>2026-04-13T20:26:47.304Z</time>
      </trkpt>
      <trkpt lat="52.187978" lon="4.762035">
        <ele>-4.619116</ele>
        <time>2026-04-13T20:26:48.626Z</time>
      </trkpt>
      <trkpt lat="52.187878" lon="4.762074">
        <ele>-4.671603</ele>
        <time>2026-04-13T20:26:50.456Z</time>
      </trkpt>
      <trkpt lat="52.187812" lon="4.762253">
        <ele>-4.736973</ele>
        <time>2026-04-13T20:26:52.736Z</time>
      </trkpt>
      <trkpt lat="52.187750" lon="4.762264">
        <ele>-4.768809</ele>
        <time>2026-04-13T20:26:53.849Z</time>
      </trkpt>
      <trkpt lat="52.187646" lon="4.762365">
        <ele>-4.830596</ele>
        <time>2026-04-13T20:26:56.000Z</time>
      </trkpt>
      <trkpt lat="52.187487" lon="4.762534">
        <ele>-4.927473</ele>
        <time>2026-04-13T20:26:59.368Z</time>
      </trkpt>
      <trkpt lat="52.186963" lon="4.762951">
        <ele>-5.225099</ele>
        <time>2026-04-13T20:27:09.960Z</time>
      </trkpt>
      <trkpt lat="52.185462" lon="4.763886">
        <ele>-5.486976</ele>
        <time>2026-04-13T20:27:42.107Z</time>
      </trkpt>
      <trkpt lat="52.185242" lon="4.764023">
        <ele>-5.507831</ele>
        <time>2026-04-13T20:27:47.016Z</time>
      </trkpt>
      <trkpt lat="52.183147" lon="4.765325">
        <ele>-5.750573</ele>
        <time>2026-04-13T20:28:31.623Z</time>
      </trkpt>
      <trkpt lat="52.181413" lon="4.766404">
        <ele>-6.094239</ele>
        <time>2026-04-13T20:29:07.122Z</time>
      </trkpt>
      <trkpt lat="52.180377" lon="4.767048">
        <ele>-6.073074</ele>
        <time>2026-04-13T20:29:29.720Z</time>
      </trkpt>
      <trkpt lat="52.176643" lon="4.769361">
        <ele>-5.176398</ele>
        <time>2026-04-13T20:30:54.792Z</time>
      </trkpt>
      <trkpt lat="52.176595" lon="4.769160">
        <ele>-5.182723</ele>
        <time>2026-04-13T20:30:56.760Z</time>
      </trkpt>
      <trkpt lat="52.176461" lon="4.768566">
        <ele>-5.236231</ele>
        <time>2026-04-13T20:31:02.440Z</time>
      </trkpt>
      <trkpt lat="52.175245" lon="4.763549">
        <ele>-5.772374</ele>
        <time>2026-04-13T20:31:48.894Z</time>
      </trkpt>
      <trkpt lat="52.174724" lon="4.761419">
        <ele>-5.649210</ele>
        <time>2026-04-13T20:32:10.987Z</time>
      </trkpt>
      <trkpt lat="52.174398" lon="4.760083">
        <ele>-5.663565</ele>
        <time>2026-04-13T20:32:23.916Z</time>
      </trkpt>
      <trkpt lat="52.174231" lon="4.759395">
        <ele>-5.684177</ele>
        <time>2026-04-13T20:32:30.398Z</time>
      </trkpt>
      <trkpt lat="52.172818" lon="4.753606">
        <ele>-5.703746</ele>
        <time>2026-04-13T20:33:26.462Z</time>
      </trkpt>
      <trkpt lat="52.172811" lon="4.753579">
        <ele>-5.702949</ele>
        <time>2026-04-13T20:33:26.766Z</time>
      </trkpt>
      <trkpt lat="52.172762" lon="4.753370">
        <ele>-5.696872</ele>
        <time>2026-04-13T20:33:29.013Z</time>
      </trkpt>
      <trkpt lat="52.172663" lon="4.752968">
        <ele>-5.685107</ele>
        <time>2026-04-13T20:33:33.341Z</time>
      </trkpt>
      <trkpt lat="52.172025" lon="4.750370">
        <ele>-5.639005</ele>
        <time>2026-04-13T20:33:58.386Z</time>
      </trkpt>
      <trkpt lat="52.171456" lon="4.748015">
        <ele>-5.405882</ele>
        <time>2026-04-13T20:34:22.767Z</time>
      </trkpt>
      <trkpt lat="52.171348" lon="4.747567">
        <ele>-5.359200</ele>
        <time>2026-04-13T20:34:27.523Z</time>
      </trkpt>
      <trkpt lat="52.169061" lon="4.738177">
        <ele>-5.192064</ele>
        <time>2026-04-13T20:36:00.001Z</time>
      </trkpt>
      <trkpt lat="52.169046" lon="4.738116">
        <ele>-5.190988</ele>
        <time>2026-04-13T20:36:00.623Z</time>
      </trkpt>
      <trkpt lat="52.169022" lon="4.738015">
        <ele>-5.189215</ele>
        <time>2026-04-13T20:36:01.607Z</time>
      </trkpt>
      <trkpt lat="52.168359" lon="4.738422">
        <ele>-5.170305</ele>
        <time>2026-04-13T20:36:16.015Z</time>
      </trkpt>
      <trkpt lat="52.168081" lon="4.738600">
        <ele>-5.177841</ele>
        <time>2026-04-13T20:36:22.005Z</time>
      </trkpt>
      <trkpt lat="52.167315" lon="4.739078">
        <ele>-5.335622</ele>
        <time>2026-04-13T20:36:38.122Z</time>
      </trkpt>
      <trkpt lat="52.162771" lon="4.741913">
        <ele>-6.238157</ele>
        <time>2026-04-13T20:38:12.532Z</time>
      </trkpt>
      <trkpt lat="52.162709" lon="4.741950">
        <ele>-6.243438</ele>
        <time>2026-04-13T20:38:13.911Z</time>
      </trkpt>
      <trkpt lat="52.162598" lon="4.742016">
        <ele>-6.252888</ele>
        <time>2026-04-13T20:38:16.335Z</time>
      </trkpt>
      <trkpt lat="52.161852" lon="4.742477">
        <ele>-6.316702</ele>
        <time>2026-04-13T20:38:32.618Z</time>
      </trkpt>
      <trkpt lat="52.161107" lon="4.742941">
        <ele>-6.308565</ele>
        <time>2026-04-13T20:38:48.146Z</time>
      </trkpt>
      <trkpt lat="52.160144" lon="4.743544">
        <ele>-6.173665</ele>
        <time>2026-04-13T20:39:09.223Z</time>
      </trkpt>
      <trkpt lat="52.159026" lon="4.744239">
        <ele>-6.047730</ele>
        <time>2026-04-13T20:39:36.046Z</time>
      </trkpt>
      <trkpt lat="52.158015" lon="4.744863">
        <ele>-5.962757</ele>
        <time>2026-04-13T20:39:57.334Z</time>
      </trkpt>
      <trkpt lat="52.157537" lon="4.745160">
        <ele>-6.046623</ele>
        <time>2026-04-13T20:40:06.709Z</time>
      </trkpt>
      <trkpt lat="52.156236" lon="4.745981">
        <ele>-6.253963</ele>
        <time>2026-04-13T20:40:34.548Z</time>
      </trkpt>
      <trkpt lat="52.156012" lon="4.746122">
        <ele>-6.261482</ele>
        <time>2026-04-13T20:40:39.525Z</time>
      </trkpt>
      <trkpt lat="52.154880" lon="4.746828">
        <ele>-6.299437</ele>
        <time>2026-04-13T20:41:03.642Z</time>
      </trkpt>
      <trkpt lat="52.154568" lon="4.747024">
        <ele>-6.283241</ele>
        <time>2026-04-13T20:41:10.169Z</time>
      </trkpt>
      <trkpt lat="52.152424" lon="4.748363">
        <ele>-5.959034</ele>
        <time>2026-04-13T20:41:58.560Z</time>
      </trkpt>
      <trkpt lat="52.151733" lon="4.748796">
        <ele>-5.866489</ele>
        <time>2026-04-13T20:42:14.190Z</time>
      </trkpt>
      <trkpt lat="52.151407" lon="4.749000">
        <ele>-5.822835</ele>
        <time>2026-04-13T20:42:21.121Z</time>
      </trkpt>
      <trkpt lat="52.151055" lon="4.749220">
        <ele>-5.793928</ele>
        <time>2026-04-13T20:42:28.586Z</time>
      </trkpt>
      <trkpt lat="52.150534" lon="4.749545">
        <ele>-5.756527</ele>
        <time>2026-04-13T20:42:39.280Z</time>
      </trkpt>
      <trkpt lat="52.148267" lon="4.750950">
        <ele>-5.349344</ele>
        <time>2026-04-13T20:43:31.540Z</time>
      </trkpt>
      <trkpt lat="52.147869" lon="4.751196">
        <ele>-5.300481</ele>
        <time>2026-04-13T20:43:40.203Z</time>
      </trkpt>
      <trkpt lat="52.147560" lon="4.751387">
        <ele>-5.353302</ele>
        <time>2026-04-13T20:43:46.439Z</time>
      </trkpt>
      <trkpt lat="52.147513" lon="4.751416">
        <ele>-5.361335</ele>
        <time>2026-04-13T20:43:47.370Z</time>
      </trkpt>
      <trkpt lat="52.147466" lon="4.751451">
        <ele>-5.369594</ele>
        <time>2026-04-13T20:43:48.342Z</time>
      </trkpt>
      <trkpt lat="52.147278" lon="4.751375">
        <ele>-5.400553</ele>
        <time>2026-04-13T20:43:52.052Z</time>
      </trkpt>
      <trkpt lat="52.147195" lon="4.751298">
        <ele>-5.415818</ele>
        <time>2026-04-13T20:43:53.874Z</time>
      </trkpt>
      <trkpt lat="52.147140" lon="4.751191">
        <ele>-5.429508</ele>
        <time>2026-04-13T20:43:55.513Z</time>
      </trkpt>
      <trkpt lat="52.147088" lon="4.751223">
        <ele>-5.438392</ele>
        <time>2026-04-13T20:43:56.594Z</time>
      </trkpt>
      <trkpt lat="52.147027" lon="4.751263">
        <ele>-5.448902</ele>
        <time>2026-04-13T20:43:57.879Z</time>
      </trkpt>
      <trkpt lat="52.146993" lon="4.751286">
        <ele>-5.454786</ele>
        <time>2026-04-13T20:43:58.588Z</time>
      </trkpt>
      <trkpt lat="52.146990" lon="4.751401">
        <ele>-5.466075</ele>
        <time>2026-04-13T20:43:59.990Z</time>
      </trkpt>
      <trkpt lat="52.146949" lon="4.751577">
        <ele>-5.484539</ele>
        <time>2026-04-13T20:44:02.256Z</time>
      </trkpt>
      <trkpt lat="52.146750" lon="4.751892">
        <ele>-5.528881</ele>
        <time>2026-04-13T20:44:07.658Z</time>
      </trkpt>
      <trkpt lat="52.146530" lon="4.752035">
        <ele>-5.566738</ele>
        <time>2026-04-13T20:44:12.279Z</time>
      </trkpt>
      <trkpt lat="52.146090" lon="4.752303">
        <ele>-5.620674</ele>
        <time>2026-04-13T20:44:21.663Z</time>
      </trkpt>
      <trkpt lat="52.145729" lon="4.752528">
        <ele>-5.664797</ele>
        <time>2026-04-13T20:44:29.714Z</time>
      </trkpt>
      <trkpt lat="52.145130" lon="4.752901">
        <ele>-5.738000</ele>
        <time>2026-04-13T20:44:42.538Z</time>
      </trkpt>
      <trkpt lat="52.144876" lon="4.753059">
        <ele>-5.769038</ele>
        <time>2026-04-13T20:44:47.671Z</time>
      </trkpt>
      <trkpt lat="52.143878" lon="4.753691">
        <ele>-6.033176</ele>
        <time>2026-04-13T20:45:07.631Z</time>
      </trkpt>
      <trkpt lat="52.138670" lon="4.756948">
        <ele>-6.301837</ele>
        <time>2026-04-13T20:46:59.528Z</time>
      </trkpt>
      <trkpt lat="52.135901" lon="4.758692">
        <ele>-5.646947</ele>
        <time>2026-04-13T20:48:02.268Z</time>
      </trkpt>
      <trkpt lat="52.135134" lon="4.759143">
        <ele>-5.280801</ele>
        <time>2026-04-13T20:48:20.377Z</time>
      </trkpt>
      <trkpt lat="52.134669" lon="4.759299">
        <ele>-5.028347</ele>
        <time>2026-04-13T20:48:30.972Z</time>
      </trkpt>
      <trkpt lat="52.133715" lon="4.759520">
        <ele>-4.122739</ele>
        <time>2026-04-13T20:48:53.653Z</time>
      </trkpt>
      <trkpt lat="52.132934" lon="4.759631">
        <ele>-3.381478</ele>
        <time>2026-04-13T20:49:13.167Z</time>
      </trkpt>
      <trkpt lat="52.132213" lon="4.759785">
        <ele>-2.585687</ele>
        <time>2026-04-13T20:49:31.593Z</time>
      </trkpt>
      <trkpt lat="52.131505" lon="4.759903">
        <ele>-1.806831</ele>
        <time>2026-04-13T20:49:48.981Z</time>
      </trkpt>
      <trkpt lat="52.131376" lon="4.759961">
        <ele>-1.660379</ele>
        <time>2026-04-13T20:49:52.204Z</time>
      </trkpt>
      <trkpt lat="52.131442" lon="4.760116">
        <ele>-1.533655</ele>
        <time>2026-04-13T20:49:54.980Z</time>
      </trkpt>
      <trkpt lat="52.131498" lon="4.760249">
        <ele>-1.444780</ele>
        <time>2026-04-13T20:49:57.363Z</time>
      </trkpt>
      <trkpt lat="52.131576" lon="4.760434">
        <ele>-1.444780</ele>
        <time>2026-04-13T20:50:00.603Z</time>
      </trkpt>
      <trkpt lat="52.131623" lon="4.760546">
        <ele>-1.444780</ele>
        <time>2026-04-13T20:50:02.505Z</time>
      </trkpt>
      <trkpt lat="52.131684" lon="4.760692">
        <ele>-1.444780</ele>
        <time>2026-04-13T20:50:05.056Z</time>
      </trkpt>
      <trkpt lat="52.131736" lon="4.760815">
        <ele>-1.444780</ele>
        <time>2026-04-13T20:50:07.200Z</time>
      </trkpt>
      <trkpt lat="52.131913" lon="4.761236">
        <ele>-1.444780</ele>
        <time>2026-04-13T20:50:14.409Z</time>
      </trkpt>
      <trkpt lat="52.132068" lon="4.761606">
        <ele>-1.444780</ele>
        <time>2026-04-13T20:50:20.626Z</time>
      </trkpt>
      <trkpt lat="52.132129" lon="4.761750">
        <ele>-1.444780</ele>
        <time>2026-04-13T20:50:22.973Z</time>
      </trkpt>
      <trkpt lat="52.132219" lon="4.761967">
        <ele>-1.444780</ele>
        <time>2026-04-13T20:50:26.462Z</time>
      </trkpt>
      <trkpt lat="52.132380" lon="4.762353">
        <ele>-1.444780</ele>
        <time>2026-04-13T20:50:32.680Z</time>
      </trkpt>
      <trkpt lat="52.132495" lon="4.762599">
        <ele>-1.444780</ele>
        <time>2026-04-13T20:50:36.650Z</time>
      </trkpt>
      <trkpt lat="52.132551" lon="4.762695">
        <ele>-1.444780</ele>
        <time>2026-04-13T20:50:38.318Z</time>
      </trkpt>
      <trkpt lat="52.132611" lon="4.762787">
        <ele>-1.444780</ele>
        <time>2026-04-13T20:50:39.985Z</time>
      </trkpt>
    </trkseg>
  </trk>
</gpx>